[[{"header":{"parameterUnit":"m.s-1","parameterCategory":1,"la1":31.0,"la2":29.5877,"lo1":-88.7671,"lo2":-86.6584,"dx":0.0162,"dy":0.0185,"nx":115,"ny":88,"refTime":"2023-01-02T06:00:00:Z","depth":0,"parameterNumber":2,"parameterNumberName":"U-component_of_WINDS"},"data":[0.0,0.0,0.0,0.0,0.0,0.0,0.0,0.0,0.0,0.0,0.0,0.0,0.0,0.0,0.0,0.0,0.0,0.0,0.0,0.0,0.0,0.0,0.0,0.0,0.0,0.0,0.0,0.0,0.0,0.0,0.0,0.0,0.0,0.0,0.0,0.0,0.0,0.0,0.0,0.0,0.0,0.0,0.0,0.0,0.0,0.0,0.0,0.0,0.0,0.0,0.0,0.0,0.0,0.0,0.0,0.0,0.0,0.0,0.0,0.0,0.0,0.0,0.0,0.0,0.0,0.0,0.0,0.0,0.0,0.0,0.0,0.0,0.0,0.0,0.0,0.0,0.0,0.0,0.0,0.0,0.0,0.0,0.0,0.0,0.0,0.0,0.0,0.0,0.0,0.0,0.0,0.0,0.0,0.0,0.0,0.0,0.0,0.0,0.0,0.0,0.0,0.0,0.0,0.0,0.0,0.0,0.0,0.0,0.0,0.0,0.0,0.0,0.0,0.0,0.0,0.0,0.0,0.0,0.0,0.0,0.0,0.0,0.0,0.0,0.0,0.0,0.0,0.0,0.0,0.0,0.0,0.0,0.0,0.0,0.0,0.0,0.0,0.0,0.0,0.0,0.0,0.0,0.0,0.0,0.0,0.0,0.0,0.0,0.0,0.0,0.0,0.0,0.0,0.0,0.0,0.0,0.0,0.0,0.0,0.0,0.0,0.0,0.0,0.0,0.0,0.0,0.0,0.0,0.0,0.0,0.0,0.0,0.0,0.0,0.0,0.0,0.0,0.0,0.0,0.0,0.0,0.0,0.0,0.0,0.0,0.0,0.0,0.0,0.0,0.0,0.0,0.0,0.0,0.0,0.0,0.0,0.0,0.0,0.0,0.0,0.0,0.0,0.0,0.0,0.0,0.0,0.0,0.0,0.0,0.0,0.0,0.0,0.0,0.0,0.0,0.0,0.0,0.0,0.0,0.0,0.0,0.0,0.0,0.0,0.0,0.0,0.0,0.0,0.0,0.0,0.0,0.0,0.0,0.0,0.0,0.0,0.0,0.0,0.0,0.0,0.0,0.0,0.0,0.0,0.0,0.0,0.0,0.0,0.0,0.0,0.0,0.0,0.0,0.0,0.0,0.0,0.0,0.0,0.0,0.0,0.0,0.0,0.0,0.0,0.0,0.0,0.0,0.0,0.0,0.0,0.0,0.0,0.0,0.0,0.0,0.0,0.0,0.0,0.0,0.0,0.0,0.0,0.0,0.0,0.0,0.0,0.0,0.0,0.0,0.0,0.0,0.0,0.0,0.0,0.0,0.0,0.0,0.0,0.0,0.0,0.0,0.0,0.0,0.0,0.0,0.0,0.0,0.0,0.0,0.0,0.0,0.0,0.0,0.0,0.0,0.0,0.0,0.0,0.0,0.0,0.0,0.0,0.0,0.0,0.0,0.0,0.0,0.0,0.0,0.0,0.0,0.0,0.0,0.0,0.0,0.0,0.0,0.0,0.0,0.0,0.0,0.0,0.0,0.0,0.0,0.0,0.0,0.0,0.0,0.0,0.0,0.0,0.0,0.0,0.0,0.0,0.0,0.0,0.0,0.0,0.0,0.0,0.0,0.0,0.0,0.0,0.0,0.0,0.0,0.0,0.0,0.0,0.0,0.0,0.0,0.0,0.0,0.0,0.0,0.0,0.0,0.0,0.0,0.0,0.0,0.0,0.0,0.0,0.0,0.0,0.0,0.0,0.0,0.0,0.0,0.0,0.0,0.0,0.0,0.0,0.0,0.0,0.0,0.0,0.0,0.0,0.0,0.0,0.0,0.0,0.0,0.0,0.0,0.0,0.0,0.0,0.0,0.0,0.0,0.0,0.0,0.0,0.0,0.0,0.0,0.0,0.0,0.0,0.0,0.0,0.0,0.0,0.0,0.0,0.0,0.0,0.0,0.0,0.0,0.0,0.0,0.0,0.0,0.0,0.0,0.0,0.0,0.0,0.0,0.0,0.0,0.0,0.0,0.0,0.0,0.0,0.0,0.0,0.0,0.0,0.0,0.0,0.0,0.0,0.0,0.0,0.0,0.0,0.0,0.0,0.0,0.0,0.0,0.0,0.0,0.0,0.0,0.0,0.0,0.0,0.0,0.0,0.0,0.0,0.0,0.0,0.0,0.0,0.0,0.0,0.0,0.0,0.0,0.0,0.0,0.0,0.0,0.0,0.0,0.0,0.0,0.0,0.0,0.0,0.0,0.0,0.0,0.0,0.0,0.0,0.0,0.0,0.0,0.0,0.0,0.0,0.0,0.0,0.0,0.0,0.0,0.0,0.0,0.0,0.0,0.0,0.0,0.0,0.0,0.0,0.0,0.0,0.0,0.0,0.0,0.0,0.0,0.0,0.0,0.0,0.0,0.0,0.0,0.0,0.0,0.0,0.0,0.0,0.0,0.0,0.0,0.0,0.0,0.0,0.0,0.0,0.0,0.0,0.0,0.0,0.0,0.0,0.0,0.0,0.0,0.0,0.0,0.0,0.0,0.0,0.0,0.0,0.0,0.0,0.0,0.0,0.0,0.0,0.0,0.0,0.0,0.0,0.0,0.0,0.0,0.0,0.0,0.0,0.0,0.0,0.0,0.0,0.0,0.0,0.0,0.0,0.0,0.0,0.0,0.0,0.0,0.0,0.0,0.0,0.0,0.0,0.0,0.0,0.0,0.0,0.0,0.0,0.0,0.0,0.0,0.0,0.0,0.0,0.0,0.0,0.0,0.0,0.0,0.0,0.0,0.0,0.0,0.0,0.0,0.0,0.0,0.0,0.0,0.0,0.0,0.0,0.0,0.0,0.0,0.0,0.0,0.0,0.0,0.0,0.0,0.0,0.0,0.0,0.0,0.0,0.0,0.0,0.0,0.0,0.0,0.0,0.0,0.0,0.0,0.0,0.0,0.0,0.0,0.0,0.0,0.0,0.0,0.0,0.0,0.0,0.0,0.0,0.0,0.0,0.0,0.0,0.0,0.0,0.0,0.0,0.0,0.0,0.0,0.0,0.0,0.0,0.0,0.0,0.0,0.0,0.0,0.0,0.0,0.0,0.0,0.0,0.0,0.0,0.0,0.0,0.0,0.0,0.0,0.0,0.0,0.0,0.0,0.0,0.0,0.0,0.0,0.0,0.0,0.0,0.0,0.0,0.0,0.0,0.0,0.0,0.0,0.0,0.0,0.0,0.0,0.0,0.0,0.0,0.0,0.0,0.0,0.0,0.0,0.0,0.0,0.0,0.0,0.0,0.0,0.0,0.0,0.0,0.0,0.0,0.0,0.0,0.0,0.0,0.0,0.0,0.0,0.0,0.0,0.0,0.0,0.0,0.0,0.0,0.0,0.0,0.0,0.0,0.0,0.0,0.0,0.0,0.0,0.0,0.0,0.0,0.0,0.0,0.0,0.0,0.0,0.0,0.0,0.0,0.0,0.0,0.0,0.0,0.0,0.0,0.0,0.0,0.0,0.0,0.0,0.0,0.0,0.0,0.0,0.0,0.0,0.0,0.0,0.0,0.0,0.0,0.0,0.0,0.0,0.0,0.0,0.0,0.0,0.0,0.0,0.0,0.0,0.0,0.0,0.0,0.0,0.0,0.0,0.0,0.0,0.0,0.0,0.0,0.0,0.0,0.0,0.0,0.0,0.0,0.0,0.0,0.0,0.0,0.0,0.0,0.0,0.0,0.0,0.0,0.0,0.0,0.0,0.0,0.0,0.0,0.0,0.0,0.0,0.0,0.0,0.0,0.0,0.0,0.0,0.0,0.0,0.0,0.0,0.0,0.0,0.0,0.0,0.0,0.0,0.0,0.0,0.0,0.0,0.0,0.0,0.0,0.0,0.0,0.0,0.0,0.0,0.0,0.0,0.0,0.0,0.0,0.0,0.0,0.0,0.0,0.0,0.0,0.0,0.0,0.0,0.0,0.0,0.0,0.0,0.0,0.0,0.0,0.0,0.0,0.0,0.0,0.0,0.0,0.0,0.0,0.0,0.0,0.0,0.0,0.0,0.0,0.0,0.0,0.0,0.0,0.0,0.0,0.0,0.0,0.0,0.0,0.0,0.0,0.0,0.0,0.0,0.0,0.0,0.0,0.0,0.0,0.0,0.0,0.0,0.0,0.0,0.0,0.0,0.0,0.0,0.0,0.0,0.0,0.0,0.0,0.0,0.0,0.0,0.0,0.0,0.0,0.0,0.0,0.0,0.0,0.0,0.0,0.0,0.0,0.0,0.0,0.0,0.0,2.3785,0.0,0.0,0.0,2.3984,0.0,0.0,0.0,0.0,0.0,0.0,0.0,0.0,0.0,0.0,0.0,0.0,0.0,0.0,0.0,0.0,0.0,0.0,0.0,0.0,0.0,0.0,0.0,0.0,0.0,0.0,0.0,0.0,0.0,0.0,0.0,0.0,0.0,0.0,0.0,0.0,0.0,0.0,0.0,0.0,0.0,0.0,0.0,0.0,0.0,0.0,0.0,0.0,0.0,0.0,0.0,0.0,0.0,0.0,0.0,0.0,0.0,0.0,0.0,0.0,0.0,0.0,0.0,0.0,0.0,0.0,0.0,0.0,0.0,0.0,0.0,0.0,0.0,0.0,0.0,0.0,0.0,0.0,0.0,0.0,0.0,0.0,0.0,0.0,0.0,0.0,0.0,0.0,0.0,0.0,0.0,0.0,0.0,0.0,0.0,0.0,0.0,0.0,0.0,0.0,0.0,0.0,0.0,0.0,0.0,0.0,0.0,0.0,0.0,0.0,2.4414,2.4017,2.3984,2.4183,2.4547,0.0,0.0,0.0,0.0,0.0,0.0,0.0,0.0,0.0,0.0,0.0,0.0,0.0,0.0,0.0,0.0,0.0,0.0,0.0,0.0,0.0,0.0,0.0,0.0,0.0,0.0,0.0,0.0,0.0,0.0,0.0,0.0,0.0,0.0,0.0,0.0,0.0,0.0,0.0,0.0,0.0,0.0,0.0,0.0,0.0,0.0,0.0,0.0,0.0,0.0,0.0,0.0,0.0,0.0,0.0,0.0,0.0,0.0,0.0,0.0,0.0,0.0,0.0,0.0,0.0,0.0,0.0,0.0,0.0,0.0,0.0,0.0,0.0,0.0,0.0,0.0,0.0,0.0,0.0,0.0,0.0,0.0,0.0,0.0,0.0,0.0,0.0,0.0,0.0,0.0,0.0,0.0,0.0,0.0,0.0,0.0,0.0,0.0,0.0,0.0,0.0,0.0,0.0,0.0,0.0,0.0,0.0,0.0,0.0,0.0,0.0,0.0,2.4514,2.4613,2.4812,0.0,0.0,0.0,0.0,0.0,0.0,0.0,0.0,0.0,0.0,0.0,0.0,0.0,0.0,0.0,0.0,0.0,0.0,0.0,0.0,0.0,0.0,0.0,0.0,0.0,0.0,0.0,0.0,0.0,0.0,0.0,0.0,0.0,0.0,0.0,0.0,0.0,0.0,0.0,0.0,0.0,0.0,0.0,0.0,0.0,0.0,0.0,0.0,0.0,0.0,0.0,0.0,0.0,0.0,0.0,0.0,0.0,0.0,0.0,0.0,0.0,0.0,0.0,0.0,0.0,0.0,0.0,0.0,0.0,0.0,0.0,0.0,0.0,0.0,0.0,0.0,0.0,0.0,0.0,0.0,0.0,0.0,0.0,0.0,0.0,0.0,0.0,0.0,0.0,0.0,0.0,0.0,0.0,0.0,0.0,0.0,0.0,0.0,0.0,0.0,0.0,0.0,0.0,0.0,0.0,0.0,0.0,0.0,0.0,0.0,2.6071,2.6005,2.6005,0.0,2.4216,0.0,0.0,0.0,0.0,0.0,0.0,0.0,0.0,0.0,0.0,0.0,0.0,0.0,0.0,0.0,0.0,0.0,0.0,0.0,0.0,0.0,0.0,0.0,0.0,0.0,0.0,0.0,0.0,0.0,0.0,0.0,0.0,0.0,0.0,0.0,0.0,0.0,0.0,0.0,0.0,0.0,0.0,0.0,0.0,0.0,0.0,0.0,0.0,0.0,0.0,0.0,0.0,0.0,0.0,0.0,0.0,0.0,0.0,0.0,0.0,0.0,0.0,0.0,0.0,0.0,0.0,0.0,0.0,0.0,0.0,0.0,0.0,0.0,0.0,0.0,0.0,0.0,0.0,0.0,0.0,0.0,0.0,0.0,0.0,0.0,0.0,0.0,0.0,0.0,0.0,0.0,0.0,0.0,0.0,0.0,0.0,0.0,0.0,0.0,0.0,0.0,0.0,0.0,0.0,0.0,0.0,0.0,0.0,0.0,0.0,2.6203,2.6203,2.6203,2.5508,0.0,0.0,0.0,0.0,0.0,0.0,0.0,0.0,0.0,0.0,0.0,0.0,0.0,0.0,0.0,0.0,0.0,0.0,0.0,0.0,0.0,0.0,0.0,0.0,0.0,0.0,0.0,0.0,0.0,0.0,0.0,0.0,0.0,0.0,0.0,0.0,0.0,0.0,0.0,0.0,0.0,0.0,0.0,0.0,0.0,0.0,0.0,0.0,0.0,0.0,0.0,0.0,0.0,0.0,0.0,0.0,0.0,0.0,0.0,0.0,0.0,0.0,0.0,0.0,0.0,0.0,0.0,0.0,0.0,0.0,0.0,0.0,0.0,0.0,0.0,0.0,0.0,0.0,0.0,0.0,0.0,0.0,0.0,0.0,0.0,0.0,0.0,0.0,0.0,0.0,0.0,0.0,0.0,0.0,0.0,0.0,0.0,0.0,0.0,0.0,0.0,0.0,0.0,0.0,0.0,0.0,0.0,0.0,0.0,0.0,2.5541,2.6203,2.6203,2.6203,2.5508,2.405,0.0,0.0,0.0,0.0,0.0,0.0,0.0,0.0,0.0,0.0,0.0,0.0,0.0,0.0,0.0,0.0,0.0,0.0,0.0,0.0,0.0,0.0,0.0,0.0,0.0,0.0,0.0,0.0,0.0,0.0,0.0,0.0,0.0,0.0,0.0,0.0,0.0,0.0,0.0,0.0,0.0,0.0,0.0,0.0,0.0,0.0,0.0,0.0,0.0,0.0,0.0,0.0,0.0,0.0,0.0,0.0,0.0,0.0,0.0,0.0,0.0,0.0,0.0,0.0,0.0,0.0,0.0,0.0,0.0,0.0,0.0,0.0,0.0,0.0,0.0,0.0,0.0,0.0,0.0,0.0,0.0,0.0,0.0,0.0,0.0,0.0,0.0,0.0,0.0,0.0,0.0,0.0,0.0,0.0,0.0,0.0,0.0,0.0,0.0,0.0,0.0,0.0,0.0,0.0,0.0,0.0,0.0,0.0,2.5044,2.5806,2.6203,2.6203,2.6203,2.5508,0.0,0.0,0.0,0.0,0.0,0.0,0.0,0.0,0.0,0.0,0.0,0.0,0.0,0.0,0.0,0.0,0.0,0.0,0.0,0.0,0.0,0.0,0.0,0.0,0.0,0.0,0.0,0.0,0.0,0.0,0.0,0.0,0.0,0.0,0.0,0.0,0.0,0.0,0.0,0.0,0.0,0.0,0.0,0.0,0.0,0.0,0.0,0.0,0.0,0.0,0.0,0.0,0.0,0.0,0.0,0.0,0.0,0.0,0.0,0.0,0.0,0.0,0.0,0.0,0.0,0.0,0.0,0.0,0.0,0.0,0.0,0.0,0.0,0.0,0.0,0.0,0.0,0.0,0.0,0.0,0.0,0.0,0.0,0.0,0.0,0.0,0.0,0.0,0.0,0.0,0.0,0.0,0.0,0.0,0.0,0.0,0.0,0.0,0.0,0.0,0.0,0.0,0.0,0.0,0.0,0.0,0.0,0.0,0.0,2.5143,2.5839,2.6203,2.6203,2.6203,2.5508,0.0,0.0,0.0,0.0,0.0,0.0,0.0,0.0,0.0,0.0,0.0,0.0,0.0,0.0,0.0,0.0,0.0,0.0,0.0,0.0,0.0,0.0,0.0,0.0,0.0,0.0,0.0,0.0,0.0,0.0,0.0,0.0,0.0,0.0,0.0,0.0,0.0,0.0,0.0,0.0,0.0,0.0,0.0,0.0,0.0,0.0,0.0,0.0,0.0,0.0,0.0,0.0,0.0,0.0,0.0,0.0,0.0,0.0,0.0,0.0,0.0,0.0,0.0,0.0,0.0,0.0,0.0,0.0,0.0,0.0,0.0,0.0,0.0,0.0,0.0,0.0,0.0,0.0,0.0,0.0,0.0,0.0,0.0,0.0,0.0,0.0,0.0,0.0,0.0,0.0,0.0,0.0,0.0,0.0,0.0,0.0,0.0,0.0,0.0,0.0,0.0,0.0,0.0,0.0,0.0,0.0,0.0,0.0,0.0,2.5806,2.6535,2.68,2.6568,2.6568,2.5872,0.0,0.0,0.0,0.0,0.0,0.0,0.0,0.0,0.0,0.0,0.0,0.0,0.0,0.0,0.0,0.0,0.0,0.0,0.0,0.0,0.0,0.0,0.0,0.0,0.0,0.0,0.0,0.0,0.0,0.0,0.0,0.0,0.0,0.0,0.0,0.0,0.0,0.0,0.0,0.0,0.0,0.0,0.0,0.0,0.0,0.0,0.0,0.0,0.0,0.0,0.0,0.0,0.0,0.0,0.0,0.0,0.0,0.0,0.0,0.0,0.0,0.0,0.0,0.0,0.0,0.0,0.0,0.0,0.0,0.0,0.0,0.0,0.0,0.0,0.0,0.0,0.0,0.0,0.0,0.0,0.0,0.0,0.0,0.0,0.0,0.0,0.0,0.0,0.0,0.0,0.0,0.0,0.0,0.0,0.0,0.0,0.0,0.0,0.0,0.0,0.0,0.0,0.0,0.0,0.0,0.0,0.0,0.0,2.5872,2.7267,2.7997,2.7997,2.7334,2.73,2.6604,0.0,0.0,0.0,0.0,0.0,0.0,0.0,0.0,0.0,0.0,0.0,0.0,0.0,0.0,0.0,0.0,0.0,0.0,0.0,0.0,0.0,0.0,0.0,0.0,0.0,0.0,0.0,0.0,0.0,0.0,0.0,0.0,0.0,0.0,0.0,0.0,0.0,0.0,0.0,0.0,0.0,0.0,0.0,0.0,0.0,0.0,0.0,0.0,0.0,0.0,0.0,0.0,0.0,0.0,0.0,0.0,0.0,0.0,0.0,0.0,0.0,0.0,0.0,0.0,0.0,0.0,0.0,0.0,0.0,0.0,0.0,0.0,0.0,0.0,0.0,0.0,0.0,0.0,0.0,0.0,0.0,0.0,0.0,0.0,0.0,0.0,0.0,0.0,0.0,0.0,0.0,0.0,0.0,0.0,0.0,0.0,0.0,0.0,0.0,0.0,0.0,0.0,0.0,0.0,0.0,0.0,0.0,0.0,0.0,2.8173,2.8448,2.8486,2.8252,2.7751,2.6981,0.0,0.0,0.0,0.0,0.0,0.0,0.0,0.0,0.0,0.0,0.0,0.0,0.0,0.0,0.0,0.0,0.0,0.0,0.0,0.0,0.0,0.0,0.0,0.0,0.0,0.0,0.0,0.0,0.0,0.0,0.0,0.0,0.0,0.0,0.0,0.0,0.0,0.0,0.0,0.0,0.0,0.0,0.0,0.0,0.0,0.0,0.0,0.0,0.0,0.0,0.0,0.0,0.0,0.0,0.0,0.0,0.0,0.0,0.0,0.0,0.0,0.0,0.0,0.0,0.0,0.0,0.0,0.0,0.0,0.0,0.0,0.0,0.0,0.0,0.0,0.0,0.0,0.0,0.0,0.0,0.0,0.0,0.0,0.0,0.0,0.0,0.0,0.0,0.0,0.0,0.0,0.0,0.0,0.0,0.0,0.0,0.0,0.0,0.0,0.0,0.0,0.0,0.0,0.0,0.0,0.0,0.0,0.0,0.0,3.0697,3.047,3.0107,2.9571,2.9068,2.8159,2.6816,0.0,0.0,0.0,0.0,0.0,0.0,0.0,0.0,0.0,0.0,0.0,0.0,0.0,0.0,0.0,0.0,0.0,0.0,0.0,0.0,0.0,0.0,0.0,0.0,0.0,0.0,0.0,0.0,0.0,0.0,0.0,0.0,0.0,0.0,0.0,0.0,0.0,0.0,0.0,0.0,0.0,0.0,0.0,0.0,0.0,0.0,0.0,0.0,0.0,0.0,0.0,0.0,0.0,0.0,0.0,0.0,0.0,0.0,0.0,0.0,0.0,0.0,0.0,0.0,0.0,0.0,0.0,0.0,0.0,0.0,0.0,0.0,0.0,0.0,0.0,0.0,0.0,0.0,0.0,0.0,0.0,0.0,0.0,0.0,0.0,0.0,0.0,0.0,0.0,0.0,0.0,0.0,0.0,0.0,0.0,0.0,0.0,0.0,0.0,0.0,0.0,0.0,0.0,0.0,0.0,0.0,0.0,0.0,3.4442,3.3748,3.2664,3.1146,3.1012,2.9973,0.0,0.0,0.0,0.0,0.0,0.0,0.0,0.0,0.0,0.0,0.0,0.0,0.0,0.0,0.0,0.0,0.0,0.0,0.0,0.0,0.0,0.0,0.0,0.0,0.0,0.0,0.0,0.0,0.0,0.0,0.0,0.0,0.0,0.0,0.0,0.0,0.0,0.0,0.0,0.0,0.0,0.0,0.0,0.0,0.0,0.0,0.0,0.0,0.0,0.0,0.0,0.0,0.0,0.0,0.0,0.0,0.0,0.0,0.0,0.0,0.0,0.0,0.0,0.0,0.0,0.0,0.0,0.0,0.0,0.0,0.0,0.0,0.0,0.0,0.0,0.0,0.0,0.0,0.0,0.0,0.0,0.0,0.0,0.0,0.0,0.0,0.0,0.0,0.0,0.0,0.0,0.0,0.0,0.0,0.0,0.0,0.0,0.0,0.0,0.0,0.0,0.0,0.0,0.0,0.0,0.0,0.0,0.0,0.0,3.5273,3.6512,3.6,3.3651,3.2495,3.1381,0.0,0.0,0.0,0.0,0.0,0.0,0.0,0.0,0.0,0.0,0.0,0.0,0.0,0.0,0.0,0.0,0.0,0.0,0.0,0.0,0.0,0.0,0.0,0.0,0.0,0.0,0.0,0.0,0.0,0.0,0.0,0.0,0.0,0.0,0.0,0.0,0.0,0.0,0.0,0.0,0.0,0.0,0.0,0.0,0.0,0.0,0.0,0.0,0.0,0.0,0.0,0.0,0.0,0.0,0.0,0.0,0.0,0.0,0.0,0.0,0.0,0.0,0.0,0.0,0.0,0.0,0.0,0.0,0.0,0.0,0.0,0.0,0.0,0.0,0.0,0.0,0.0,0.0,0.0,0.0,0.0,0.0,0.0,0.0,0.0,0.0,0.0,0.0,0.0,0.0,0.0,0.0,0.0,0.0,0.0,0.0,0.0,0.0,0.0,0.0,0.0,0.0,0.0,0.0,0.0,0.0,0.0,0.0,3.6129,3.753,3.8662,3.8491,3.692,3.4993,3.3223,0.0,0.0,0.0,0.0,0.0,0.0,0.0,0.0,0.0,0.0,0.0,0.0,0.0,0.0,0.0,0.0,0.0,0.0,0.0,0.0,0.0,0.0,0.0,0.0,0.0,0.0,0.0,0.0,0.0,0.0,0.0,0.0,0.0,0.0,0.0,0.0,0.0,0.0,0.0,0.0,0.0,0.0,0.0,0.0,0.0,0.0,0.0,0.0,0.0,0.0,0.0,0.0,0.0,0.0,0.0,0.0,0.0,0.0,0.0,0.0,0.0,0.0,0.0,0.0,0.0,0.0,0.0,0.0,0.0,0.0,0.0,0.0,0.0,0.0,0.0,0.0,0.0,0.0,0.0,0.0,0.0,0.0,0.0,0.0,0.0,0.0,0.0,0.0,0.0,0.0,0.0,0.0,0.0,0.0,0.0,0.0,0.0,0.0,0.0,0.0,0.0,0.0,0.0,0.0,0.0,0.0,0.0,0.0,3.8206,4.0406,4.0458,4.0408,4.0238,3.7785,3.5221,0.0,0.0,0.0,0.0,0.0,0.0,0.0,0.0,0.0,0.0,0.0,0.0,0.0,0.0,0.0,0.0,0.0,0.0,0.0,0.0,0.0,0.0,0.0,0.0,0.0,0.0,0.0,0.0,0.0,0.0,0.0,0.0,0.0,0.0,0.0,0.0,0.0,0.0,0.0,0.0,0.0,0.0,0.0,0.0,0.0,0.0,0.0,0.0,0.0,0.0,0.0,0.0,0.0,0.0,0.0,0.0,0.0,0.0,0.0,0.0,0.0,0.0,0.0,0.0,0.0,0.0,0.0,0.0,0.0,0.0,0.0,0.0,0.0,0.0,0.0,0.0,0.0,0.0,0.0,0.0,0.0,0.0,0.0,0.0,0.0,0.0,0.0,0.0,0.0,0.0,0.0,0.0,0.0,0.0,0.0,0.0,0.0,0.0,0.0,0.0,0.0,0.0,0.0,0.0,0.0,0.0,0.0,0.0,3.9433,4.1616,4.2541,4.2575,4.1601,3.8435,3.5936,0.0,0.0,0.0,0.0,0.0,0.0,0.0,0.0,0.0,0.0,0.0,0.0,0.0,0.0,0.0,0.0,0.0,0.0,0.0,0.0,0.0,0.0,0.0,0.0,0.0,0.0,0.0,0.0,0.0,0.0,0.0,0.0,0.0,0.0,0.0,0.0,0.0,0.0,0.0,0.0,0.0,0.0,0.0,0.0,0.0,0.0,0.0,0.0,3.0302,0.0,0.0,0.0,0.0,0.0,0.0,0.0,0.0,0.0,0.0,0.0,0.0,0.0,0.0,0.0,0.0,0.0,0.0,0.0,0.0,0.0,0.0,0.0,0.0,0.0,0.0,0.0,0.0,0.0,0.0,0.0,0.0,0.0,0.0,0.0,0.0,0.0,0.0,0.0,0.0,0.0,0.0,0.0,0.0,0.0,0.0,0.0,0.0,0.0,0.0,0.0,0.0,0.0,0.0,0.0,0.0,0.0,0.0,0.0,4.078,4.3054,4.3353,4.3276,4.2775,4.0169,3.7991,0.0,0.0,0.0,0.0,0.0,0.0,0.0,0.0,0.0,0.0,0.0,0.0,0.0,0.0,0.0,0.0,0.0,0.0,0.0,0.0,0.0,0.0,0.0,0.0,0.0,0.0,0.0,0.0,0.0,0.0,0.0,0.0,0.0,0.0,0.0,0.0,0.0,0.0,0.0,0.0,0.0,0.0,0.0,0.0,0.0,0.0,0.0,0.0,0.0,0.0,0.0,0.0,0.0,0.0,0.0,0.0,0.0,0.0,0.0,0.0,0.0,0.0,0.0,0.0,0.0,0.0,0.0,0.0,0.0,0.0,0.0,0.0,0.0,0.0,0.0,0.0,0.0,0.0,0.0,0.0,0.0,0.0,0.0,0.0,0.0,0.0,0.0,0.0,0.0,0.0,0.0,0.0,0.0,0.0,0.0,0.0,0.0,0.0,0.0,0.0,0.0,0.0,0.0,0.0,0.0,0.0,0.0,4.0062,4.2112,4.4369,4.3984,4.3833,4.4132,4.2323,4.0607,3.8995,0.0,0.0,0.0,0.0,0.0,0.0,0.0,0.0,0.0,0.0,0.0,0.0,0.0,0.0,0.0,0.0,0.0,0.0,0.0,0.0,0.0,0.0,0.0,0.0,0.0,0.0,0.0,0.0,0.0,0.0,0.0,0.0,0.0,0.0,0.0,0.0,0.0,0.0,2.7711,2.9867,0.0,0.0,0.0,0.0,0.0,0.0,0.0,0.0,3.4148,0.0,0.0,0.0,0.0,0.0,0.0,0.0,0.0,0.0,0.0,0.0,0.0,0.0,0.0,0.0,0.0,0.0,0.0,0.0,0.0,0.0,0.0,0.0,0.0,0.0,0.0,0.0,0.0,0.0,0.0,0.0,0.0,0.0,0.0,0.0,0.0,0.0,0.0,0.0,0.0,0.0,0.0,0.0,0.0,0.0,0.0,0.0,0.0,0.0,0.0,0.0,0.0,0.0,0.0,0.0,0.0,3.9071,4.1576,4.3605,4.5096,4.5914,4.613,4.5774,4.413,4.3126,4.2626,0.0,0.0,0.0,0.0,0.0,0.0,0.0,0.0,0.0,0.0,0.0,0.0,0.0,0.0,0.0,0.0,0.0,0.0,0.0,0.0,0.0,0.0,0.0,0.0,0.0,0.0,0.0,0.0,0.0,0.0,0.0,0.0,0.0,0.0,0.0,0.0,0.0,0.0,0.0,3.1825,3.322,0.0,0.0,0.0,0.0,0.0,0.0,0.0,0.0,3.5216,0.0,0.0,0.0,0.0,0.0,0.0,0.0,0.0,0.0,0.0,0.0,0.0,0.0,0.0,0.0,0.0,0.0,0.0,0.0,0.0,0.0,0.0,0.0,0.0,0.0,0.0,0.0,0.0,0.0,0.0,0.0,0.0,0.0,0.0,0.0,0.0,0.0,0.0,0.0,0.0,0.0,0.0,0.0,0.0,0.0,0.0,0.0,0.0,0.0,0.0,0.0,0.0,0.0,0.0,0.0,4.1475,4.3488,4.5444,4.7322,4.7867,4.7972,4.7543,4.6163,4.4855,0.0,0.0,0.0,0.0,0.0,0.0,0.0,0.0,0.0,0.0,0.0,0.0,0.0,0.0,0.0,0.0,0.0,0.0,0.0,0.0,0.0,0.0,0.0,0.0,0.0,0.0,0.0,0.0,0.0,0.0,0.0,0.0,0.0,0.0,0.0,0.0,0.0,0.0,0.0,0.0,3.3869,3.5543,3.6671,0.0,0.0,0.0,0.0,0.0,0.0,3.7618,3.711,0.0,0.0,0.0,0.0,0.0,0.0,0.0,0.0,0.0,0.0,0.0,0.0,0.0,0.0,0.0,0.0,0.0,0.0,0.0,0.0,0.0,0.0,0.0,0.0,0.0,0.0,0.0,0.0,0.0,0.0,0.0,0.0,0.0,0.0,0.0,0.0,0.0,0.0,0.0,0.0,0.0,0.0,0.0,0.0,0.0,0.0,0.0,0.0,0.0,0.0,0.0,0.0,0.0,0.0,0.0,4.3617,4.5215,4.697,4.8994,4.9341,4.9395,4.9189,4.785,4.6247,0.0,0.0,0.0,0.0,0.0,0.0,0.0,0.0,0.0,0.0,0.0,0.0,0.0,0.0,0.0,0.0,0.0,0.0,0.0,0.0,0.0,0.0,0.0,0.0,0.0,0.0,0.0,0.0,0.0,0.0,0.0,0.0,0.0,0.0,0.0,0.0,0.0,0.0,0.0,0.0,0.0,3.755,3.9005,3.9478,0.0,0.0,0.0,0.0,3.9648,3.9546,0.0,0.0,0.0,0.0,0.0,0.0,0.0,0.0,0.0,0.0,0.0,0.0,0.0,0.0,0.0,0.0,0.0,0.0,0.0,0.0,0.0,0.0,0.0,0.0,0.0,0.0,0.0,0.0,0.0,0.0,0.0,0.0,0.0,0.0,0.0,0.0,0.0,0.0,0.0,0.0,0.0,0.0,0.0,0.0,0.0,0.0,0.0,0.0,0.0,0.0,0.0,0.0,0.0,0.0,0.0,0.0,4.3827,4.6051,4.7629,4.86,4.9518,5.0118,5.0247,4.8434,4.7263,0.0,0.0,0.0,0.0,0.0,0.0,0.0,0.0,0.0,0.0,0.0,0.0,0.0,0.0,0.0,0.0,0.0,0.0,0.0,0.0,0.0,0.0,0.0,0.0,0.0,0.0,0.0,0.0,0.0,0.0,0.0,0.0,0.0,0.0,0.0,0.0,0.0,0.0,0.0,0.0,0.0,3.8328,3.9783,4.1102,4.1914,0.0,0.0,4.1914,4.1914,4.1373,0.0,0.0,0.0,0.0,0.0,0.0,0.0,0.0,0.0,0.0,0.0,0.0,0.0,0.0,0.0,0.0,0.0,0.0,0.0,0.0,0.0,0.0,0.0,0.0,0.0,0.0,0.0,0.0,0.0,0.0,0.0,0.0,0.0,0.0,0.0,0.0,0.0,0.0,0.0,0.0,0.0,0.0,0.0,0.0,0.0,0.0,0.0,0.0,0.0,0.0,0.0,0.0,0.0,0.0,0.0,4.2199,4.5775,4.7599,4.922,5.0677,5.1246,5.1519,5.1622,4.992,4.8302,0.0,0.0,0.0,0.0,0.0,0.0,0.0,0.0,0.0,0.0,0.0,0.0,0.0,0.0,0.0,0.0,0.0,0.0,0.0,0.0,0.0,0.0,0.0,0.0,0.0,0.0,0.0,0.0,0.0,0.0,0.0,0.0,0.0,0.0,0.0,0.0,0.0,0.0,0.0,0.0,0.0,0.0,4.2455,4.32,0.0,0.0,0.0,4.2794,4.2354,0.0,0.0,0.0,0.0,0.0,0.0,0.0,0.0,0.0,0.0,0.0,0.0,0.0,0.0,0.0,0.0,0.0,0.0,0.0,0.0,0.0,0.0,0.0,0.0,0.0,0.0,0.0,0.0,0.0,0.0,0.0,0.0,0.0,0.0,0.0,0.0,0.0,0.0,0.0,0.0,0.0,0.0,0.0,0.0,0.0,0.0,0.0,0.0,0.0,0.0,0.0,0.0,0.0,0.0,0.0,0.0,0.0,4.7659,4.9323,5.089,5.2444,5.248,5.248,5.248,5.114,0.0,0.0,0.0,0.0,0.0,0.0,0.0,0.0,0.0,0.0,0.0,0.0,0.0,0.0,0.0,0.0,0.0,0.0,0.0,0.0,0.0,0.0,0.0,0.0,0.0,0.0,0.0,2.5979,0.0,0.0,0.0,0.0,0.0,0.0,0.0,0.0,0.0,0.0,0.0,0.0,0.0,0.0,4.2794,4.4079,4.4621,4.479,0.0,0.0,4.3504,4.2963,4.3335,4.3098,0.0,0.0,0.0,0.0,0.0,0.0,0.0,0.0,0.0,0.0,0.0,0.0,0.0,0.0,0.0,0.0,0.0,0.0,0.0,0.0,0.0,0.0,0.0,0.0,0.0,0.0,0.0,0.0,0.0,0.0,0.0,0.0,0.0,0.0,0.0,0.0,0.0,0.0,0.0,0.0,0.0,0.0,0.0,0.0,0.0,0.0,0.0,0.0,0.0,0.0,0.0,0.0,0.0,0.0,0.0,4.8612,5.1013,5.2325,5.248,5.248,5.248,5.248,5.1647,5.0416,0.0,0.0,0.0,0.0,0.0,0.0,0.0,0.0,0.0,0.0,0.0,0.0,0.0,0.0,0.0,0.0,0.0,0.0,0.0,0.0,0.0,0.0,0.0,0.0,0.0,0.0,0.0,0.0,0.0,0.0,0.0,0.0,0.0,0.0,0.0,0.0,0.0,0.0,0.0,0.0,0.0,4.2591,4.3403,4.4722,4.5399,0.0,0.0,4.4485,4.4418,4.4451,4.4215,4.3335,0.0,0.0,0.0,0.0,0.0,0.0,0.0,0.0,0.0,0.0,0.0,0.0,0.0,0.0,0.0,0.0,0.0,0.0,0.0,0.0,0.0,0.0,0.0,0.0,0.0,0.0,0.0,0.0,0.0,0.0,0.0,0.0,0.0,0.0,0.0,0.0,0.0,0.0,0.0,0.0,0.0,0.0,0.0,0.0,0.0,0.0,0.0,0.0,0.0,0.0,0.0,0.0,0.0,4.7259,4.8808,5.1285,5.2733,5.3204,5.2733,5.2733,5.3241,5.1973,5.0524,0.0,0.0,0.0,0.0,0.0,0.0,0.0,0.0,0.0,0.0,0.0,0.0,0.0,0.0,0.0,0.0,0.0,0.0,0.0,0.0,0.0,0.0,0.0,0.0,0.0,0.0,0.0,0.0,3.2904,3.3583,3.4244,0.0,0.0,0.0,0.0,0.0,0.0,0.0,0.0,0.0,0.0,4.4654,4.5399,4.638,0.0,0.0,4.5568,4.532,4.5377,4.5026,4.4483,4.3736,4.3158,0.0,0.0,0.0,0.0,0.0,0.0,0.0,0.0,0.0,0.0,0.0,0.0,0.0,0.0,0.0,0.0,0.0,0.0,0.0,0.0,0.0,0.0,0.0,0.0,0.0,0.0,0.0,0.0,0.0,0.0,0.0,0.0,0.0,0.0,0.0,0.0,0.0,0.0,0.0,0.0,0.0,0.0,0.0,0.0,0.0,0.0,0.0,0.0,0.0,0.0,0.0,0.0,4.8134,4.9257,5.1864,5.3385,5.3675,5.3385,5.3349,5.3675,5.2589,5.1249,0.0,0.0,0.0,0.0,0.0,0.0,0.0,0.0,0.0,0.0,0.0,0.0,0.0,0.0,0.0,0.0,0.0,0.0,0.0,0.0,0.0,0.0,0.0,0.0,0.0,0.0,0.0,0.0,3.5266,3.5574,3.5702,0.0,0.0,0.0,0.0,0.0,0.0,0.0,0.0,0.0,0.0,4.6408,4.6859,4.769,4.8012,4.718,4.6635,4.6351,4.6408,4.5964,4.5452,4.4852,0.0,0.0,0.0,0.0,0.0,0.0,0.0,0.0,0.0,0.0,0.0,0.0,0.0,0.0,0.0,0.0,0.0,0.0,0.0,0.0,0.0,0.0,0.0,0.0,0.0,0.0,0.0,0.0,0.0,0.0,2.9604,0.0,0.0,0.0,0.0,0.0,0.0,0.0,0.0,0.0,0.0,0.0,0.0,0.0,0.0,0.0,0.0,0.0,0.0,0.0,0.0,0.0,0.0,5.0017,5.0126,5.3204,5.4472,5.3784,5.4472,5.4472,5.3784,5.3675,5.2878,5.1249,0.0,0.0,0.0,0.0,0.0,0.0,0.0,0.0,0.0,0.0,0.0,0.0,0.0,0.0,0.0,0.0,0.0,0.0,0.0,0.0,0.0,0.0,0.0,0.0,0.0,0.0,3.7359,3.7508,3.7465,0.0,0.0,0.0,0.0,0.0,0.0,0.0,0.0,0.0,0.0,4.5966,4.7451,4.7238,4.8342,4.8806,4.7859,4.7665,4.7665,4.7631,4.752,4.7408,0.0,0.0,0.0,0.0,0.0,0.0,0.0,0.0,0.0,0.0,0.0,0.0,0.0,0.0,0.0,0.0,0.0,0.0,0.0,0.0,0.0,0.0,0.0,0.0,0.0,0.0,0.0,3.6668,3.6109,0.0,0.0,0.0,0.0,0.0,0.0,0.0,0.0,0.0,0.0,0.0,4.683,4.7215,0.0,0.0,0.0,0.0,0.0,0.0,0.0,0.0,0.0,0.0,0.0,0.0,5.0597,5.1719,5.382,5.5015,5.5196,5.5015,5.5015,5.5233,5.4762,5.3748,5.2154,0.0,0.0,0.0,0.0,0.0,0.0,0.0,0.0,0.0,0.0,0.0,0.0,0.0,0.0,0.0,0.0,0.0,0.0,0.0,0.0,0.0,0.0,0.0,0.0,0.0,3.8111,0.0,0.0,0.0,0.0,0.0,0.0,0.0,0.0,0.0,0.0,0.0,4.5183,4.6028,4.743,4.8411,4.839,4.9158,4.9478,0.0,0.0,0.0,0.0,0.0,0.0,0.0,0.0,0.0,0.0,0.0,0.0,0.0,0.0,4.3064,4.1779,4.1745,4.1711,4.0967,0.0,0.0,0.0,0.0,0.0,0.0,0.0,0.0,0.0,0.0,0.0,0.0,0.0,0.0,0.0,0.0,4.0137,0.0,0.0,0.0,0.0,0.0,0.0,0.0,0.0,4.7128,4.9038,4.995,5.0366,5.0532,0.0,4.9945,4.7808,0.0,0.0,0.0,0.0,0.0,0.0,0.0,0.0,5.1176,5.2516,5.4074,5.5377,5.6355,5.621,5.6355,5.679,5.5848,5.4701,5.3489,5.1338,4.996,0.0,0.0,0.0,0.0,0.0,0.0,0.0,0.0,0.0,0.0,0.0,0.0,0.0,0.0,0.0,0.0,0.0,0.0,0.0,0.0,0.0,0.0,0.0,4.1619,0.0,0.0,0.0,0.0,0.0,0.0,0.0,0.0,0.0,4.4077,4.585,4.737,4.7726,4.9069,5.007,5.007,0.0,0.0,0.0,0.0,0.0,0.0,0.0,4.9556,4.9722,4.9556,4.9227,4.8667,4.8025,4.7646,4.7851,0.0,0.0,4.4338,4.4248,4.435,4.3639,4.3837,4.4014,4.3559,4.4019,4.4487,0.0,0.0,0.0,0.0,0.0,0.0,0.0,0.0,4.6654,4.6104,0.0,4.5043,0.0,0.0,0.0,0.0,0.0,0.0,0.0,0.0,5.1231,5.2254,5.1806,5.1629,5.1502,5.1393,5.0053,5.0053,5.1321,5.0633,0.0,0.0,0.0,0.0,0.0,0.0,5.1792,5.2697,5.4218,5.574,5.7188,5.8021,5.842,5.8383,5.6899,5.5849,5.5202,5.3617,5.2708,5.2696,4.9003,0.0,0.0,0.0,0.0,0.0,0.0,0.0,0.0,0.0,0.0,0.0,0.0,0.0,0.0,0.0,0.0,0.0,0.0,0.0,0.0,4.4884,0.0,0.0,0.0,0.0,0.0,0.0,0.0,0.0,0.0,0.0,4.5729,4.7799,4.9293,4.8731,0.0,0.0,0.0,0.0,5.4044,5.3637,5.3564,5.3509,5.3419,5.3028,5.2764,5.3015,0.0,0.0,5.1267,5.1163,5.0887,5.023,5.0645,5.0273,4.7529,4.7063,4.6767,4.5998,4.676,4.7133,4.6238,4.7059,4.7942,4.8279,0.0,0.0,0.0,0.0,4.5019,4.6223,4.8852,4.8483,4.8265,4.8116,4.8198,0.0,0.0,0.0,0.0,0.0,0.0,4.8342,5.0916,5.2834,5.4364,5.5583,5.5535,5.5522,5.5486,5.5051,5.5051,5.5486,5.5269,5.3892,5.1502,0.0,0.0,0.0,0.0,5.3675,5.4943,5.6029,5.7043,5.8021,5.8921,5.9459,5.9525,5.8442,5.7533,5.6926,5.5848,5.45,5.2842,5.1573,0.0,0.0,0.0,0.0,0.0,0.0,0.0,0.0,0.0,0.0,0.0,0.0,0.0,0.0,0.0,0.0,0.0,0.0,0.0,4.6924,4.7579,4.7795,0.0,0.0,0.0,0.0,0.0,0.0,0.0,0.0,0.0,4.9539,5.0533,5.1358,0.0,0.0,5.296,5.3547,5.3885,5.4148,5.4374,0.0,0.0,0.0,5.3922,5.3708,5.3816,5.3474,5.3148,5.2936,5.2678,5.2459,5.2249,5.2389,5.2228,5.1499,5.0871,5.0146,4.9091,4.9057,4.9011,4.8286,4.8507,4.8958,5.2299,5.0416,4.8641,4.8568,4.951,4.8894,5.0271,5.2878,5.2408,5.2069,5.1952,5.2035,5.0448,4.7697,4.733,0.0,0.0,0.0,5.1109,5.3507,5.4155,5.5109,5.6247,5.6573,5.6717,5.6717,5.6717,5.7043,5.7659,5.7333,5.6573,5.5305,0.0,0.0,5.4182,5.4182,5.4943,5.6391,5.6935,5.7913,5.9325,6.0227,6.0534,6.0347,5.9786,5.9219,5.8567,5.751,5.6379,5.5304,5.3927,5.2053,0.0,0.0,0.0,0.0,0.0,0.0,0.0,0.0,0.0,0.0,0.0,4.0381,4.1669,0.0,0.0,0.0,4.6608,4.807,4.9603,4.9712,0.0,0.0,0.0,0.0,0.0,0.0,0.0,5.0433,5.1174,5.187,5.2532,5.2943,5.3073,5.2865,5.3488,5.4271,5.5163,0.0,5.5845,5.6413,5.6257,5.6098,5.624,5.6027,5.5829,5.5937,5.5955,5.5866,5.5648,5.5446,5.5334,5.5334,5.5334,5.5334,5.5278,5.5111,5.4169,5.1808,5.1403,5.1346,5.0769,5.1003,5.1372,5.5233,5.4943,5.2082,5.1574,5.2733,5.3494,5.5015,5.6971,5.6971,5.6478,5.5588,5.5848,5.4386,5.174,5.0919,0.0,5.3272,5.3309,5.429,5.6066,5.545,5.5233,5.5305,5.5993,5.6283,5.6283,5.6283,5.7043,5.8383,5.7768,5.813,5.9506,5.742,5.6006,5.5305,5.5305,5.5993,5.7369,5.7478,5.8652,6.09,6.1643,6.1734,6.0972,6.1042,6.0799,6.0149,5.8823,5.8359,5.8871,5.6127,5.4363,5.4054,0.0,0.0,0.0,0.0,0.0,0.0,0.0,0.0,0.0,0.0,0.0,0.0,0.0,0.0,0.0,5.0922,0.0,5.1574,5.1574,0.0,0.0,0.0,5.1607,5.2162,5.1658,5.1849,5.346,0.0,0.0,5.487,0.0,5.4858,5.411,5.5022,5.6037,5.6901,5.7762,5.8519,5.9006,5.9168,5.9149,5.8807,5.8622,5.8438,5.8514,5.9258,5.9186,5.8677,5.8601,5.8709,5.8565,5.8744,5.8673,5.8688,5.8862,5.8358,5.4414,5.3973,5.4082,5.3449,5.3969,5.4421,5.813,5.755,5.7406,5.6174,5.4363,5.4544,5.4943,5.545,5.545,5.5329,5.5109,5.51,5.4724,5.4099,5.3872,5.4036,5.448,5.5202,5.6018,5.6899,5.747,5.7978,5.8492,5.8673,5.8746,5.8746,5.8746,5.8963,5.9289,5.9211,5.9372,5.975,5.9256,5.8842,5.8492,5.8492,5.8673,5.9035,5.9719,6.0747,6.212,6.2271,6.2324,6.2347,6.226,6.1894,6.1239,6.0787,6.0127,5.9197,5.7617,5.6254,5.5094,5.3113,0.0,0.0,0.0,0.0,0.0,0.0,0.0,0.0,0.0,4.7502,4.9362,0.0,5.1944,0.0,5.3566,5.4037,5.4143,5.4085,0.0,0.0,5.3686,5.3867,5.3411,5.3711,5.4194,5.4496,5.4894,5.5522,5.6536,5.7188,5.7732,5.8042,5.7391,5.7304,5.8678,5.9075,5.9309,5.9473,5.9582,5.9509,5.9492,5.9366,5.9349,5.9366,5.9509,5.9562,5.9456,5.9366,5.9366,5.9366,5.9366,5.9366,5.9349,5.9509,5.9292,5.8232,5.7412,5.644,5.5372,5.5338,5.5598,5.9481,5.9169,5.9605,5.8805,5.717,5.7057,5.7007,5.7007,5.7007,5.7007,5.6971,5.6659,5.643,5.6188,5.6418,5.6563,5.6635,5.7397,5.7978,5.8275,5.89,5.9299,5.9719,6.0134,6.028,6.0316,6.0643,6.1006,6.1386,6.1438,6.1673,6.2,6.2105,6.2053,6.1858,6.0513,5.9968,6.0332,6.1511,6.2599,6.3523,6.3507,6.3361,6.3152,6.3152,6.2801,6.2082,6.1679,6.1141,6.0309,5.9358,5.8139,5.6658,5.566,5.4224,0.0,0.0,0.0,0.0,0.0,0.0,0.0,0.0,0.0,0.0,0.0,5.4638,5.4974,5.5364,5.5571,5.5571,5.5559,5.5281,5.4762,5.5184,5.545,5.5366,5.5825,5.6273,5.6527,5.6889,5.747,5.8268,5.874,5.932,6.0119,5.9517,5.9263,5.9905,6.0175,6.0336,6.0699,6.0824,6.0824,6.0772,6.0719,6.0665,6.0701,6.0665,6.0701,6.0665,6.0701,6.0665,6.0665,6.0665,6.0558,6.0303,6.0467,6.0503,5.9874,5.9491,5.8764,5.7701,5.7402,5.7588,6.0216,6.0281,6.0281,6.0318,6.0318,6.0062,5.9849,5.9667,5.9667,5.9667,5.9631,5.9009,5.8469,5.8069,5.8492,5.8769,5.8805,5.9502,5.9812,5.9812,6.015,6.0311,6.0311,6.1215,6.1667,6.1704,6.236,6.3053,6.3709,6.3746,6.4164,6.4821,6.4821,6.4858,6.4712,6.2047,6.1025,6.1719,6.3106,6.4164,6.4821,6.4858,6.4493,6.3836,6.3905,6.3664,6.2984,6.2388,6.2034,6.1887,6.1153,6.0015,5.8547,5.829,5.718,0.0,5.4085,0.0,0.0,0.0,0.0,0.0,0.0,0.0,0.0,5.5971,5.6885,5.6901,5.6718,5.6587,5.6746,5.6673,5.6552,5.6418,5.6588,5.6964,5.751,5.779,5.8166,5.8746,5.8842,5.9169,5.9786,6.0056,6.0456,6.0986,6.1199,6.1126,6.1062,6.1062,6.1386,6.2112,6.2275,6.2057,6.2023,6.1987,6.1933,6.1969,6.1897,6.2005,6.1933,6.1933,6.1969,6.1969,6.1897,6.1732,6.1221,6.1564,6.1544,6.0544,6.0725,6.0662,5.9757,5.947,5.9655,6.1749,6.1802,6.1907,6.1959,6.1959,6.1907,6.109,5.9939,5.9939,5.9939,5.9889,5.9656,5.9597,5.9552,5.9547,5.9619,5.9807,6.0624,6.1025,6.0944,6.2376,6.296,6.2927,6.3746,6.4111,6.4111,6.4256,6.4402,6.4548,6.4692,6.4908,6.5091,6.5108,6.5197,6.516,0.0,0.0,0.0,6.4636,6.4908,6.516,6.5197,6.5124,6.4977,6.4992,0.0,6.4772,6.4714,6.431,6.3649,6.2805,0.0,0.0,0.0,0.0,0.0,0.0,0.0,0.0,0.0,0.0,0.0,5.7657,5.7804,5.7327,5.804,5.8798,5.9335,5.8178,5.7911,5.9187,5.8664,5.83,5.83,5.8945,5.9213,5.864,5.9213,5.9724,5.9734,6.0304,6.069,6.0783,6.1418,6.1855,6.1947,6.2073,6.2073,6.1931,6.1931,6.2003,6.2185,6.2168,6.2114,6.206,6.2114,6.2114,6.206,6.2114,6.2114,6.2041,6.2041,6.2041,6.2041,6.2041,6.195,6.1804,6.195,6.1895,6.1636,6.1692,6.1415,6.0235,5.9946,6.0104,6.369,0.0,6.3795,6.3847,0.0,6.3847,6.3372,6.2567,6.1609,6.1244,6.1295,6.1646,6.188,6.2018,6.2318,6.2449,6.25,6.2902,6.3085,6.3017,6.3978,6.438,6.4327,6.4782,6.5055,6.5055,6.5055,6.5238,6.5603,6.573,6.5966,6.637,6.6423,6.6476,6.6476,6.6476,6.6239,6.5783,6.5783,6.6019,6.6476,6.6512,6.6292,6.5925,0.0,0.0,0.0,0.0,0.0,0.0,0.0,0.0,0.0,0.0,0.0,6.1006,6.0603,6.0382,6.0382,6.0382,6.0382,6.0382,6.075,6.0493,5.9281,5.9527,6.0029,6.0799,6.0091,5.9896,6.0564,6.0309,5.9907,5.9492,5.9883,6.0005,5.9664,6.0298,6.0823,6.0784,6.1405,6.1828,6.1813,6.2157,6.2449,6.2397,6.25,6.2552,6.2449,6.2397,6.2397,6.25,6.2344,6.2474,6.2711,6.2403,6.2549,6.2985,6.2622,6.2277,6.2549,6.2295,6.2041,6.2041,6.2041,6.2041,6.2041,6.2041,6.2041,6.2041,6.2041,6.184,6.114,6.0986,6.1045,6.5144,6.5249,6.5301,6.5338,6.5338,6.5338,6.5338,6.5228,0.0,0.0,0.0,6.3737,6.4119,6.4347,6.4851,6.5144,6.5144,6.4965,6.4911,6.4911,6.5201,6.5364,6.5364,6.5616,6.5705,6.5742,6.5742,6.6072,6.6696,6.6696,6.7026,6.7614,6.7687,6.7687,6.7687,6.754,6.7136,6.6549,6.6623,6.7026,6.765,6.7687,6.7357,6.6733,6.6696,6.6402,6.5742,6.5742,6.5668,6.5521,6.5521,6.5154,6.4383,6.431,6.398,6.3319,6.3246,6.3246,6.3246,6.3246,6.3172,6.3062,6.3172,6.2548,6.0933,6.0713,6.0933,6.1741,6.1557,6.1435,6.1592,6.1519,6.1176,6.0564,6.0578,6.0677,6.0713,6.1325,6.1765,6.1739,6.2215,6.2603,6.2567,6.2567,6.2654,6.2603,6.2705,6.2755,6.2654,6.2603,6.2603,6.2654,6.25,6.272,6.3195,6.2781,6.2767,6.3584,6.284,6.235,6.2749,6.2495,6.2041,6.206,6.2005,6.2041,6.2041,6.2041,6.2041,6.2041,6.2041,6.2041,6.2041,6.2041,6.195,6.5144,6.5144,6.5249,6.5338,6.5338,6.5338,6.5338,6.5301,6.4992,6.4919,6.4919,6.4888,6.5014,6.5154,6.5071,6.5144,6.5249,6.5249,6.5249,0.0,6.5946,6.6276,6.6366,6.7026,6.7357,6.7357,6.7357,6.743,6.7504,6.7504,6.7577,6.765,6.7687,6.7687,6.7614,6.7026,6.6623,6.6512,6.7173,6.7577,6.7687,6.7687,6.7614,6.754,6.7504,6.7467,6.7357,6.732,6.7026,6.6366,6.6329,6.5962,6.5191,6.5154,6.5081,6.4971,6.4971,6.4971,6.4934,6.4971,6.464,6.4016,6.4567,6.4273,6.2622,6.1814,6.1777,6.2511,6.1484,6.1153,6.2315,6.1948,6.1801,6.2278,6.2388,6.2425,6.2352,6.2425,6.2585,6.2535,6.2682,6.2705,6.2654,6.2705,6.2705,6.2654,6.2815,6.2828,6.2828,6.2654,6.2552,6.2449,6.2344,6.2311,6.2765,6.242,6.2549,6.235,6.2585,6.2529,6.2676,6.2531,6.2349,6.2204,6.2241,6.215,6.2114,6.2041,6.2114,6.215,6.2114,6.2078,6.2041,6.2041,6.2041,6.6479,6.6533,6.6586,6.6586,6.6586,6.6586,6.6586,6.6586,6.6586,6.6072,6.5375,6.5689,6.5909,6.5999,6.6349,6.6533,6.6586,6.6586,6.6586,6.6623,6.699,6.7136,6.7173,6.754,6.7687,6.7687,6.7687,6.7687,6.7687,6.7687,6.7687,6.7687,6.7687,6.7687,6.765,6.732,6.7136,6.7136,6.71,6.7063,6.7063,6.7467,6.7504,6.7063,6.743,6.7467,6.7063,6.7467,6.7504,6.7136,6.7136,6.6953,6.6623,6.6623,6.6586,6.6586,6.6586,6.6623,6.6586,6.6586,6.6256,6.5485,6.5338,6.5007,6.4237,6.3429,6.3099,6.3429,6.2401,6.1998,6.2732,6.2475,6.2401,6.2768,6.2805,6.2805,6.2805,6.2805,6.2805,6.2805,6.2805,6.2755,6.2705,6.2755,6.2805,6.2741,6.3122,6.3503,6.3539,6.3819,6.3877,6.3408,6.3247,6.3685,6.4217,6.4055,6.4147,6.4822,6.4185,6.3839,6.3966,6.3802,6.342,6.342,6.3329,6.3309,6.3273,6.3309,6.3128,6.2693,6.2657,6.2549,6.2186,6.2041,6.2041,6.7687,6.7687,6.7687,6.7687,6.7687,6.7687,6.7687,6.7687,6.765,6.699,6.6035,6.6512,6.6769,6.6843,6.7393,6.7687,6.7687,6.7687,6.7687,6.7687,6.7687,6.7687,6.7687,6.7687,6.7687,6.7687,6.7687,6.7687,6.7687,6.7687,6.7687,6.7687,6.7687,6.7687,6.7687,6.7504,6.743,6.7393,6.6806,6.6586,6.6769,6.7357,6.7393,6.688,6.7357,6.7393,6.6843,6.7357,6.7687,6.7687,6.7687,6.7687,6.7687,6.7687,6.7687,6.7687,6.7687,6.7687,6.7687,6.7687,6.7357,6.6549,6.5925,6.5595,6.5485,6.464,6.4163,6.42,6.3392,6.2842,6.3062,6.2879,6.2805,6.2805,6.2805,6.2805,6.2805,6.2805,6.2805,6.2805,6.2805,6.2879,6.3025,6.3099,6.3209,6.3539,6.398,6.4347,6.4457,6.4934,6.4956,6.4736,6.4406,6.461,6.5856,6.5367,6.5369,6.6701,6.5551,6.4894,6.5056,6.4763,6.4489,6.4344,6.438,6.4251,6.4323,6.4323,6.407,6.3563,6.3454,6.3273,6.2838,6.2693,6.2404,6.7687,6.7687,6.7687,6.7687,6.7687,6.7687,6.7687,6.7687,6.7687,6.765,6.7393,6.754,6.754,6.7577,6.765,6.7687,6.7687,6.7687,6.7687,6.7687,6.7687,6.7687,6.7687,6.7687,6.7687,6.7687,6.7687,6.7687,6.7687,6.7687,6.7687,6.7687,6.7687,6.7687,6.7614,6.699,6.6623,6.6623,6.6549,6.6843,6.754,6.765,6.765,6.7577,6.765,6.765,6.7467,6.765,6.7687,6.7687,6.7687,6.7687,6.7687,6.7687,6.7687,6.7687,6.7687,6.7687,6.7687,6.7687,6.732,6.6623,6.6402,6.6366,6.6292,6.4971,6.442,6.4861,6.3796,6.3135,6.3796,6.3246,6.2842,6.2952,6.2915,6.2805,6.2915,6.2805,6.2805,6.2805,6.3025,6.3099,6.3833,6.398,6.4237,6.4662,6.4956,6.5139,6.5139,6.5233,6.5547,6.5677,6.5367,6.4894,6.5186,6.4785,6.4984,6.5037,6.4782,6.4855,6.5056,6.4928,6.4601,6.498,6.467,6.4649,6.4577,6.4396,6.4468,6.4359,6.4251,6.4178,6.4142,6.4033,6.3563,6.7687,6.7687,6.7687,6.7687,6.7687,6.7687,6.7687,6.7687,6.7687,6.7687,6.7687,6.7687,6.7687,6.7687,6.7687,6.7687,6.7687,6.7687,6.7687,6.7687,6.7687,6.7687,6.7687,6.7687,6.7687,6.7687,6.7687,6.7687,6.7687,6.7687,6.7687,6.7687,6.7687,6.7687,6.765,6.7357,6.743,6.7907,6.7907,6.8311,6.8898,6.8164,6.7467,6.71,6.743,6.743,6.71,6.7393,6.7687,6.7687,6.7687,6.7687,6.7687,6.7687,6.7687,6.7687,6.7687,6.7687,6.7687,6.7687,6.7136,6.5888,6.6256,6.6512,6.6439,6.5448,6.5485,6.6769,6.464,6.2989,6.3319,6.3025,6.3025,6.3429,6.3576,6.3759,6.4237,6.4273,6.4273,6.4273,6.431,6.4383,6.4714,6.4736,6.4794,6.5108,6.5421,6.5786,6.584,6.6206,6.6646,6.6919,6.6665,6.6409,6.6189,6.6114,6.6022,6.6058,6.6038,6.6038,6.5965,6.5924,6.5902,6.5887,6.5757,6.57,6.5917,6.5772,6.5736,6.5337,6.4613,6.4396,6.4396,6.4396,6.3997,6.7687,6.7687,6.7687,6.7687,6.7687,6.7687,6.7687,6.7687,6.7687,6.7687,6.7687,6.7687,6.7687,6.7687,6.7687,6.7687,6.7687,6.7687,6.7687,6.7687,6.7687,6.7687,6.7687,6.7687,6.7687,6.7687,6.7687,6.7687,6.7724,6.7944,6.8017,6.8054,6.8238,6.8348,6.8348,6.8348,6.8641,6.9155,6.9229,6.9522,6.9853,6.8935,6.8054,6.7577,6.8054,6.8054,6.754,6.8054,6.8348,6.8348,6.8348,6.8348,6.8348,6.8348,6.8348,6.8348,6.8348,6.8348,6.8348,6.8348,6.776,6.6549,6.6843,6.7173,6.7026,6.6439,6.6769,6.7944,6.5668,6.3906,6.3833,6.3649,6.387,6.4604,6.4604,6.4751,6.5485,6.5485,6.5264,6.5338,6.5154,6.5411,6.5595,6.5726,6.5893,6.5913,6.6225,6.6537,6.6628,6.7122,6.7488,6.7579,6.7433,6.7322,6.7266,6.7064,6.721,6.721,6.6988,6.6895,6.6983,6.6867,6.6786,6.641,6.6677,6.675,6.6496,6.6569,6.6641,6.6062,6.5446,6.5048,6.5265,6.512,6.5084,6.7687,6.7687,6.7687,6.7687,6.7687,6.7687,6.7687,6.7687,6.7687,6.7687,6.7687,6.7687,6.7687,6.7687,6.7724,6.7687,6.7687,6.7687,6.7687,6.7687,6.7687,6.7687,6.7687,6.7687,6.7724,6.7797,6.7907,6.7871,6.7834,6.8495,6.8862,6.8898,6.9486,6.9926,6.9853,6.9816,6.9963,7.0036,7.0036,7.011,7.0146,7.0073,6.9963,6.9889,6.9926,6.9816,6.9816,6.9926,6.9963,6.9963,6.9889,6.9926,6.9926,6.9926,6.9889,6.9889,6.9926,6.9926,6.9889,6.9853,6.9486,6.8825,6.8605,6.8752,6.8641,6.8017,6.7797,6.7834,6.71,6.6329,6.6256,6.5521,6.5485,6.6219,6.5742,6.5815,6.6439,6.6182,6.5411,6.5521,6.5668,6.5962,6.6439,6.71,6.7266,6.734,6.754,6.7486,6.7396,6.7488,6.7414,6.7266,6.7154,6.7134,6.7359,6.721,6.7154,6.7154,6.7097,6.7097,6.704,6.6983,6.6939,6.6881,6.6822,6.6822,6.6822,6.6786,6.6786,6.6569,6.6533,6.6351,6.6098,6.6533,6.646,6.7687,6.7687,6.7687,6.7687,6.7687,6.7687,6.7687,6.7687,6.7687,6.7687,6.7687,6.7687,6.7687,6.7724,6.8238,6.8164,6.7724,6.7687,6.7687,6.7687,6.7687,6.7687,6.7724,6.8201,6.8495,6.8531,6.8972,6.9229,6.9265,6.9559,6.9669,6.9706,6.9926,7.011,7.011,7.011,7.033,7.0807,7.0881,7.1101,7.1541,7.1651,7.1651,7.1578,7.0624,7.011,7.011,7.011,7.011,7.011,7.011,7.011,7.011,7.011,7.011,7.011,7.011,7.011,7.011,7.011,6.9743,6.9045,6.9412,6.9669,6.9633,6.9412,6.9449,6.9706,6.9265,6.8825,6.8421,6.7173,6.6623,6.7724,6.7797,6.7871,6.8531,6.8531,6.8385,6.8311,6.7981,6.776,6.7707,6.778,6.7579,6.7579,6.7433,6.7414,6.7378,6.7322,6.7339,6.721,6.7154,6.7336,6.8033,6.7331,6.6961,6.6961,6.6903,6.7034,6.6976,6.7085,6.7099,6.7148,6.7076,6.7003,6.7076,6.7003,6.6967,6.6822,6.6822,6.6822,6.6786,6.6822,6.6822,6.7687,6.7687,6.7687,6.7687,6.7724,6.7981,6.8091,6.8128,6.8348,6.8458,6.8458,6.8458,6.8458,6.8568,6.9045,6.9009,6.8495,6.8495,6.8458,6.8458,6.8458,6.8458,6.8568,6.9045,6.9265,6.9376,6.9816,7.011,7.0146,7.0367,7.0477,7.0477,7.0734,7.0881,7.0881,7.0881,7.1174,7.1615,7.1688,7.1982,7.2459,7.2532,7.2532,7.2349,7.1431,7.0881,7.0881,7.0881,7.0881,7.0881,7.0881,7.0881,7.0881,7.0881,7.0881,7.0844,7.0881,7.0881,7.0881,7.0881,7.055,6.9816,7.0403,7.0807,7.055,7.0697,7.1027,7.1138,7.0881,7.0477,7.0183,6.9009,6.8531,6.9449,6.9449,6.9633,7.033,7.022,6.9889,6.9486,6.9045,6.8862,6.877,6.8312,6.8,6.7816,6.7724,6.7668,6.7611,6.7611,6.77,6.7883,6.7971,6.8226,6.8531,6.8232,6.8051,6.8014,6.7833,6.7629,6.7425,6.7497,6.7497,6.751,6.7474,6.7402,6.7329,6.7221,6.7112,6.6931,6.6822,6.6822,6.6822,6.6822,6.6822,6.7724,6.7834,6.7724,6.7871,6.8017,6.8641,6.8898,6.9009,6.9633,6.9853,6.9779,6.9963,6.9816,7.0,7.0,7.0073,7.0,7.0073,7.0,6.9889,6.9889,6.9889,6.9889,7.0036,7.0183,7.022,7.0183,7.022,7.0367,7.0991,7.1321,7.1468,7.1982,7.2202,7.2422,7.2275,7.2386,7.2422,7.2386,7.2459,7.2532,7.2532,7.2532,7.2532,7.2349,7.2312,7.2386,7.2386,7.2312,7.2349,7.2349,7.2459,7.2312,7.2312,7.2422,7.2312,7.2386,7.2422,7.2386,7.2312,7.1908,7.1431,7.1945,7.1982,7.1505,7.1872,7.2092,7.1688,7.1505,7.1431,7.1505,7.1321,7.1174,7.1248,7.0734,7.0734,7.1101,7.0697,6.9926,6.9522,6.9412,6.8954,6.8843,6.9118,6.9155,6.884,6.8877,6.884,6.858,6.858,6.8794,6.9077,6.9077,6.8945,6.908,6.9237,6.9358,6.9441,6.9186,6.8945,6.8681,6.8645,6.8512,6.8549,6.8452,6.8343,6.809,6.7981,6.7764,6.7583,6.7257,6.704,6.7076,6.7112,6.6858,6.8862,6.9302,6.9339,6.9339,6.9376,6.9633,6.9743,6.9743,7.0,7.011,7.011,7.011,7.011,7.0257,7.066,7.0917,7.0991,7.1431,7.1174,7.0293,7.0146,7.0146,7.0257,7.0697,7.1248,7.1688,7.1762,7.1762,7.1762,7.1982,7.2129,7.2202,7.2386,7.2496,7.2532,7.2532,7.2532,7.2532,7.2532,7.2532,7.2532,7.2532,7.2532,7.2532,7.2532,7.2532,7.2532,7.2532,7.2532,7.2532,7.2532,7.2532,7.2532,7.2532,7.2532,7.2532,7.2532,7.2532,7.2532,7.2532,7.2422,7.2239,7.2422,7.2386,7.2165,7.2422,7.2753,7.2863,7.2973,7.312,7.3634,7.378,7.334,7.2275,7.2386,7.2569,7.2753,7.2642,7.2496,7.2202,7.1725,7.1615,7.1814,7.1762,7.1007,7.049,7.0747,7.0783,6.9791,6.9806,6.9916,6.9705,6.9646,6.9794,7.0096,7.0252,7.0314,7.0302,7.012,6.9927,6.9697,6.9661,6.9527,6.9491,6.9394,6.9213,6.8959,6.8742,6.8561,6.8307,6.809,6.7873,6.7655,6.7402,6.7148,6.9633,7.0073,7.011,7.011,7.0146,7.0403,7.055,7.0587,7.0881,7.0991,7.0991,7.0991,7.0991,7.1101,7.1541,7.1762,7.1798,7.2312,7.1982,7.1101,7.0991,7.0991,7.1027,7.1505,7.1982,7.2386,7.2496,7.2532,7.2532,7.2532,7.2496,7.2496,7.2532,7.2532,7.2532,7.2532,7.2606,7.2863,7.2973,7.3083,7.334,7.3413,7.3413,7.3413,7.3377,7.3377,7.3413,7.3413,7.312,7.2642,7.2532,7.2532,7.2532,7.2532,7.2532,7.2532,7.2532,7.2532,7.2532,7.2789,7.2936,7.301,7.3487,7.3854,7.3927,7.4037,7.4588,7.4918,7.5065,7.5249,7.5689,7.5799,7.5175,7.4001,7.3964,7.4147,7.4111,7.3854,7.367,7.334,7.2863,7.301,7.3245,7.334,7.2636,7.2212,7.2116,7.2021,7.088,7.0615,7.0506,7.041,7.0447,7.0785,7.1257,7.1303,7.1205,7.106,7.0977,7.0687,7.047,7.047,7.0408,7.0444,7.0408,7.0118,6.9865,6.9684,6.9502,6.9213,6.8887,6.8633,6.8343,6.78,6.751,7.0183,7.022,7.0257,7.0367,7.044,7.1064,7.1394,7.1505,7.2055,7.2312,7.2386,7.2275,7.2349,7.2422,7.2349,7.2386,7.2496,7.2459,7.2459,7.2312,7.2312,7.2275,7.2275,7.2312,7.2422,7.2496,7.2532,7.2532,7.2532,7.2532,7.2532,7.2532,7.2606,7.2606,7.2716,7.2642,7.3156,7.367,7.3744,7.4111,7.4735,7.4808,7.4845,7.4882,7.4882,7.4918,7.5028,7.5028,7.4331,7.301,7.312,7.3266,7.2936,7.2789,7.312,7.323,7.2899,7.3083,7.3083,7.3817,7.4111,7.4221,7.5249,7.6166,7.6019,7.635,7.679,7.7047,7.7157,7.7231,7.7304,7.7304,7.6864,7.6203,7.5359,7.5028,7.4918,7.4368,7.4184,7.3927,7.3266,7.3025,7.3969,7.4029,7.3799,7.33,7.2936,7.2692,7.206,7.1816,7.1366,7.1438,7.1791,7.1983,7.2553,7.2355,7.2291,7.2255,7.2038,7.1639,7.1168,7.106,7.106,7.1132,7.1132,7.0915,7.077,7.0517,7.0263,6.9937,6.9647,6.9358,6.8995,6.8525,6.7945,7.1321,7.1872,7.1872,7.1872,7.1872,7.2129,7.2165,7.2202,7.2386,7.2532,7.2532,7.2532,7.2532,7.2532,7.2532,7.2532,7.2532,7.2532,7.2532,7.2532,7.2532,7.2532,7.2532,7.2532,7.2532,7.2532,7.2532,7.2532,7.2532,7.2569,7.2569,7.2532,7.312,7.3377,7.345,7.3927,7.4368,7.4551,7.4625,7.4735,7.4955,7.5065,7.5212,7.5763,7.5836,7.613,7.6607,7.668,7.624,7.5359,7.5763,7.6056,7.5873,7.5836,7.5763,7.5763,7.5873,7.5983,7.5983,7.6166,7.6313,7.6387,7.6827,7.7011,7.7011,7.7194,7.7635,7.8038,7.8259,7.8295,7.8259,7.8222,7.7818,7.7084,7.6276,7.5763,7.5763,7.5616,7.5469,7.5432,7.5212,7.5335,7.5727,7.5947,7.5702,7.5087,7.4879,7.4733,7.3733,7.3488,7.3207,7.3307,7.3588,7.3634,7.3679,7.3478,7.3378,7.345,7.316,7.2617,7.2001,7.1422,7.1422,7.1422,7.135,7.1168,7.1241,7.1205,7.0915,7.0553,7.0372,7.0082,6.9828,6.943,6.8706,7.2092,7.2496,7.2532,7.2532,7.2532,7.2532,7.2532,7.2532,7.2532,7.2532,7.2532,7.2532,7.2532,7.2532,7.2532,7.2532,7.2532,7.2532,7.2532,7.2532,7.2532,7.2532,7.2532,7.2532,7.2532,7.2532,7.2532,7.2532,7.2606,7.2826,7.301,7.3193,7.3817,7.4184,7.4221,7.4625,7.5102,7.5395,7.5726,7.6056,7.6423,7.679,7.7194,7.7598,7.7671,7.7928,7.8332,7.8662,7.8222,7.7084,7.7047,7.7341,7.7341,7.7341,7.7341,7.7341,7.7341,7.7268,7.7414,7.7635,7.7855,7.8002,7.8369,7.8846,7.8993,7.914,7.9617,7.958,7.9617,7.9433,7.9103,7.8809,7.8405,7.7855,7.7121,7.6644,7.6607,7.6276,7.6313,7.6423,7.6387,7.6423,7.7071,7.7118,7.6873,7.6345,7.5926,7.5498,7.4961,7.5107,7.497,7.4679,7.4433,7.4333,7.4268,7.4167,7.4211,7.4319,7.4102,7.3595,7.2834,7.2074,7.1784,7.1748,7.1603,7.1494,7.1494,7.1494,7.135,7.1096,7.0951,7.0842,7.0589,7.0227,6.9502,7.2532,7.2532,7.2532,7.2532,7.2532,7.2532,7.2532,7.2532,7.2532,7.2532,7.2532,7.2532,7.2532,7.2532,7.2532,7.2569,7.2679,7.2753,7.2826,7.2899,7.2973,7.2973,7.3046,7.2863,7.2789,7.2789,7.2716,7.2899,7.3156,7.3597,7.378,7.4001,7.4625,7.5102,7.5359,7.5432,7.5763,7.6644,7.7304,7.7855,7.8369,7.8919,7.925,7.958,7.9837,7.991,8.0167,8.0498,8.0094,7.7965,7.7818,7.8148,7.8038,7.7965,7.8002,7.8185,7.8332,7.8259,7.8075,7.8883,7.9103,7.936,8.0388,8.1012,8.0828,8.1048,8.1122,8.0461,8.0828,8.0204,7.947,7.8846,7.8369,7.8075,7.7598,7.7341,7.7194,7.668,7.6497,7.7157,7.6607,7.668,7.6949,7.7243,7.7181,7.671,7.6501,7.6081,7.5625,7.5487,7.5241,7.4783,7.4711,7.4645,7.4682,7.4718,7.4935,7.508,7.4826,7.4356,7.3667,7.2943,7.24,7.211,7.2074,7.182,7.1494,7.1494,7.1494,7.1458,7.1241,7.135,7.1386,7.0915,7.0263,7.2532,7.2532,7.2532,7.2532,7.2532,7.2532,7.2532,7.2532,7.2532,7.2532,7.2532,7.2532,7.2532,7.2532,7.2642,7.2826,7.3413,7.3487,7.3744,7.4368,7.4404,7.4404,7.4258,7.3891,7.3523,7.356,7.4111,7.4368,7.4441,7.4551,7.4698,7.4845,7.5689,7.6203,7.679,7.7378,7.8185,7.8883,7.914,7.925,7.9433,7.9764,8.0204,8.0718,8.1269,8.1599,8.1672,8.1856,8.1672,8.1269,8.1012,8.0755,8.0755,8.0865,8.0791,8.0755,8.0901,8.0975,8.1085,8.1048,8.1379,8.1269,8.1379,8.1672,8.1048,8.1122,8.0865,8.0277,8.0021,7.969,7.8919,7.8112,7.7781,7.7635,7.7488,7.7341,7.7304,7.7157,7.7121,7.7194,7.7157,7.7059,7.7118,7.7118,7.7056,7.6866,7.6692,7.6518,7.6243,7.5931,7.5647,7.5261,7.5334,7.537,7.537,7.5406,7.5478,7.5623,7.5442,7.5261,7.4537,7.3812,7.3233,7.2834,7.2545,7.2183,7.1567,7.1494,7.1494,7.1494,7.1494,7.1494,7.1458,7.1205,7.106,7.2532,7.2532,7.2532,7.2532,7.2532,7.2532,7.2532,7.2532,7.2532,7.2532,7.2606,7.2863,7.3046,7.312,7.345,7.3927,7.4147,7.4294,7.4698,7.5285,7.5469,7.5469,7.5689,7.5689,7.5579,7.4661,7.4661,7.5065,7.5432,7.5909,7.6313,7.668,7.7378,7.8075,7.8405,7.8919,7.925,7.969,8.0204,8.0351,8.0388,8.0755,8.1012,8.1489,8.1966,8.2186,8.215,8.215,8.2186,8.2186,8.2186,8.2186,8.2186,8.2186,8.2186,8.2186,8.2186,8.2186,8.215,8.2186,8.2113,8.215,8.1893,8.1452,8.0975,8.0681,8.0057,7.947,7.9176,7.8919,7.8112,7.7708,7.7341,7.7341,7.7341,7.7341,7.7341,7.7341,7.7341,7.7341,7.7304,7.7206,7.7181,7.7155,7.7155,7.7056,7.6801,7.6628,7.6563,7.6287,7.6228,7.6022,7.6094,7.613,7.613,7.613,7.6058,7.6094,7.5985,7.5877,7.5551,7.479,7.4066,7.3414,7.269,7.2038,7.1567,7.1531,7.1494,7.1494,7.1494,7.1494,7.1458,7.135,7.1277,7.2679,7.2679,7.2679,7.2642,7.2532,7.2532,7.2532,7.2532,7.2642,7.2789,7.2863,7.3523,7.3891,7.4001,7.4515,7.4918,7.5359,7.5836,7.646,7.6864,7.6937,7.6974,7.7157,7.7708,7.7635,7.5799,7.5983,7.635,7.6864,7.7341,7.7928,7.8699,7.9286,7.9543,7.9837,7.9984,8.0131,8.0461,8.0938,8.1195,8.1232,8.1746,8.2003,8.2076,8.2113,8.2186,8.2186,8.2186,8.2186,8.2186,8.2186,8.2186,8.2186,8.2186,8.2186,8.2186,8.2186,8.2186,8.2113,8.2039,8.1929,8.2003,8.1269,8.0755,8.0461,7.991,7.925,7.8699,7.8332,7.8148,7.7414,7.7341,7.7341,7.7378,7.7414,7.7524,7.7561,7.7561,7.7781,7.7341,7.7341,7.7243,7.7279,7.7279,7.7279,7.7217,7.6929,7.6737,7.6672,7.6607,7.6445,7.6311,7.6275,7.6275,7.6275,7.6275,7.6275,7.6275,7.6275,7.6239,7.613,7.537,7.4428,7.3378,7.2617,7.2038,7.1639,7.1531,7.1494,7.1494,7.1494,7.1494,7.1494,7.1494,7.1458,7.3523,7.3487,7.3487,7.312,7.2569,7.2532,7.2532,7.2606,7.3193,7.3487,7.3597,7.4331,7.4698,7.4845,7.4808,7.5616,7.6937,7.7855,7.8699,7.8956,7.8956,7.8956,7.9066,7.9396,7.9286,7.914,7.8846,7.8883,7.8956,7.936,7.9433,7.9617,7.9837,8.0167,8.0681,8.0828,8.1085,8.1415,8.1746,8.1856,8.1929,8.2039,8.2186,8.2186,8.2186,8.2186,8.2186,8.2186,8.2186,8.2186,8.2186,8.2186,8.215,8.215,8.2113,8.2186,8.2076,8.2039,8.2003,8.1525,8.1269,8.1048,8.0461,7.969,7.925,7.8883,7.8442,7.7928,7.7635,7.7488,7.7341,7.7341,7.7341,7.7451,7.7892,7.8332,7.8479,7.8626,7.8552,7.7708,7.7488,7.7279,7.7279,7.7217,7.7155,7.7092,7.6902,7.6708,7.6643,7.6578,7.6445,7.6378,7.6275,7.6275,7.6275,7.6275,7.6275,7.6275,7.6275,7.6275,7.6058,7.5551,7.4718,7.3849,7.2979,7.2327,7.1965,7.1675,7.1494,7.1494,7.1494,7.1494,7.1494,7.1494,7.1494,7.3083,7.3083,7.3083,7.2863,7.2532,7.2532,7.2753,7.312,7.3523,7.3927,7.4478,7.5175,7.5799,7.6166,7.668,7.7524,7.8589,7.9286,8.0021,8.0277,8.0424,8.0424,8.0498,8.0755,8.0718,8.0645,8.0755,8.0755,8.0461,8.0388,8.0608,8.0975,8.1012,8.1232,8.1525,8.1636,8.1819,8.215,8.2186,8.2186,8.2186,8.2186,8.2186,8.2186,8.2186,8.2186,8.2186,8.2186,8.2186,8.2186,8.2186,8.2186,8.2113,8.1893,8.1782,8.2039,8.1819,8.1562,8.1452,8.0865,8.0388,8.0277,7.9617,7.9066,7.8589,7.8222,7.7781,7.7488,7.7341,7.7341,7.7341,7.7341,7.7524,7.7928,7.8369,7.8736,7.9066,7.9176,7.8699,7.8075,7.8038,7.7756,7.7155,7.7155,7.7029,7.6966,7.6773,7.6708,7.6614,7.6512,7.6445,7.6378,7.6275,7.6275,7.6275,7.6275,7.6275,7.6275,7.6275,7.6275,7.6094,7.5659,7.5225,7.4645,7.374,7.269,7.2255,7.1965,7.1748,7.1531,7.1494,7.1494,7.1494,7.1494,7.1494,7.2716,7.2716,7.2753,7.2642,7.2532,7.2679,7.3083,7.367,7.4074,7.4588,7.5212,7.6203,7.6974,7.7671,7.8552,7.9433,8.0057,8.0167,8.0718,8.1122,8.1232,8.1232,8.1452,8.1709,8.1782,8.1379,8.1672,8.1856,8.1379,8.1232,8.1599,8.1819,8.2113,8.2186,8.2113,8.2039,8.2186,8.2186,8.2186,8.2186,8.2186,8.2186,8.2186,8.2186,8.2186,8.2186,8.2186,8.2186,8.2186,8.2186,8.2186,8.2186,8.2076,8.1599,8.1489,8.1746,8.1195,8.0865,8.0571,8.0021,7.9543,7.9507,7.8772,7.8442,7.8222,7.7745,7.7378,7.7341,7.7341,7.7341,7.7341,7.7341,7.7598,7.8038,7.8405,7.8772,7.9066,7.9176,7.8893,7.8563,7.8563,7.806,7.7338,7.6902,7.6838,7.6773,7.6643,7.6578,7.6445,7.6378,7.6378,7.6342,7.6275,7.6275,7.6275,7.6275,7.6275,7.6275,7.6275,7.6275,7.6094,7.5841,7.5442,7.508,7.4066,7.3088,7.269,7.2255,7.1965,7.1748,7.1603,7.1494,7.1494,7.1494,7.1494,7.356,7.3523,7.3523,7.3156,7.2679,7.323,7.3597,7.3927,7.5175,7.5836,7.6166,7.7524,7.8259,7.8809,8.0057,8.0681,8.1012,8.1415,8.1709,8.1893,8.1929,8.1929,8.2003,8.2113,8.215,8.1893,8.2076,8.215,8.1929,8.1929,8.2003,8.2186,8.2186,8.2186,8.2186,8.2186,8.2186,8.2186,8.2186,8.2186,8.2186,8.2186,8.2186,8.2186,8.2186,8.2186,8.2186,8.2186,8.2186,8.2186,8.2186,8.2186,8.215,8.2113,8.1672,8.1158,8.0461,7.9947,7.98,7.9176,7.8736,7.8589,7.8002,7.7598,7.7524,7.7524,7.7341,7.7341,7.7341,7.7341,7.7341,7.7341,7.7414,7.7781,7.8295,7.8589,7.8883,7.904,7.8757,7.8437,7.8153,7.7751,7.7139,7.6911,7.6614,7.6614,7.6512,7.6445,7.6342,7.6275,7.6275,7.6275,7.6275,7.6275,7.6275,7.6275,7.6275,7.6275,7.6275,7.6275,7.6167,7.5985,7.5768,7.5225,7.4319,7.3667,7.3305,7.2834,7.2291,7.2001,7.1893,7.1712,7.1494,7.1494,7.1531,7.301,7.301,7.301,7.3083,7.323,7.356,7.4221,7.5065,7.5799,7.6644,7.7488,7.8222,7.9066,8.0021,8.1195,8.1636,8.1746,8.2039,8.2186,8.2186,8.2186,8.2186,8.215,8.2186,8.2186,8.2186,8.2186,8.2186,8.2186,8.215,8.2186,8.2186,8.2186,8.2186,8.2186,8.2186,8.2186,8.2186,8.2186,8.2186,8.2186,8.2186,8.2186,8.2186,8.2186,8.2186,8.2186,8.2186,8.2186,8.2186,8.2186,8.2186,8.1929,8.1452,8.0755,8.0975,7.9286,7.8699,7.8919,7.8295,7.8038,7.7855,7.7561,7.7378,7.7341,7.7341,7.7341,7.7341,7.7341,7.7341,7.7341,7.7341,7.7635,7.7965,7.8222,7.8626,7.8783,7.8683,7.8583,7.8163,7.7741,7.7304,7.6947,7.6781,7.6548,7.6445,7.6378,7.6378,7.6275,7.6275,7.6275,7.6275,7.6275,7.6275,7.6275,7.6275,7.6275,7.6275,7.6275,7.6275,7.6275,7.613,7.5913,7.5913,7.5515,7.4826,7.4066,7.3378,7.2726,7.2436,7.2219,7.2074,7.1929,7.1531,7.1531,7.2532,7.2532,7.2532,7.2973,7.3707,7.3891,7.4771,7.6019,7.6607,7.7451,7.8442,7.9066,8.0057,8.1122,8.1819,8.2076,8.215,8.2186,8.2186,8.2186,8.2186,8.2186,8.2186,8.2186,8.2186,8.2186,8.1856,8.1819,8.1746,8.1672,8.1599,8.215,8.2186,8.2186,8.2186,8.2186,8.2186,8.2186,8.2186,8.2186,8.2186,8.2186,8.2186,8.2186,8.2186,8.2186,8.2186,8.1893,8.1856,8.1819,8.1525,8.1342,8.1232,8.0571,8.0057,7.9947,7.8699,7.8075,7.8112,7.7745,7.7378,7.7341,7.7341,7.7341,7.7341,7.7341,7.7341,7.7341,7.7341,7.7341,7.7341,7.7341,7.7463,7.7793,7.8086,7.86,7.883,7.84,7.798,7.7531,7.7145,7.6898,7.6614,7.6548,7.6445,7.6342,7.6275,7.6275,7.6275,7.6275,7.6275,7.6275,7.6275,7.6275,7.6275,7.6275,7.6275,7.6275,7.6275,7.6275,7.6275,7.6203,7.6058,7.6094,7.6167,7.5297,7.4138,7.3667,7.3233,7.3052,7.2834,7.2653,7.24,7.1929,7.1567,7.2532,7.2532,7.2532,7.301,7.3817,7.4515,7.5322,7.646,7.7781,7.8479,7.8993,8.0094,8.1195,8.1893,8.2076,8.2186,8.2186,8.2186,8.2186,8.2186,8.2186,8.2186,8.2186,8.2186,8.2186,8.2076,8.1782,8.1415,8.1012,8.0791,8.1195,8.1929,8.1746,8.2003,8.2186,8.2186,8.2186,8.215,8.2076,8.2039,8.2039,8.2003,8.1966,8.2039,8.2113,8.2186,8.2113,8.1452,8.1085,8.1048,8.0608,8.0314,8.0277,7.9874,7.9543,7.9213,7.8626,7.8038,7.7818,7.7561,7.7378,7.7341,7.7341,7.7341,7.7341,7.7341,7.7341,7.7341,7.7243,7.7243,7.7243,7.7279,7.7327,7.7375,7.7558,7.7568,7.7751,7.7578,7.7194,7.6854,7.665,7.6512,7.6445,7.6445,7.6445,7.6275,7.6275,7.6275,7.6275,7.6275,7.6275,7.6275,7.6275,7.6275,7.6275,7.6275,7.6275,7.6275,7.6275,7.6275,7.6275,7.6203,7.613,7.5913,7.5804,7.5008,7.4435,7.4302,7.4055,7.3747,7.3421,7.3074,7.2589,7.2001,7.1675,7.2532,7.2569,7.3046,7.3707,7.4551,7.5836,7.6864,7.7745,7.8846,7.9653,8.0131,8.1232,8.1893,8.2113,8.2186,8.2186,8.2186,8.2186,8.2186,8.2186,8.2186,8.2186,8.2186,8.215,8.2186,8.2076,8.1782,8.1379,8.0975,8.0351,8.0351,8.0791,8.0755,8.1452,8.1782,8.2039,8.2076,8.1966,8.1709,8.1452,8.1342,8.0901,8.0718,8.0718,8.0718,8.0718,8.0645,8.0424,8.0277,8.0167,7.9874,7.9727,7.9543,7.925,7.9103,7.8956,7.8405,7.7965,7.7928,7.7598,7.7341,7.7341,7.7341,7.7341,7.7341,7.7341,7.7341,7.7243,7.7243,7.7181,7.7217,7.7056,7.6966,7.6929,7.6929,7.6929,7.6866,7.6838,7.6773,7.6614,7.6481,7.6378,7.6342,7.6275,7.6275,7.6275,7.6275,7.6275,7.6275,7.6275,7.6275,7.6275,7.6275,7.6275,7.6275,7.6275,7.6275,7.6275,7.6275,7.6275,7.6275,7.6275,7.6167,7.5877,7.5701,7.5381,7.5173,7.5148,7.4896,7.4384,7.3879,7.3353,7.2762,7.2119,7.1929,7.2642,7.2973,7.3707,7.4515,7.5395,7.6717,7.7965,7.8993,7.98,8.0608,8.1379,8.1966,8.2186,8.2186,8.2186,8.2186,8.2186,8.2186,8.2186,8.2186,8.2186,8.2186,8.2113,8.1929,8.1709,8.1746,8.1195,8.0608,8.0131,8.0021,7.9727,7.9433,7.9286,7.9984,8.1048,8.1489,8.1489,8.1305,8.1012,8.0645,8.0534,8.0167,7.9874,7.991,7.9947,7.9947,7.9874,7.969,7.947,7.9323,7.914,7.9029,7.8809,7.8662,7.8589,7.8442,7.8222,7.7708,7.7855,7.7745,7.7341,7.7341,7.7341,7.7341,7.7341,7.7341,7.7341,7.7341,7.7217,7.7155,7.7092,7.7029,7.6902,7.6838,7.6866,7.6801,7.6708,7.6643,7.6578,7.6481,7.6378,7.6275,7.6275,7.6275,7.6275,7.6275,7.6275,7.6275,7.6275,7.6275,7.6275,7.6275,7.6275,7.6275,7.6275,7.6275,7.6275,7.6275,7.6275,7.6275,7.6275,7.6275,7.6275,7.613,7.5959,7.6,7.5441,7.4686,7.4798,7.4971,7.4293,7.3544,7.3477,7.2943,7.2472,7.2936,7.3744,7.4551,7.5359,7.624,7.6974,7.8295,7.9764,8.0645,8.1379,8.2003,8.2186,8.2186,8.2186,8.2186,8.2186,8.2186,8.2186,8.2186,8.2186,8.2186,8.2186,8.1893,8.1562,8.1158,8.0645,8.0241,7.969,7.8993,7.8993,7.8662,7.8809,7.9029,7.8919,7.9874,7.991,7.991,7.991,7.9984,7.9947,7.991,7.9653,7.9396,7.936,7.936,7.9286,7.9176,7.8846,7.8699,7.8772,7.8295,7.8148,7.8112,7.8038,7.7965,7.7855,7.7745,7.7524,7.7414,7.7341,7.7341,7.7341,7.7341,7.7341,7.7341,7.7341,7.7341,7.7341,7.7279,7.7217,7.7155,7.7029,7.6838,7.6708,7.6672,7.6672,7.6578,7.6445,7.6445,7.6445,7.6378,7.6275,7.6275,7.6275,7.6275,7.6275,7.6275,7.6275,7.6275,7.6275,7.6275,7.6275,7.6275,7.6275,7.6275,7.6275,7.6275,7.6275,7.6275,7.6208,7.614,7.5967,7.6036,7.614,7.5898,7.562,7.4752,7.3799,7.3976,7.4141,7.4226,7.3832,7.3776,7.3667,7.316,7.2973,7.3817,7.5139,7.6497,7.7781,7.8626,7.958,8.0608,8.1415,8.1929,8.215,8.2186,8.2186,8.2186,8.2186,8.2186,8.2186,8.2186,8.2186,8.2186,8.2186,8.1782,8.1489,8.1195,8.0755,8.0388,7.9874,7.9764,7.947,7.936,7.98,8.0057,8.0057,7.991,7.969,7.9837,8.0645,8.0498,8.0167,7.9764,7.9653,7.8883,7.8259,7.8295,7.8295,7.8405,7.8442,7.8112,7.8295,7.8626,7.8222,7.8369,7.8662,7.8809,7.8846,7.8883,7.8883,7.8662,7.8185,7.7781,7.7341,7.7378,7.7341,7.7341,7.7341,7.7341,7.7341,7.7279,7.7279,7.7155,7.6966,7.6773,7.668,7.6445,7.6409,7.6409,7.6342,7.6378,7.6378,7.6378,7.6275,7.6275,7.6275,7.6275,7.6275,7.6275,7.6275,7.6275,7.6275,7.6275,7.6275,7.6275,7.6275,7.6275,7.6275,7.5898,7.576,7.569,7.5829,7.5967,7.5898,7.576,7.5829,7.5967,7.5549,7.5009,7.4223,7.3482,7.3078,7.3112,7.3322,7.3718,7.3833,7.378,7.3704,7.3303,7.4588,7.5652,7.7414,7.9323,8.0021,8.0681,8.1415,8.1966,8.2186,8.2186,8.2186,8.2186,8.2186,8.2186,8.2186,8.2186,8.2186,8.2186,8.2186,8.2186,8.1929,8.1562,8.1122,8.0828,8.0461,8.0608,8.0645,8.0277,8.1012,8.1305,8.1452,8.1929,8.1195,8.0681,8.1012,8.1415,8.1232,8.0791,8.0094,7.958,7.8699,7.7745,7.7635,7.7671,7.7892,7.7892,7.8075,7.8405,7.8846,7.9103,7.925,7.969,7.98,7.98,7.98,7.9727,7.947,7.8956,7.8662,7.8405,7.8332,7.7745,7.7341,7.7341,7.7341,7.7341,7.7279,7.7217,7.7029,7.6838,7.6708,7.6578,7.6409,7.6275,7.6275,7.6275,7.6275,7.6275,7.6275,7.6275,7.6275,7.6275,7.6275,7.6275,7.6275,7.6275,7.6275,7.6275,7.6208,7.6072,7.5967,7.5829,7.5584,7.5371,7.5119,7.5082,7.5082,7.5299,7.5513,7.576,7.562,7.576,7.576,7.5371,7.4752,7.3956,7.3241,7.2533,7.2464,7.2765,7.3238,7.3748,7.3869,7.3859,7.3964,7.5946,7.6203,7.8112,8.0681,8.0975,8.1489,8.215,8.2186,8.2186,8.2186,8.2186,8.2186,8.2186,8.2186,8.2186,8.2186,8.2186,8.2186,8.2186,8.2186,8.2039,8.1782,8.1379,8.1085,8.1012,8.1232,8.1599,8.1232,8.2296,8.2627,8.2553,8.303,8.2847,8.2774,8.2774,8.2737,8.2223,8.1672,8.0975,8.0314,7.936,7.8552,7.8295,7.8295,7.8552,7.8772,7.9103,7.9507,7.9764,7.9837,7.9874,7.991,7.9874,7.9874,7.991,8.0021,7.9874,7.98,7.9617,7.947,7.914,7.8295,7.7708,7.7414,7.7451,7.7341,7.7341,7.7279,7.7056,7.6866,7.6737,7.6643,7.6475,7.6275,7.6275,7.6275,7.6275,7.6275,7.6275,7.6275,7.6275,7.6275,7.6275,7.6275,7.6275,7.6275,7.6275,7.6208,7.6003,7.576,7.5407,7.5155,7.4677,7.4452,7.4376,7.4187,7.4187,7.4677,7.49,7.5155,7.5227,7.5155,7.5046,7.5082,7.4527,7.3482,7.2533,7.1688,7.1814,7.2192,7.2706,7.3177,7.3716,7.3818,7.4955,7.624,7.8002,7.9617,8.0975,8.1599,8.2003,8.2186,8.2186,8.2186,8.2186,8.2186,8.2186,8.2186,8.2186,8.2186,8.215,8.2186,8.2186,8.2186,8.2223,8.1819,8.1709,8.1746,8.1452,8.1672,8.2039,8.2737,8.3067,8.3948,8.4646,8.4829,8.4939,8.5233,8.5343,8.5563,8.4462,8.3508,8.292,8.226,8.1525,8.0718,7.991,7.947,7.936,7.958,7.969,7.9764,8.0131,8.0571,8.0645,8.0828,8.1489,8.1489,8.1525,8.1415,8.1085,8.0645,8.0534,8.0131,7.991,7.9984,7.9286,7.8809,7.8295,7.7855,7.7499,7.7463,7.7364,7.7176,7.6939,7.6773,7.6643,7.6409,7.6275,7.6275,7.6275,7.6275,7.6275,7.6275,7.6275,7.6275,7.6275,7.6275,7.6275,7.6275,7.6275,7.6275,7.6072,7.5829,7.5371,7.4935,7.4376,7.3878,7.3878,7.3834,7.3482,7.3402,7.3799,7.3956,7.3799,7.3878,7.4187,7.434,7.4376,7.3799,7.2832,7.1969,7.1312,7.1312,7.162,7.2108,7.2617,7.3078,7.3562,7.5946,7.7671,7.914,8.0424,8.1452,8.2003,8.2186,8.2186,8.2186,8.2186,8.2186,8.2186,8.2186,8.2186,8.215,8.2039,8.1709,8.2039,8.2039,8.1746,8.237,8.2443,8.237,8.2663,8.2884,8.303,8.3508,8.4352,8.4646,8.5453,8.6224,8.6224,8.6848,8.6958,8.6848,8.6591,8.6114,8.5233,8.4499,8.3911,8.3141,8.2333,8.1562,8.0901,8.0755,8.0755,8.0718,8.0718,8.1012,8.1415,8.1489,8.1636,8.215,8.215,8.215,8.2003,8.1782,8.1489,8.1415,8.1122,8.0828,8.0645,8.0424,7.9957,7.9443,7.8867,7.8317,7.7914,7.7704,7.7431,7.702,7.6708,7.6512,7.6342,7.6275,7.6275,7.6275,7.6275,7.6275,7.6275,7.6275,7.6275,7.6275,7.6275,7.6275,7.6275,7.6208,7.6003,7.576,7.5478,7.5009,7.4452,7.3721,7.3078,7.3195,7.3113,7.2866,7.27,7.2996,7.2996,7.2582,7.2996,7.3799,7.3878,7.3721,7.3078,7.2448,7.183,7.1312,7.1312,7.1312,7.16,7.1917,7.209,7.2617,7.7047,7.9727,7.9947,8.0865,8.2076,8.2186,8.2186,8.2186,8.2186,8.2186,8.2186,8.2186,8.2186,8.2186,8.2186,8.1856,8.1746,8.1966,8.2113,8.1269,8.2627,8.3141,8.3581,8.4205,8.4278,8.4829,8.5306,8.5673,8.6004,8.6444,8.6811,8.7031,8.6995,8.7031,8.7031,8.7031,8.6701,8.6407,8.5857,8.5306,8.4609,8.3911,8.3214,8.2517,8.237,8.2406,8.237,8.2333,8.2296,8.2296,8.2186,8.215,8.215,8.2186,8.2186,8.2186,8.2076,8.2039,8.2003,8.1819,8.1929,8.1746,8.1525,8.0992,8.0414,7.9572,7.8839,7.8592,7.839,7.8398,7.8092,7.7916,7.7746,7.7212,7.6891,7.6637,7.6311,7.6311,7.6275,7.6275,7.6275,7.6275,7.6275,7.6275,7.6275,7.6275,7.6003,7.576,7.5299,7.4935,7.4376,7.3834,7.3031,7.2313,7.209,7.2004,7.209,7.2056,7.2364,7.2364,7.2142,7.27,7.3562,7.3322,7.2949,7.27,7.2142,7.16,7.1312,7.1312,7.1312,7.1312,7.1367,7.1546,7.1776,7.9066,7.991,8.1122,8.1893,8.215,8.2186,8.2186,8.2186,8.2186,8.2186,8.2186,8.2186,8.215,8.2076,8.215,8.1929,8.1856,8.1929,8.2406,8.2553,8.3251,8.3838,8.4352,8.5049,8.5416,8.5747,8.6187,8.6628,8.6664,8.6885,8.7031,8.7031,8.7031,8.7031,8.7031,8.7031,8.6995,8.6958,8.6738,8.6224,8.5563,8.5306,8.4866,8.4278,8.4022,8.3948,8.3765,8.3398,8.3214,8.3067,8.2443,8.226,8.2186,8.2223,8.2223,8.2186,8.226,8.226,8.2186,8.2186,8.2121,8.2055,8.1769,8.1563,8.1087,8.0129,7.9515,7.9347,7.9354,7.9403,7.9299,7.9122,7.8799,7.8118,7.747,7.6927,7.6348,7.6311,7.6275,7.6275,7.6275,7.6275,7.6275,7.6275,7.6275,7.6072,7.5549,7.5155,7.4602,7.4146,7.3402,7.2783,7.2176,7.1546,7.1312,7.1312,7.1546,7.1546,7.1776,7.1688,7.1688,7.2228,7.2783,7.2398,7.2004,7.2004,7.1917,7.1546,7.1312,7.1312,7.1312,7.1312,7.1312,7.1367,7.1457,8.0204,8.0938,8.1819,8.2186,8.2186,8.2186,8.2186,8.2186,8.2186,8.2186,8.2186,8.215,8.2003,8.1856,8.2003,8.1636,8.1525,8.1929,8.1929,8.237,8.3581,8.4168,8.4866,8.5747,8.6187,8.6518,8.6738,8.6995,8.7031,8.7031,8.7031,8.7031,8.7031,8.7031,8.7031,8.7031,8.7031,8.7031,8.7031,8.6738,8.6297,8.6224,8.6187,8.571,8.538,8.5233,8.4866,8.4352,8.3801,8.3508,8.2957,8.3141,8.3251,8.3398,8.3141,8.2884,8.2737,8.259,8.2333,8.2121,8.2092,8.1959,8.1751,8.1574,8.2057,8.125,8.0886,8.075,8.0939,8.0944,8.0255,8.0001,7.9206,7.8521,7.776,7.7072,7.6601,7.6275,7.6275,7.6275,7.6275,7.6275,7.6275,7.6275,7.6208,7.562,7.5155,7.4452,7.3878,7.3357,7.2617,7.209,7.1634,7.1401,7.1312,7.1312,7.1401,7.1312,7.1312,7.1401,7.1546,7.1688,7.183,7.1688,7.16,7.16,7.1457,7.1312,7.1312,7.1312,7.1312,7.1312,7.1312,7.1312,7.1312,8.0938,8.2113,8.2186,8.2186,8.2186,8.2186,8.2186,8.2186,8.2186,8.2113,8.2003,8.2113,8.1709,8.1489,8.1599,8.0865,8.0718,8.1452,8.1489,8.2517,8.3765,8.4682,8.5527,8.6261,8.6664,8.6848,8.6995,8.7031,8.7031,8.7031,8.7031,8.7031,8.7031,8.7031,8.7031,8.7031,8.7031,8.7031,8.7031,8.7031,8.6995,8.7031,8.6885,8.6664,8.6371,8.6004,8.571,8.5196,8.4389,8.4022,8.3728,8.3838,8.4095,8.4205,8.3985,8.3691,8.3287,8.2957,8.2524,8.2062,8.2032,8.1934,8.1793,8.202,8.2536,8.2647,8.2284,8.2322,8.2468,8.236,8.1599,8.0911,8.0151,7.91,7.8267,7.7253,7.6746,7.6311,7.6275,7.6275,7.6275,7.6275,7.6275,7.6275,7.5898,7.5335,7.4602,7.3799,7.3078,7.2617,7.209,7.1776,7.1457,7.1312,7.1312,7.1312,7.1312,7.1312,7.1312,7.1312,7.1312,7.1546,7.1546,7.1457,7.1401,7.1367,7.1367,7.1312,7.1312,7.1312,7.1312,7.1312,7.1312,7.1312,7.1312,8.1893,8.2186,8.2186,8.2186,8.2186,8.2186,8.2186,8.2186,8.2186,8.1856,8.1636,8.1893,8.1746,8.1012,8.1122,8.0901,8.1048,8.1489,8.2774,8.4022,8.4425,8.538,8.6151,8.6554,8.6921,8.7031,8.7031,8.7031,8.7031,8.7031,8.7031,8.7031,8.7031,8.7031,8.7031,8.7031,8.7031,8.7031,8.7031,8.7031,8.7031,8.7031,8.7031,8.6921,8.6885,8.6775,8.6554,8.5967,8.56,8.5196,8.4682,8.4535,8.4646,8.4756,8.4572,8.4352,8.3948,8.3441,8.2971,8.2361,8.2257,8.2494,8.2533,8.2683,8.323,8.3846,8.3701,8.3918,8.4062,8.4062,8.3519,8.2867,8.207,8.044,7.9318,7.776,7.6674,7.642,7.6275,7.6275,7.6275,7.6275,7.6275,7.614,7.5829,7.5227,7.4376,7.3562,7.2533,7.2004,7.1546,7.1457,7.1312,7.1312,7.1312,7.1312,7.1312,7.1312,7.1312,7.1312,7.1312,7.1312,7.1312,7.1312,7.1312,7.1312,7.1312,7.1312,7.1312,7.1312,7.1312,7.1312,7.1312,7.1312,7.1312]},{"header":{"parameterUnit":"m.s-1","parameterCategory":1,"la1":31.0,"la2":29.5877,"lo1":-88.7671,"lo2":-86.6584,"dx":0.0162,"dy":0.0185,"nx":115,"ny":88,"refTime":"2023-01-02T06:00:00:Z","depth":0,"parameterNumber":3,"parameterNumberName":"V-component_of_WINDS"},"data":[0.0,0.0,0.0,0.0,0.0,0.0,0.0,0.0,0.0,0.0,0.0,0.0,0.0,0.0,0.0,0.0,0.0,0.0,0.0,0.0,0.0,0.0,0.0,0.0,0.0,0.0,0.0,0.0,0.0,0.0,0.0,0.0,0.0,0.0,0.0,0.0,0.0,0.0,0.0,0.0,0.0,0.0,0.0,0.0,0.0,0.0,0.0,0.0,0.0,0.0,0.0,0.0,0.0,0.0,0.0,0.0,0.0,0.0,0.0,0.0,0.0,0.0,0.0,0.0,0.0,0.0,0.0,0.0,0.0,0.0,0.0,0.0,0.0,0.0,0.0,0.0,0.0,0.0,0.0,0.0,0.0,0.0,0.0,0.0,0.0,0.0,0.0,0.0,0.0,0.0,0.0,0.0,0.0,0.0,0.0,0.0,0.0,0.0,0.0,0.0,0.0,0.0,0.0,0.0,0.0,0.0,0.0,0.0,0.0,0.0,0.0,0.0,0.0,0.0,0.0,0.0,0.0,0.0,0.0,0.0,0.0,0.0,0.0,0.0,0.0,0.0,0.0,0.0,0.0,0.0,0.0,0.0,0.0,0.0,0.0,0.0,0.0,0.0,0.0,0.0,0.0,0.0,0.0,0.0,0.0,0.0,0.0,0.0,0.0,0.0,0.0,0.0,0.0,0.0,0.0,0.0,0.0,0.0,0.0,0.0,0.0,0.0,0.0,0.0,0.0,0.0,0.0,0.0,0.0,0.0,0.0,0.0,0.0,0.0,0.0,0.0,0.0,0.0,0.0,0.0,0.0,0.0,0.0,0.0,0.0,0.0,0.0,0.0,0.0,0.0,0.0,0.0,0.0,0.0,0.0,0.0,0.0,0.0,0.0,0.0,0.0,0.0,0.0,0.0,0.0,0.0,0.0,0.0,0.0,0.0,0.0,0.0,0.0,0.0,0.0,0.0,0.0,0.0,0.0,0.0,0.0,0.0,0.0,0.0,0.0,0.0,0.0,0.0,0.0,0.0,0.0,0.0,0.0,0.0,0.0,0.0,0.0,0.0,0.0,0.0,0.0,0.0,0.0,0.0,0.0,0.0,0.0,0.0,0.0,0.0,0.0,0.0,0.0,0.0,0.0,0.0,0.0,0.0,0.0,0.0,0.0,0.0,0.0,0.0,0.0,0.0,0.0,0.0,0.0,0.0,0.0,0.0,0.0,0.0,0.0,0.0,0.0,0.0,0.0,0.0,0.0,0.0,0.0,0.0,0.0,0.0,0.0,0.0,0.0,0.0,0.0,0.0,0.0,0.0,0.0,0.0,0.0,0.0,0.0,0.0,0.0,0.0,0.0,0.0,0.0,0.0,0.0,0.0,0.0,0.0,0.0,0.0,0.0,0.0,0.0,0.0,0.0,0.0,0.0,0.0,0.0,0.0,0.0,0.0,0.0,0.0,0.0,0.0,0.0,0.0,0.0,0.0,0.0,0.0,0.0,0.0,0.0,0.0,0.0,0.0,0.0,0.0,0.0,0.0,0.0,0.0,0.0,0.0,0.0,0.0,0.0,0.0,0.0,0.0,0.0,0.0,0.0,0.0,0.0,0.0,0.0,0.0,0.0,0.0,0.0,0.0,0.0,0.0,0.0,0.0,0.0,0.0,0.0,0.0,0.0,0.0,0.0,0.0,0.0,0.0,0.0,0.0,0.0,0.0,0.0,0.0,0.0,0.0,0.0,0.0,0.0,0.0,0.0,0.0,0.0,0.0,0.0,0.0,0.0,0.0,0.0,0.0,0.0,0.0,0.0,0.0,0.0,0.0,0.0,0.0,0.0,0.0,0.0,0.0,0.0,0.0,0.0,0.0,0.0,0.0,0.0,0.0,0.0,0.0,0.0,0.0,0.0,0.0,0.0,0.0,0.0,0.0,0.0,0.0,0.0,0.0,0.0,0.0,0.0,0.0,0.0,0.0,0.0,0.0,0.0,0.0,0.0,0.0,0.0,0.0,0.0,0.0,0.0,0.0,0.0,0.0,0.0,0.0,0.0,0.0,0.0,0.0,0.0,0.0,0.0,0.0,0.0,0.0,0.0,0.0,0.0,0.0,0.0,0.0,0.0,0.0,0.0,0.0,0.0,0.0,0.0,0.0,0.0,0.0,0.0,0.0,0.0,0.0,0.0,0.0,0.0,0.0,0.0,0.0,0.0,0.0,0.0,0.0,0.0,0.0,0.0,0.0,0.0,0.0,0.0,0.0,0.0,0.0,0.0,0.0,0.0,0.0,0.0,0.0,0.0,0.0,0.0,0.0,0.0,0.0,0.0,0.0,0.0,0.0,0.0,0.0,0.0,0.0,0.0,0.0,0.0,0.0,0.0,0.0,0.0,0.0,0.0,0.0,0.0,0.0,0.0,0.0,0.0,0.0,0.0,0.0,0.0,0.0,0.0,0.0,0.0,0.0,0.0,0.0,0.0,0.0,0.0,0.0,0.0,0.0,0.0,0.0,0.0,0.0,0.0,0.0,0.0,0.0,0.0,0.0,0.0,0.0,0.0,0.0,0.0,0.0,0.0,0.0,0.0,0.0,0.0,0.0,0.0,0.0,0.0,0.0,0.0,0.0,0.0,0.0,0.0,0.0,0.0,0.0,0.0,0.0,0.0,0.0,0.0,0.0,0.0,0.0,0.0,0.0,0.0,0.0,0.0,0.0,0.0,0.0,0.0,0.0,0.0,0.0,0.0,0.0,0.0,0.0,0.0,0.0,0.0,0.0,0.0,0.0,0.0,0.0,0.0,0.0,0.0,0.0,0.0,0.0,0.0,0.0,0.0,0.0,0.0,0.0,0.0,0.0,0.0,0.0,0.0,0.0,0.0,0.0,0.0,0.0,0.0,0.0,0.0,0.0,0.0,0.0,0.0,0.0,0.0,0.0,0.0,0.0,0.0,0.0,0.0,0.0,0.0,0.0,0.0,0.0,0.0,0.0,0.0,0.0,0.0,0.0,0.0,0.0,0.0,0.0,0.0,0.0,0.0,0.0,0.0,0.0,0.0,0.0,0.0,0.0,0.0,0.0,0.0,0.0,0.0,0.0,0.0,0.0,0.0,0.0,0.0,0.0,0.0,0.0,0.0,0.0,0.0,0.0,0.0,0.0,0.0,0.0,0.0,0.0,0.0,0.0,0.0,0.0,0.0,0.0,0.0,0.0,0.0,0.0,0.0,0.0,0.0,0.0,0.0,0.0,0.0,0.0,0.0,0.0,0.0,0.0,0.0,0.0,0.0,0.0,0.0,0.0,0.0,0.0,0.0,0.0,0.0,0.0,0.0,0.0,0.0,0.0,0.0,0.0,0.0,0.0,0.0,0.0,0.0,0.0,0.0,0.0,0.0,0.0,0.0,0.0,0.0,0.0,0.0,0.0,0.0,0.0,0.0,0.0,0.0,0.0,0.0,0.0,0.0,0.0,0.0,0.0,0.0,0.0,0.0,0.0,0.0,0.0,0.0,0.0,0.0,0.0,0.0,0.0,0.0,0.0,0.0,0.0,0.0,0.0,0.0,0.0,0.0,0.0,0.0,0.0,0.0,0.0,0.0,0.0,0.0,0.0,0.0,0.0,0.0,0.0,0.0,0.0,0.0,0.0,0.0,0.0,0.0,0.0,0.0,0.0,0.0,0.0,0.0,0.0,0.0,0.0,0.0,0.0,0.0,0.0,0.0,0.0,0.0,0.0,0.0,0.0,0.0,0.0,0.0,0.0,0.0,0.0,0.0,0.0,0.0,0.0,0.0,0.0,0.0,0.0,0.0,0.0,0.0,0.0,0.0,0.0,0.0,0.0,0.0,0.0,0.0,0.0,0.0,0.0,0.0,0.0,0.0,0.0,0.0,0.0,0.0,0.0,0.0,0.0,0.0,0.0,0.0,0.0,0.0,0.0,0.0,0.0,0.0,0.0,0.0,0.0,0.0,0.0,0.0,0.0,0.0,0.0,0.0,0.0,0.0,0.0,0.0,0.0,0.0,0.0,0.0,0.0,0.0,0.0,0.0,0.0,0.0,0.0,0.0,0.0,0.0,0.0,0.0,0.0,0.0,0.0,0.0,0.0,0.0,0.0,0.0,0.0,0.0,0.0,0.0,0.0,0.0,0.0,0.0,0.0,0.0,0.0,0.0,0.0,0.0,0.0,0.0,0.0,0.0,0.0,0.0,0.0,0.0,0.0,0.0,0.0,0.0,0.0,0.0,0.0,0.0,0.0,0.0,0.0,0.0,0.0,0.0,0.0,-1.4863,0.0,0.0,0.0,-1.4987,0.0,0.0,0.0,0.0,0.0,0.0,0.0,0.0,0.0,0.0,0.0,0.0,0.0,0.0,0.0,0.0,0.0,0.0,0.0,0.0,0.0,0.0,0.0,0.0,0.0,0.0,0.0,0.0,0.0,0.0,0.0,0.0,0.0,0.0,0.0,0.0,0.0,0.0,0.0,0.0,0.0,0.0,0.0,0.0,0.0,0.0,0.0,0.0,0.0,0.0,0.0,0.0,0.0,0.0,0.0,0.0,0.0,0.0,0.0,0.0,0.0,0.0,0.0,0.0,0.0,0.0,0.0,0.0,0.0,0.0,0.0,0.0,0.0,0.0,0.0,0.0,0.0,0.0,0.0,0.0,0.0,0.0,0.0,0.0,0.0,0.0,0.0,0.0,0.0,0.0,0.0,0.0,0.0,0.0,0.0,0.0,0.0,0.0,0.0,0.0,0.0,0.0,0.0,0.0,0.0,0.0,0.0,0.0,0.0,0.0,-1.5256,-1.5007,-1.4987,-1.5111,-1.5339,0.0,0.0,0.0,0.0,0.0,0.0,0.0,0.0,0.0,0.0,0.0,0.0,0.0,0.0,0.0,0.0,0.0,0.0,0.0,0.0,0.0,0.0,0.0,0.0,0.0,0.0,0.0,0.0,0.0,0.0,0.0,0.0,0.0,0.0,0.0,0.0,0.0,0.0,0.0,0.0,0.0,0.0,0.0,0.0,0.0,0.0,0.0,0.0,0.0,0.0,0.0,0.0,0.0,0.0,0.0,0.0,0.0,0.0,0.0,0.0,0.0,0.0,0.0,0.0,0.0,0.0,0.0,0.0,0.0,0.0,0.0,0.0,0.0,0.0,0.0,0.0,0.0,0.0,0.0,0.0,0.0,0.0,0.0,0.0,0.0,0.0,0.0,0.0,0.0,0.0,0.0,0.0,0.0,0.0,0.0,0.0,0.0,0.0,0.0,0.0,0.0,0.0,0.0,0.0,0.0,0.0,0.0,0.0,0.0,0.0,0.0,0.0,-1.5318,-1.538,-1.5504,0.0,0.0,0.0,0.0,0.0,0.0,0.0,0.0,0.0,0.0,0.0,0.0,0.0,0.0,0.0,0.0,0.0,0.0,0.0,0.0,0.0,0.0,0.0,0.0,0.0,0.0,0.0,0.0,0.0,0.0,0.0,0.0,0.0,0.0,0.0,0.0,0.0,0.0,0.0,0.0,0.0,0.0,0.0,0.0,0.0,0.0,0.0,0.0,0.0,0.0,0.0,0.0,0.0,0.0,0.0,0.0,0.0,0.0,0.0,0.0,0.0,0.0,0.0,0.0,0.0,0.0,0.0,0.0,0.0,0.0,0.0,0.0,0.0,0.0,0.0,0.0,0.0,0.0,0.0,0.0,0.0,0.0,0.0,0.0,0.0,0.0,0.0,0.0,0.0,0.0,0.0,0.0,0.0,0.0,0.0,0.0,0.0,0.0,0.0,0.0,0.0,0.0,0.0,0.0,0.0,0.0,0.0,0.0,0.0,0.0,-1.6291,-1.6249,-1.6249,0.0,-1.5132,0.0,0.0,0.0,0.0,0.0,0.0,0.0,0.0,0.0,0.0,0.0,0.0,0.0,0.0,0.0,0.0,0.0,0.0,0.0,0.0,0.0,0.0,0.0,0.0,0.0,0.0,0.0,0.0,0.0,0.0,0.0,0.0,0.0,0.0,0.0,0.0,0.0,0.0,0.0,0.0,0.0,0.0,0.0,0.0,0.0,0.0,0.0,0.0,0.0,0.0,0.0,0.0,0.0,0.0,0.0,0.0,0.0,0.0,0.0,0.0,0.0,0.0,0.0,0.0,0.0,0.0,0.0,0.0,0.0,0.0,0.0,0.0,0.0,0.0,0.0,0.0,0.0,0.0,0.0,0.0,0.0,0.0,0.0,0.0,0.0,0.0,0.0,0.0,0.0,0.0,0.0,0.0,0.0,0.0,0.0,0.0,0.0,0.0,0.0,0.0,0.0,0.0,0.0,0.0,0.0,0.0,0.0,0.0,0.0,0.0,-1.6374,-1.6374,-1.6374,-1.5939,0.0,0.0,0.0,0.0,0.0,0.0,0.0,0.0,0.0,0.0,0.0,0.0,0.0,0.0,0.0,0.0,0.0,0.0,0.0,0.0,0.0,0.0,0.0,0.0,0.0,0.0,0.0,0.0,0.0,0.0,0.0,0.0,0.0,0.0,0.0,0.0,0.0,0.0,0.0,0.0,0.0,0.0,0.0,0.0,0.0,0.0,0.0,0.0,0.0,0.0,0.0,0.0,0.0,0.0,0.0,0.0,0.0,0.0,0.0,0.0,0.0,0.0,0.0,0.0,0.0,0.0,0.0,0.0,0.0,0.0,0.0,0.0,0.0,0.0,0.0,0.0,0.0,0.0,0.0,0.0,0.0,0.0,0.0,0.0,0.0,0.0,0.0,0.0,0.0,0.0,0.0,0.0,0.0,0.0,0.0,0.0,0.0,0.0,0.0,0.0,0.0,0.0,0.0,0.0,0.0,0.0,0.0,0.0,0.0,0.0,-1.596,-1.6374,-1.6374,-1.6374,-1.5939,-1.5028,0.0,0.0,0.0,0.0,0.0,0.0,0.0,0.0,0.0,0.0,0.0,0.0,0.0,0.0,0.0,0.0,0.0,0.0,0.0,0.0,0.0,0.0,0.0,0.0,0.0,0.0,0.0,0.0,0.0,0.0,0.0,0.0,0.0,0.0,0.0,0.0,0.0,0.0,0.0,0.0,0.0,0.0,0.0,0.0,0.0,0.0,0.0,0.0,0.0,0.0,0.0,0.0,0.0,0.0,0.0,0.0,0.0,0.0,0.0,0.0,0.0,0.0,0.0,0.0,0.0,0.0,0.0,0.0,0.0,0.0,0.0,0.0,0.0,0.0,0.0,0.0,0.0,0.0,0.0,0.0,0.0,0.0,0.0,0.0,0.0,0.0,0.0,0.0,0.0,0.0,0.0,0.0,0.0,0.0,0.0,0.0,0.0,0.0,0.0,0.0,0.0,0.0,0.0,0.0,0.0,0.0,0.0,0.0,-1.5649,-1.6125,-1.6374,-1.6374,-1.6374,-1.5939,0.0,0.0,0.0,0.0,0.0,0.0,0.0,0.0,0.0,0.0,0.0,0.0,0.0,0.0,0.0,0.0,0.0,0.0,0.0,0.0,0.0,0.0,0.0,0.0,0.0,0.0,0.0,0.0,0.0,0.0,0.0,0.0,0.0,0.0,0.0,0.0,0.0,0.0,0.0,0.0,0.0,0.0,0.0,0.0,0.0,0.0,0.0,0.0,0.0,0.0,0.0,0.0,0.0,0.0,0.0,0.0,0.0,0.0,0.0,0.0,0.0,0.0,0.0,0.0,0.0,0.0,0.0,0.0,0.0,0.0,0.0,0.0,0.0,0.0,0.0,0.0,0.0,0.0,0.0,0.0,0.0,0.0,0.0,0.0,0.0,0.0,0.0,0.0,0.0,0.0,0.0,0.0,0.0,0.0,0.0,0.0,0.0,0.0,0.0,0.0,0.0,0.0,0.0,0.0,0.0,0.0,0.0,0.0,0.0,-1.5711,-1.6146,-1.6374,-1.6374,-1.6374,-1.5939,0.0,0.0,0.0,0.0,0.0,0.0,0.0,0.0,0.0,0.0,0.0,0.0,0.0,0.0,0.0,0.0,0.0,0.0,0.0,0.0,0.0,0.0,0.0,0.0,0.0,0.0,0.0,0.0,0.0,0.0,0.0,0.0,0.0,0.0,0.0,0.0,0.0,0.0,0.0,0.0,0.0,0.0,0.0,0.0,0.0,0.0,0.0,0.0,0.0,0.0,0.0,0.0,0.0,0.0,0.0,0.0,0.0,0.0,0.0,0.0,0.0,0.0,0.0,0.0,0.0,0.0,0.0,0.0,0.0,0.0,0.0,0.0,0.0,0.0,0.0,0.0,0.0,0.0,0.0,0.0,0.0,0.0,0.0,0.0,0.0,0.0,0.0,0.0,0.0,0.0,0.0,0.0,0.0,0.0,0.0,0.0,0.0,0.0,0.0,0.0,0.0,0.0,0.0,0.0,0.0,0.0,0.0,0.0,0.0,-1.6125,-1.6581,-1.6746,-1.6601,-1.6601,-1.6167,0.0,0.0,0.0,0.0,0.0,0.0,0.0,0.0,0.0,0.0,0.0,0.0,0.0,0.0,0.0,0.0,0.0,0.0,0.0,0.0,0.0,0.0,0.0,0.0,0.0,0.0,0.0,0.0,0.0,0.0,0.0,0.0,0.0,0.0,0.0,0.0,0.0,0.0,0.0,0.0,0.0,0.0,0.0,0.0,0.0,0.0,0.0,0.0,0.0,0.0,0.0,0.0,0.0,0.0,0.0,0.0,0.0,0.0,0.0,0.0,0.0,0.0,0.0,0.0,0.0,0.0,0.0,0.0,0.0,0.0,0.0,0.0,0.0,0.0,0.0,0.0,0.0,0.0,0.0,0.0,0.0,0.0,0.0,0.0,0.0,0.0,0.0,0.0,0.0,0.0,0.0,0.0,0.0,0.0,0.0,0.0,0.0,0.0,0.0,0.0,0.0,0.0,0.0,0.0,0.0,0.0,0.0,0.0,-1.6167,-1.6956,-1.741,-1.741,-1.6997,-1.6977,-1.6543,0.0,0.0,0.0,0.0,0.0,0.0,0.0,0.0,0.0,0.0,0.0,0.0,0.0,0.0,0.0,0.0,0.0,0.0,0.0,0.0,0.0,0.0,0.0,0.0,0.0,0.0,0.0,0.0,0.0,0.0,0.0,0.0,0.0,0.0,0.0,0.0,0.0,0.0,0.0,0.0,0.0,0.0,0.0,0.0,0.0,0.0,0.0,0.0,0.0,0.0,0.0,0.0,0.0,0.0,0.0,0.0,0.0,0.0,0.0,0.0,0.0,0.0,0.0,0.0,0.0,0.0,0.0,0.0,0.0,0.0,0.0,0.0,0.0,0.0,0.0,0.0,0.0,0.0,0.0,0.0,0.0,0.0,0.0,0.0,0.0,0.0,0.0,0.0,0.0,0.0,0.0,0.0,0.0,0.0,0.0,0.0,0.0,0.0,0.0,0.0,0.0,0.0,0.0,0.0,0.0,0.0,0.0,0.0,0.0,-1.7349,-1.7348,-1.7286,-1.7144,-1.684,-1.6453,0.0,0.0,0.0,0.0,0.0,0.0,0.0,0.0,0.0,0.0,0.0,0.0,0.0,0.0,0.0,0.0,0.0,0.0,0.0,0.0,0.0,0.0,0.0,0.0,0.0,0.0,0.0,0.0,0.0,0.0,0.0,0.0,0.0,0.0,0.0,0.0,0.0,0.0,0.0,0.0,0.0,0.0,0.0,0.0,0.0,0.0,0.0,0.0,0.0,0.0,0.0,0.0,0.0,0.0,0.0,0.0,0.0,0.0,0.0,0.0,0.0,0.0,0.0,0.0,0.0,0.0,0.0,0.0,0.0,0.0,0.0,0.0,0.0,0.0,0.0,0.0,0.0,0.0,0.0,0.0,0.0,0.0,0.0,0.0,0.0,0.0,0.0,0.0,0.0,0.0,0.0,0.0,0.0,0.0,0.0,0.0,0.0,0.0,0.0,0.0,0.0,0.0,0.0,0.0,0.0,0.0,0.0,0.0,0.0,-1.8536,-1.8308,-1.8001,-1.768,-1.7379,-1.692,-1.6272,0.0,0.0,0.0,0.0,0.0,0.0,0.0,0.0,0.0,0.0,0.0,0.0,0.0,0.0,0.0,0.0,0.0,0.0,0.0,0.0,0.0,0.0,0.0,0.0,0.0,0.0,0.0,0.0,0.0,0.0,0.0,0.0,0.0,0.0,0.0,0.0,0.0,0.0,0.0,0.0,0.0,0.0,0.0,0.0,0.0,0.0,0.0,0.0,0.0,0.0,0.0,0.0,0.0,0.0,0.0,0.0,0.0,0.0,0.0,0.0,0.0,0.0,0.0,0.0,0.0,0.0,0.0,0.0,0.0,0.0,0.0,0.0,0.0,0.0,0.0,0.0,0.0,0.0,0.0,0.0,0.0,0.0,0.0,0.0,0.0,0.0,0.0,0.0,0.0,0.0,0.0,0.0,0.0,0.0,0.0,0.0,0.0,0.0,0.0,0.0,0.0,0.0,0.0,0.0,0.0,0.0,0.0,0.0,-2.0187,-1.9979,-1.9433,-1.8622,-1.8542,-1.7921,0.0,0.0,0.0,0.0,0.0,0.0,0.0,0.0,0.0,0.0,0.0,0.0,0.0,0.0,0.0,0.0,0.0,0.0,0.0,0.0,0.0,0.0,0.0,0.0,0.0,0.0,0.0,0.0,0.0,0.0,0.0,0.0,0.0,0.0,0.0,0.0,0.0,0.0,0.0,0.0,0.0,0.0,0.0,0.0,0.0,0.0,0.0,0.0,0.0,0.0,0.0,0.0,0.0,0.0,0.0,0.0,0.0,0.0,0.0,0.0,0.0,0.0,0.0,0.0,0.0,0.0,0.0,0.0,0.0,0.0,0.0,0.0,0.0,0.0,0.0,0.0,0.0,0.0,0.0,0.0,0.0,0.0,0.0,0.0,0.0,0.0,0.0,0.0,0.0,0.0,0.0,0.0,0.0,0.0,0.0,0.0,0.0,0.0,0.0,0.0,0.0,0.0,0.0,0.0,0.0,0.0,0.0,0.0,0.0,-2.0468,-2.0343,-2.0058,-1.9527,-1.8951,-1.8301,0.0,0.0,0.0,0.0,0.0,0.0,0.0,0.0,0.0,0.0,0.0,0.0,0.0,0.0,0.0,0.0,0.0,0.0,0.0,0.0,0.0,0.0,0.0,0.0,0.0,0.0,0.0,0.0,0.0,0.0,0.0,0.0,0.0,0.0,0.0,0.0,0.0,0.0,0.0,0.0,0.0,0.0,0.0,0.0,0.0,0.0,0.0,0.0,0.0,0.0,0.0,0.0,0.0,0.0,0.0,0.0,0.0,0.0,0.0,0.0,0.0,0.0,0.0,0.0,0.0,0.0,0.0,0.0,0.0,0.0,0.0,0.0,0.0,0.0,0.0,0.0,0.0,0.0,0.0,0.0,0.0,0.0,0.0,0.0,0.0,0.0,0.0,0.0,0.0,0.0,0.0,0.0,0.0,0.0,0.0,0.0,0.0,0.0,0.0,0.0,0.0,0.0,0.0,0.0,0.0,0.0,0.0,0.0,-2.0859,-2.1559,-2.1541,-2.1446,-2.1209,-1.9698,-1.8701,0.0,0.0,0.0,0.0,0.0,0.0,0.0,0.0,0.0,0.0,0.0,0.0,0.0,0.0,0.0,0.0,0.0,0.0,0.0,0.0,0.0,0.0,0.0,0.0,0.0,0.0,0.0,0.0,0.0,0.0,0.0,0.0,0.0,0.0,0.0,0.0,0.0,0.0,0.0,0.0,0.0,0.0,0.0,0.0,0.0,0.0,0.0,0.0,0.0,0.0,0.0,0.0,0.0,0.0,0.0,0.0,0.0,0.0,0.0,0.0,0.0,0.0,0.0,0.0,0.0,0.0,0.0,0.0,0.0,0.0,0.0,0.0,0.0,0.0,0.0,0.0,0.0,0.0,0.0,0.0,0.0,0.0,0.0,0.0,0.0,0.0,0.0,0.0,0.0,0.0,0.0,0.0,0.0,0.0,0.0,0.0,0.0,0.0,0.0,0.0,0.0,0.0,0.0,0.0,0.0,0.0,0.0,0.0,-2.1396,-2.2744,-2.289,-2.2978,-2.2882,-2.0623,-1.9124,0.0,0.0,0.0,0.0,0.0,0.0,0.0,0.0,0.0,0.0,0.0,0.0,0.0,0.0,0.0,0.0,0.0,0.0,0.0,0.0,0.0,0.0,0.0,0.0,0.0,0.0,0.0,0.0,0.0,0.0,0.0,0.0,0.0,0.0,0.0,0.0,0.0,0.0,0.0,0.0,0.0,0.0,0.0,0.0,0.0,0.0,0.0,0.0,0.0,0.0,0.0,0.0,0.0,0.0,0.0,0.0,0.0,0.0,0.0,0.0,0.0,0.0,0.0,0.0,0.0,0.0,0.0,0.0,0.0,0.0,0.0,0.0,0.0,0.0,0.0,0.0,0.0,0.0,0.0,0.0,0.0,0.0,0.0,0.0,0.0,0.0,0.0,0.0,0.0,0.0,0.0,0.0,0.0,0.0,0.0,0.0,0.0,0.0,0.0,0.0,0.0,0.0,0.0,0.0,0.0,0.0,0.0,0.0,-2.0857,-2.2244,-2.191,-2.1928,-2.2353,-2.1305,-2.0332,0.0,0.0,0.0,0.0,0.0,0.0,0.0,0.0,0.0,0.0,0.0,0.0,0.0,0.0,0.0,0.0,0.0,0.0,0.0,0.0,0.0,0.0,0.0,0.0,0.0,0.0,0.0,0.0,0.0,0.0,0.0,0.0,0.0,0.0,0.0,0.0,0.0,0.0,0.0,0.0,0.0,0.0,0.0,0.0,0.0,0.0,0.0,0.0,-1.8207,0.0,0.0,0.0,0.0,0.0,0.0,0.0,0.0,0.0,0.0,0.0,0.0,0.0,0.0,0.0,0.0,0.0,0.0,0.0,0.0,0.0,0.0,0.0,0.0,0.0,0.0,0.0,0.0,0.0,0.0,0.0,0.0,0.0,0.0,0.0,0.0,0.0,0.0,0.0,0.0,0.0,0.0,0.0,0.0,0.0,0.0,0.0,0.0,0.0,0.0,0.0,0.0,0.0,0.0,0.0,0.0,0.0,0.0,0.0,-2.1569,-2.2532,-2.2209,-2.1931,-2.1795,-2.1471,-2.1059,0.0,0.0,0.0,0.0,0.0,0.0,0.0,0.0,0.0,0.0,0.0,0.0,0.0,0.0,0.0,0.0,0.0,0.0,0.0,0.0,0.0,0.0,0.0,0.0,0.0,0.0,0.0,0.0,0.0,0.0,0.0,0.0,0.0,0.0,0.0,0.0,0.0,0.0,0.0,0.0,0.0,0.0,0.0,0.0,0.0,0.0,0.0,0.0,0.0,0.0,0.0,0.0,0.0,0.0,0.0,0.0,0.0,0.0,0.0,0.0,0.0,0.0,0.0,0.0,0.0,0.0,0.0,0.0,0.0,0.0,0.0,0.0,0.0,0.0,0.0,0.0,0.0,0.0,0.0,0.0,0.0,0.0,0.0,0.0,0.0,0.0,0.0,0.0,0.0,0.0,0.0,0.0,0.0,0.0,0.0,0.0,0.0,0.0,0.0,0.0,0.0,0.0,0.0,0.0,0.0,0.0,0.0,-2.1752,-2.2392,-2.322,-2.2775,-2.2214,-2.1525,-2.1564,-2.1478,-2.1504,0.0,0.0,0.0,0.0,0.0,0.0,0.0,0.0,0.0,0.0,0.0,0.0,0.0,0.0,0.0,0.0,0.0,0.0,0.0,0.0,0.0,0.0,0.0,0.0,0.0,0.0,0.0,0.0,0.0,0.0,0.0,0.0,0.0,0.0,0.0,0.0,0.0,0.0,-1.6981,-1.7946,0.0,0.0,0.0,0.0,0.0,0.0,0.0,0.0,-1.9915,0.0,0.0,0.0,0.0,0.0,0.0,0.0,0.0,0.0,0.0,0.0,0.0,0.0,0.0,0.0,0.0,0.0,0.0,0.0,0.0,0.0,0.0,0.0,0.0,0.0,0.0,0.0,0.0,0.0,0.0,0.0,0.0,0.0,0.0,0.0,0.0,0.0,0.0,0.0,0.0,0.0,0.0,0.0,0.0,0.0,0.0,0.0,0.0,0.0,0.0,0.0,0.0,0.0,0.0,0.0,0.0,-2.1769,-2.0616,-2.1268,-2.3852,-2.2146,-2.1511,-2.2079,-2.1882,-2.162,-2.1485,0.0,0.0,0.0,0.0,0.0,0.0,0.0,0.0,0.0,0.0,0.0,0.0,0.0,0.0,0.0,0.0,0.0,0.0,0.0,0.0,0.0,0.0,0.0,0.0,0.0,0.0,0.0,0.0,0.0,0.0,0.0,0.0,0.0,0.0,0.0,0.0,0.0,0.0,0.0,-1.8934,-1.9568,0.0,0.0,0.0,0.0,0.0,0.0,0.0,0.0,-2.0332,0.0,0.0,0.0,0.0,0.0,0.0,0.0,0.0,0.0,0.0,0.0,0.0,0.0,0.0,0.0,0.0,0.0,0.0,0.0,0.0,0.0,0.0,0.0,0.0,0.0,0.0,0.0,0.0,0.0,0.0,0.0,0.0,0.0,0.0,0.0,0.0,0.0,0.0,0.0,0.0,0.0,0.0,0.0,0.0,0.0,0.0,0.0,0.0,0.0,0.0,0.0,0.0,0.0,0.0,0.0,-2.159,-2.1682,-2.2042,-2.2825,-2.1941,-2.1233,-2.1043,-2.1159,-2.0916,0.0,0.0,0.0,0.0,0.0,0.0,0.0,0.0,0.0,0.0,0.0,0.0,0.0,0.0,0.0,0.0,0.0,0.0,0.0,0.0,0.0,0.0,0.0,0.0,0.0,0.0,0.0,0.0,0.0,0.0,0.0,0.0,0.0,0.0,0.0,0.0,0.0,0.0,0.0,0.0,-1.9851,-2.0624,-2.1172,0.0,0.0,0.0,0.0,0.0,0.0,-2.1719,-2.1426,0.0,0.0,0.0,0.0,0.0,0.0,0.0,0.0,0.0,0.0,0.0,0.0,0.0,0.0,0.0,0.0,0.0,0.0,0.0,0.0,0.0,0.0,0.0,0.0,0.0,0.0,0.0,0.0,0.0,0.0,0.0,0.0,0.0,0.0,0.0,0.0,0.0,0.0,0.0,0.0,0.0,0.0,0.0,0.0,0.0,0.0,0.0,0.0,0.0,0.0,0.0,0.0,0.0,0.0,0.0,-2.151,-2.242,-2.2656,-2.2199,-2.1711,-2.1094,-2.0375,-2.0435,-2.0109,0.0,0.0,0.0,0.0,0.0,0.0,0.0,0.0,0.0,0.0,0.0,0.0,0.0,0.0,0.0,0.0,0.0,0.0,0.0,0.0,0.0,0.0,0.0,0.0,0.0,0.0,0.0,0.0,0.0,0.0,0.0,0.0,0.0,0.0,0.0,0.0,0.0,0.0,0.0,0.0,0.0,-2.168,-2.2519,-2.2793,0.0,0.0,0.0,0.0,-2.2891,-2.2832,0.0,0.0,0.0,0.0,0.0,0.0,0.0,0.0,0.0,0.0,0.0,0.0,0.0,0.0,0.0,0.0,0.0,0.0,0.0,0.0,0.0,0.0,0.0,0.0,0.0,0.0,0.0,0.0,0.0,0.0,0.0,0.0,0.0,0.0,0.0,0.0,0.0,0.0,0.0,0.0,0.0,0.0,0.0,0.0,0.0,0.0,0.0,0.0,0.0,0.0,0.0,0.0,0.0,0.0,0.0,0.0,-2.1258,-2.0744,-2.133,-2.3051,-2.1403,-2.0888,-2.1979,-2.0559,-1.9819,0.0,0.0,0.0,0.0,0.0,0.0,0.0,0.0,0.0,0.0,0.0,0.0,0.0,0.0,0.0,0.0,0.0,0.0,0.0,0.0,0.0,0.0,0.0,0.0,0.0,0.0,0.0,0.0,0.0,0.0,0.0,0.0,0.0,0.0,0.0,0.0,0.0,0.0,0.0,0.0,0.0,-2.2129,-2.2969,-2.373,-2.4199,0.0,0.0,-2.4199,-2.4199,-2.3887,0.0,0.0,0.0,0.0,0.0,0.0,0.0,0.0,0.0,0.0,0.0,0.0,0.0,0.0,0.0,0.0,0.0,0.0,0.0,0.0,0.0,0.0,0.0,0.0,0.0,0.0,0.0,0.0,0.0,0.0,0.0,0.0,0.0,0.0,0.0,0.0,0.0,0.0,0.0,0.0,0.0,0.0,0.0,0.0,0.0,0.0,0.0,0.0,0.0,0.0,0.0,0.0,0.0,0.0,0.0,-1.912,-2.05,-2.082,-2.1402,-2.2166,-2.1227,-2.1077,-2.1647,-2.055,-1.9761,0.0,0.0,0.0,0.0,0.0,0.0,0.0,0.0,0.0,0.0,0.0,0.0,0.0,0.0,0.0,0.0,0.0,0.0,0.0,0.0,0.0,0.0,0.0,0.0,0.0,0.0,0.0,0.0,0.0,0.0,0.0,0.0,0.0,0.0,0.0,0.0,0.0,0.0,0.0,0.0,0.0,0.0,-2.4512,-2.4941,0.0,0.0,0.0,-2.4707,-2.4453,0.0,0.0,0.0,0.0,0.0,0.0,0.0,0.0,0.0,0.0,0.0,0.0,0.0,0.0,0.0,0.0,0.0,0.0,0.0,0.0,0.0,0.0,0.0,0.0,0.0,0.0,0.0,0.0,0.0,0.0,0.0,0.0,0.0,0.0,0.0,0.0,0.0,0.0,0.0,0.0,0.0,0.0,0.0,0.0,0.0,0.0,0.0,0.0,0.0,0.0,0.0,0.0,0.0,0.0,0.0,0.0,0.0,-1.9985,-2.1064,-2.1471,-2.1189,-2.1203,-2.1203,-2.1203,-2.0662,0.0,0.0,0.0,0.0,0.0,0.0,0.0,0.0,0.0,0.0,0.0,0.0,0.0,0.0,0.0,0.0,0.0,0.0,0.0,0.0,0.0,0.0,0.0,0.0,0.0,0.0,0.0,-1.4924,0.0,0.0,0.0,0.0,0.0,0.0,0.0,0.0,0.0,0.0,0.0,0.0,0.0,0.0,-2.4707,-2.5449,-2.5762,-2.5859,0.0,0.0,-2.5117,-2.4805,-2.5019,-2.4883,0.0,0.0,0.0,0.0,0.0,0.0,0.0,0.0,0.0,0.0,0.0,0.0,0.0,0.0,0.0,0.0,0.0,0.0,0.0,0.0,0.0,0.0,0.0,0.0,0.0,0.0,0.0,0.0,0.0,0.0,0.0,0.0,0.0,0.0,0.0,0.0,0.0,0.0,0.0,0.0,0.0,0.0,0.0,0.0,0.0,0.0,0.0,0.0,0.0,0.0,0.0,0.0,0.0,0.0,0.0,-2.0136,-2.087,-2.1274,-2.1203,-2.1203,-2.1203,-2.1203,-2.0867,-2.0369,0.0,0.0,0.0,0.0,0.0,0.0,0.0,0.0,0.0,0.0,0.0,0.0,0.0,0.0,0.0,0.0,0.0,0.0,0.0,0.0,0.0,0.0,0.0,0.0,0.0,0.0,0.0,0.0,0.0,0.0,0.0,0.0,0.0,0.0,0.0,0.0,0.0,0.0,0.0,0.0,0.0,-2.459,-2.5059,-2.582,-2.6211,0.0,0.0,-2.5684,-2.5644,-2.5664,-2.5527,-2.5019,0.0,0.0,0.0,0.0,0.0,0.0,0.0,0.0,0.0,0.0,0.0,0.0,0.0,0.0,0.0,0.0,0.0,0.0,0.0,0.0,0.0,0.0,0.0,0.0,0.0,0.0,0.0,0.0,0.0,0.0,0.0,0.0,0.0,0.0,0.0,0.0,0.0,0.0,0.0,0.0,0.0,0.0,0.0,0.0,0.0,0.0,0.0,0.0,0.0,0.0,0.0,0.0,0.0,-1.9214,-1.9968,-2.072,-2.1306,-2.1496,-2.1306,-2.1306,-2.1511,-2.0998,-2.0413,0.0,0.0,0.0,0.0,0.0,0.0,0.0,0.0,0.0,0.0,0.0,0.0,0.0,0.0,0.0,0.0,0.0,0.0,0.0,0.0,0.0,0.0,0.0,0.0,0.0,0.0,0.0,0.0,-1.8711,-1.9097,-1.9276,0.0,0.0,0.0,0.0,0.0,0.0,0.0,0.0,0.0,0.0,-2.5781,-2.6211,-2.6777,0.0,0.0,-2.6309,-2.6034,-2.5935,-2.5604,-2.5295,-2.487,-2.4542,0.0,0.0,0.0,0.0,0.0,0.0,0.0,0.0,0.0,0.0,0.0,0.0,0.0,0.0,0.0,0.0,0.0,0.0,0.0,0.0,0.0,0.0,0.0,0.0,0.0,0.0,0.0,0.0,0.0,0.0,0.0,0.0,0.0,0.0,0.0,0.0,0.0,0.0,0.0,0.0,0.0,0.0,0.0,0.0,0.0,0.0,0.0,0.0,0.0,0.0,0.0,0.0,-1.9447,-1.9901,-2.0955,-2.1569,-2.1686,-2.1569,-2.1554,-2.1686,-2.1247,-2.0706,0.0,0.0,0.0,0.0,0.0,0.0,0.0,0.0,0.0,0.0,0.0,0.0,0.0,0.0,0.0,0.0,0.0,0.0,0.0,0.0,0.0,0.0,0.0,0.0,0.0,0.0,0.0,0.0,-1.9448,-1.9618,-1.9385,0.0,0.0,0.0,0.0,0.0,0.0,0.0,0.0,0.0,0.0,-2.6256,-2.6647,-2.6845,-2.675,-2.6557,-2.6251,-2.5958,-2.5857,-2.561,-2.5324,-2.5118,0.0,0.0,0.0,0.0,0.0,0.0,0.0,0.0,0.0,0.0,0.0,0.0,0.0,0.0,0.0,0.0,0.0,0.0,0.0,0.0,0.0,0.0,0.0,0.0,0.0,0.0,0.0,0.0,0.0,0.0,-0.7039,0.0,0.0,0.0,0.0,0.0,0.0,0.0,0.0,0.0,0.0,0.0,0.0,0.0,0.0,0.0,0.0,0.0,0.0,0.0,0.0,0.0,0.0,-2.0208,-2.0252,-2.1496,-2.2008,-2.173,-2.2008,-2.2008,-2.173,-2.1686,-2.1364,-2.0706,0.0,0.0,0.0,0.0,0.0,0.0,0.0,0.0,0.0,0.0,0.0,0.0,0.0,0.0,0.0,0.0,0.0,0.0,0.0,0.0,0.0,0.0,0.0,0.0,0.0,0.0,-1.9344,-1.9734,-1.9816,0.0,0.0,0.0,0.0,0.0,0.0,0.0,0.0,0.0,0.0,-2.4958,-2.5496,-2.605,-2.5569,-2.5272,-2.5313,-2.5344,-2.5344,-2.5326,-2.5533,-2.574,0.0,0.0,0.0,0.0,0.0,0.0,0.0,0.0,0.0,0.0,0.0,0.0,0.0,0.0,0.0,0.0,0.0,0.0,0.0,0.0,0.0,0.0,0.0,0.0,0.0,0.0,0.0,-1.1914,-0.9675,0.0,0.0,0.0,0.0,0.0,0.0,0.0,0.0,0.0,0.0,0.0,-1.7742,-1.848,0.0,0.0,0.0,0.0,0.0,0.0,0.0,0.0,0.0,0.0,0.0,0.0,-2.0442,-2.0896,-2.1745,-2.2228,-2.2301,-2.2228,-2.2228,-2.2315,-2.2125,-2.1715,-2.1072,0.0,0.0,0.0,0.0,0.0,0.0,0.0,0.0,0.0,0.0,0.0,0.0,0.0,0.0,0.0,0.0,0.0,0.0,0.0,0.0,0.0,0.0,0.0,0.0,0.0,-1.8898,0.0,0.0,0.0,0.0,0.0,0.0,0.0,0.0,0.0,0.0,0.0,-2.3772,-2.5252,-2.5618,-2.5605,-2.5729,-2.5863,-2.5757,0.0,0.0,0.0,0.0,0.0,0.0,0.0,0.0,0.0,0.0,0.0,0.0,0.0,0.0,-2.4863,-2.4121,-2.4102,-2.4082,-2.3652,0.0,0.0,0.0,0.0,0.0,0.0,0.0,0.0,0.0,0.0,0.0,0.0,0.0,0.0,0.0,0.0,-1.0942,0.0,0.0,0.0,0.0,0.0,0.0,0.0,0.0,-1.6228,-1.797,-1.9424,-1.9967,-2.0288,0.0,-2.0179,-1.9316,0.0,0.0,0.0,0.0,0.0,0.0,0.0,0.0,-2.0676,-2.1218,-2.1847,-2.2374,-2.2769,-2.271,-2.2769,-2.2945,-2.2564,-2.1962,-2.1205,-2.0482,-1.9932,0.0,0.0,0.0,0.0,0.0,0.0,0.0,0.0,0.0,0.0,0.0,0.0,0.0,0.0,0.0,0.0,0.0,0.0,0.0,0.0,0.0,0.0,0.0,-1.9629,0.0,0.0,0.0,0.0,0.0,0.0,0.0,0.0,0.0,-2.2337,-2.2985,-2.3876,-2.4977,-2.5272,-2.5375,-2.5375,0.0,0.0,0.0,0.0,0.0,0.0,0.0,-2.5523,-2.5198,-2.5523,-2.59,-2.6287,-2.6484,-2.6683,-2.6798,0.0,0.0,-2.547,-2.5547,-2.5605,-2.5195,-2.4928,-2.4775,-2.5022,-2.4526,-2.4406,0.0,0.0,0.0,0.0,0.0,0.0,0.0,0.0,-1.6981,-1.498,0.0,-1.3664,0.0,0.0,0.0,0.0,0.0,0.0,0.0,0.0,-1.9794,-2.0715,-2.0146,-2.0598,-2.0808,-2.0764,-2.0223,-2.0223,-2.0735,-2.0457,0.0,0.0,0.0,0.0,0.0,0.0,-2.0925,-2.1291,-2.1906,-2.252,-2.3106,-2.3442,-2.3603,-2.3588,-2.2988,-2.2141,-2.1329,-2.0985,-2.063,-2.0228,-1.9056,0.0,0.0,0.0,0.0,0.0,0.0,0.0,0.0,0.0,0.0,0.0,0.0,0.0,0.0,0.0,0.0,0.0,0.0,0.0,0.0,-2.0101,0.0,0.0,0.0,0.0,0.0,0.0,0.0,0.0,0.0,0.0,-2.1445,-2.3184,-2.4309,-2.3768,0.0,0.0,0.0,0.0,-2.3921,-2.4727,-2.4977,-2.5094,-2.5194,-2.6007,-2.6451,-2.5857,0.0,0.0,-2.6973,-2.6918,-2.6773,-2.6427,-2.6645,-2.7012,-2.6891,-2.6763,-2.673,-2.6423,-2.5786,-2.5591,-2.616,-2.5153,-2.456,-1.9506,0.0,0.0,0.0,0.0,-1.8189,-1.8441,-1.912,-1.9098,-1.7806,-1.5866,-1.6478,0.0,0.0,0.0,0.0,0.0,0.0,-1.6175,-1.8406,-1.9754,-2.1005,-2.2175,-2.2297,-2.2432,-2.2418,-2.2242,-2.2242,-2.2418,-2.233,-2.1774,-2.0808,0.0,0.0,0.0,0.0,-2.1686,-2.2198,-2.2637,-2.3047,-2.3442,-2.3507,-2.3422,-2.3148,-2.3021,-2.2663,-2.1852,-2.1718,-2.1194,-2.0284,-2.0315,0.0,0.0,0.0,0.0,0.0,0.0,0.0,0.0,0.0,0.0,0.0,0.0,0.0,0.0,0.0,0.0,0.0,0.0,0.0,-1.9918,-2.0074,-2.0165,0.0,0.0,0.0,0.0,0.0,0.0,0.0,0.0,0.0,-2.1156,-2.2104,-2.3135,0.0,0.0,-2.3857,-2.3981,-2.3991,-2.3685,-2.3361,0.0,0.0,0.0,-2.429,-2.476,-2.4525,-2.5078,-2.5493,-2.5391,-2.5835,-2.6013,-2.5908,-2.5978,-2.604,-2.6099,-2.5781,-2.5827,-2.624,-2.6221,-2.6472,-2.7458,-2.7304,-2.7138,-2.113,-2.0369,-1.9652,-1.9623,-2.0003,-1.9755,-2.0311,-2.1364,-2.1174,-2.0118,-1.8525,-1.9326,-1.7741,-1.4469,-1.447,0.0,0.0,0.0,-1.8099,-2.0405,-2.0788,-2.1569,-2.2725,-2.2857,-2.2915,-2.2915,-2.2915,-2.3047,-2.3296,-2.3164,-2.2857,-2.2345,0.0,0.0,-2.1891,-2.1891,-2.2198,-2.2784,-2.3003,-2.3398,-2.3969,-2.4028,-2.3998,-2.3619,-2.3551,-2.3178,-2.2482,-2.2076,-2.1642,-2.0953,-2.0836,-2.0373,0.0,0.0,0.0,0.0,0.0,0.0,0.0,0.0,0.0,0.0,0.0,-1.7037,-1.7902,0.0,0.0,0.0,-1.9664,-1.9911,-2.0293,-2.0338,0.0,0.0,0.0,0.0,0.0,0.0,0.0,-2.1148,-2.1197,-2.1353,-2.1491,-2.193,-2.2528,-2.3399,-2.3535,-2.3598,-2.37,0.0,-2.3993,-2.3656,-2.4024,-2.4392,-2.4163,-2.4652,-2.5003,-2.4759,-2.4621,-2.4727,-2.5214,-2.5561,-2.5803,-2.5803,-2.5803,-2.5803,-2.5923,-2.5261,-2.4972,-2.5831,-2.5769,-2.5881,-2.6995,-2.655,-2.6175,-2.2315,-2.2198,-2.1042,-2.0837,-2.1306,-2.1613,-2.2228,-2.3018,-2.3018,-2.1821,-1.9958,-2.1718,-2.0064,-1.5942,-1.5689,0.0,-1.9127,-1.914,-2.0433,-2.2652,-2.2403,-2.2315,-2.2345,-2.2623,-2.274,-2.274,-2.274,-2.3047,-2.3588,-2.334,-2.3486,-2.4042,-2.3054,-2.2486,-2.2345,-2.2345,-2.2623,-2.3179,-2.3223,-2.3548,-2.4451,-2.4905,-2.4785,-2.448,-2.4199,-2.3643,-2.2939,-2.2139,-2.182,-2.2011,-2.0985,-2.0461,-2.0614,0.0,0.0,0.0,0.0,0.0,0.0,0.0,0.0,0.0,0.0,0.0,0.0,0.0,0.0,0.0,-2.1092,0.0,-2.0837,-2.0837,0.0,0.0,0.0,-2.1376,-2.1873,-2.1662,-2.1609,-2.2007,0.0,0.0,-2.2169,0.0,-2.2303,-2.2275,-2.2932,-2.3642,-2.4007,-2.4074,-2.4389,-2.4743,-2.4963,-2.5107,-2.5114,-2.5642,-2.5866,-2.5595,-2.4849,-2.4516,-2.5514,-2.5785,-2.5832,-2.5769,-2.5848,-2.5817,-2.5976,-2.4985,-2.4471,-2.5374,-2.5025,-2.4789,-2.6213,-2.531,-2.4515,-2.3486,-2.3252,-2.3193,-2.2696,-2.1964,-2.2037,-2.2198,-2.2403,-2.2403,-2.2074,-2.1569,-2.2122,-2.1694,-2.0496,-2.0545,-2.0878,-2.146,-2.1329,-2.1925,-2.2988,-2.2928,-2.3131,-2.3632,-2.3706,-2.3735,-2.3735,-2.3735,-2.3823,-2.3954,-2.3623,-2.3537,-2.3536,-2.3192,-2.3178,-2.3632,-2.3632,-2.3706,-2.3852,-2.3826,-2.3776,-2.369,-2.406,-2.3924,-2.3311,-2.3433,-2.3295,-2.2592,-2.2576,-2.2331,-2.1692,-2.1685,-2.1313,-2.0736,-2.0123,0.0,0.0,0.0,0.0,0.0,0.0,0.0,0.0,0.0,-1.8712,-1.932,0.0,-2.0331,0.0,-2.1642,-2.1832,-2.1464,-2.1715,0.0,0.0,-2.1554,-2.1627,-2.1715,-2.1701,-2.1758,-2.2156,-2.2318,-2.2432,-2.2842,-2.3106,-2.3325,-2.3598,-2.3333,-2.3444,-2.4006,-2.4168,-2.4113,-2.4331,-2.4375,-2.4346,-2.4491,-2.459,-2.4735,-2.459,-2.4346,-2.4216,-2.4476,-2.459,-2.459,-2.459,-2.459,-2.459,-2.4735,-2.4346,-2.4257,-2.4568,-2.5862,-2.7833,-3.0065,-3.0046,-2.9562,-2.358,-2.3307,-2.3479,-2.3164,-2.252,-2.2908,-2.3032,-2.3032,-2.3032,-2.3032,-2.3018,-2.2748,-2.2371,-2.2133,-2.2508,-2.2566,-2.2595,-2.2899,-2.3131,-2.3545,-2.335,-2.3508,-2.3826,-2.3839,-2.3897,-2.3911,-2.4041,-2.4185,-2.418,-2.4046,-2.3983,-2.4111,-2.384,-2.3975,-2.4367,-2.3837,-2.3622,-2.3765,-2.4075,-2.4186,-2.4067,-2.4219,-2.4164,-2.3612,-2.3612,-2.3324,-2.2903,-2.2754,-2.2405,-2.1951,-2.2046,-2.1737,-2.0902,-2.0672,-2.0274,0.0,0.0,0.0,0.0,0.0,0.0,0.0,0.0,0.0,0.0,0.0,-2.0837,-2.1378,-2.1669,-2.189,-2.189,-2.2025,-2.2195,-2.2125,-2.2016,-2.1982,-2.2089,-2.199,-2.2025,-2.2552,-2.2697,-2.2928,-2.3247,-2.3435,-2.3666,-2.3985,-2.3595,-2.3494,-2.4203,-2.416,-2.4072,-2.4216,-2.4113,-2.4113,-2.4245,-2.4378,-2.451,-2.4525,-2.451,-2.4525,-2.451,-2.4525,-2.451,-2.451,-2.451,-2.4775,-2.5287,-2.4892,-2.4907,-2.619,-2.6955,-2.7872,-2.8455,-2.8619,-2.8243,-2.3417,-2.314,-2.314,-2.3154,-2.3154,-2.381,-2.4029,-2.3956,-2.3956,-2.3956,-2.3941,-2.3393,-2.2737,-2.2145,-2.2893,-2.315,-2.3164,-2.3739,-2.4014,-2.4014,-2.3694,-2.3605,-2.3605,-2.3651,-2.3672,-2.3686,-2.3938,-2.4204,-2.4456,-2.447,-2.447,-2.472,-2.472,-2.4734,-2.4679,-2.3663,-2.3273,-2.3537,-2.4066,-2.447,-2.472,-2.4734,-2.4595,-2.4345,-2.4052,-2.3803,-2.3392,-2.2862,-2.2579,-2.2525,-2.2258,-2.1844,-2.1309,-2.1216,-2.0953,0.0,-2.0087,0.0,0.0,0.0,0.0,0.0,0.0,0.0,0.0,-2.1066,-2.141,-2.17,-2.163,-2.1864,-2.221,-2.2181,-2.2276,-2.2508,-2.2291,-2.2295,-2.2509,-2.2328,-2.2328,-2.2993,-2.3178,-2.3307,-2.3551,-2.3505,-2.3662,-2.4023,-2.3799,-2.3771,-2.4361,-2.4361,-2.418,-2.4467,-2.4374,-2.4288,-2.4588,-2.4887,-2.5022,-2.5037,-2.5008,-2.5052,-2.5022,-2.5022,-2.5037,-2.5037,-2.5008,-2.5412,-2.662,-2.5816,-2.5965,-2.7751,-2.7354,-2.6534,-2.5674,-2.555,-2.471,-2.4324,-2.4189,-2.3919,-2.3784,-2.3784,-2.3919,-2.3757,-2.3159,-2.3159,-2.3159,-2.3289,-2.3349,-2.3176,-2.286,-2.3306,-2.3335,-2.2958,-2.312,-2.3273,-2.37,-2.3788,-2.401,-2.4313,-2.447,-2.461,-2.461,-2.4666,-2.4722,-2.4778,-2.451,-2.4268,-2.4337,-2.4181,-2.4052,-2.4039,0.0,0.0,0.0,-2.4327,-2.4268,-2.4039,-2.4052,-2.4025,-2.3971,-2.3816,0.0,-2.3735,-2.3554,-2.3407,-2.3166,-2.2859,0.0,0.0,0.0,0.0,0.0,0.0,0.0,0.0,0.0,0.0,0.0,-2.1128,-2.1182,-2.1007,-2.1556,-2.1984,-2.2332,-2.2187,-2.223,-2.272,-2.2666,-2.2525,-2.2525,-2.2479,-2.2434,-2.251,-2.2434,-2.2628,-2.293,-2.3299,-2.3601,-2.379,-2.3884,-2.4054,-2.4246,-2.4139,-2.4139,-2.4395,-2.4395,-2.4424,-2.4495,-2.4645,-2.4781,-2.4916,-2.4781,-2.4781,-2.4916,-2.4781,-2.4781,-2.5066,-2.5066,-2.5066,-2.5066,-2.5066,-2.5187,-2.5442,-2.5187,-2.5322,-2.5846,-2.5712,-2.6069,-2.7769,-2.8113,-2.7867,-2.4289,0.0,-2.4011,-2.3872,0.0,-2.3872,-2.3694,-2.3393,-2.3495,-2.3356,-2.3223,-2.3509,-2.3444,-2.3188,-2.361,-2.3816,-2.3679,-2.3832,-2.3901,-2.419,-2.408,-2.4231,-2.4371,-2.4382,-2.4323,-2.4323,-2.4323,-2.4391,-2.4528,-2.4412,-2.4336,-2.4485,-2.434,-2.4195,-2.4195,-2.4195,-2.4273,-2.4269,-2.4269,-2.4192,-2.4195,-2.4209,-2.4128,-2.3995,0.0,0.0,0.0,0.0,0.0,0.0,0.0,0.0,0.0,0.0,0.0,-2.2205,-2.2058,-2.1977,-2.1977,-2.1977,-2.1977,-2.1977,-2.2111,-2.2017,-2.1577,-2.1813,-2.2146,-2.243,-2.2318,-2.2394,-2.2946,-2.2849,-2.2697,-2.2688,-2.2538,-2.2435,-2.2456,-2.2545,-2.259,-2.3029,-2.3264,-2.3579,-2.3728,-2.3704,-2.3816,-2.3952,-2.3679,-2.3543,-2.3816,-2.3952,-2.3952,-2.3679,-2.4088,-2.4295,-2.4545,-2.4581,-2.4639,-2.5128,-2.4984,-2.5004,-2.5271,-2.5169,-2.5066,-2.5066,-2.5066,-2.5066,-2.5066,-2.5066,-2.5066,-2.5066,-2.5066,-2.5457,-2.6902,-2.7153,-2.702,-2.4195,-2.391,-2.3768,-2.3781,-2.3781,-2.3781,-2.3781,-2.3741,0.0,0.0,0.0,-2.383,-2.3814,-2.342,-2.4086,-2.4195,-2.4195,-2.4451,-2.4593,-2.4593,-2.4378,-2.4276,-2.4276,-2.4044,-2.3915,-2.3928,-2.3928,-2.4048,-2.4275,-2.4275,-2.4396,-2.4609,-2.4636,-2.4636,-2.4636,-2.4583,-2.4436,-2.4222,-2.4249,-2.4396,-2.4623,-2.4636,-2.4516,-2.4289,-2.4275,-2.4168,-2.3928,-2.3928,-2.3901,-2.3848,-2.3848,-2.3714,-2.3434,-2.3407,-2.3287,-2.3046,-2.302,-2.302,-2.302,-2.302,-2.2993,-2.2953,-2.2993,-2.2766,-2.2178,-2.2098,-2.2178,-2.2472,-2.2405,-2.2512,-2.2875,-2.2848,-2.2873,-2.2946,-2.28,-2.2535,-2.2549,-2.2472,-2.2633,-2.293,-2.3107,-2.3406,-2.3393,-2.3393,-2.327,-2.3406,-2.3133,-2.2996,-2.327,-2.3406,-2.3406,-2.327,-2.3679,-2.3762,-2.3942,-2.4257,-2.4724,-2.5207,-2.507,-2.5033,-2.5193,-2.5091,-2.5066,-2.4916,-2.5052,-2.5066,-2.5066,-2.5066,-2.5066,-2.5066,-2.5066,-2.5066,-2.5066,-2.5066,-2.5187,-2.4195,-2.4195,-2.391,-2.3781,-2.3781,-2.3781,-2.3781,-2.3768,-2.3816,-2.3789,-2.3789,-2.4099,-2.3985,-2.3714,-2.4167,-2.4195,-2.391,-2.391,-2.391,0.0,-2.4165,-2.4286,-2.4155,-2.4396,-2.4516,-2.4516,-2.4516,-2.4543,-2.4569,-2.4569,-2.4596,-2.4623,-2.4636,-2.4636,-2.4609,-2.4396,-2.4249,-2.4209,-2.4449,-2.4596,-2.4636,-2.4636,-2.4609,-2.4583,-2.4569,-2.4556,-2.4516,-2.4502,-2.4396,-2.4155,-2.4142,-2.4008,-2.3728,-2.3714,-2.3688,-2.3647,-2.3647,-2.3647,-2.3634,-2.3647,-2.3527,-2.33,-2.35,-2.3394,-2.2792,-2.2498,-2.2485,-2.2752,-2.2378,-2.2258,-2.2835,-2.27,-2.2647,-2.2821,-2.2862,-2.2875,-2.2848,-2.2875,-2.2779,-2.2916,-2.2969,-2.3133,-2.327,-2.3133,-2.3133,-2.327,-2.3174,-2.3023,-2.3023,-2.327,-2.3543,-2.3816,-2.4088,-2.4388,-2.4408,-2.4431,-2.4639,-2.5033,-2.4653,-2.4474,-2.4847,-2.4789,-2.4717,-2.466,-2.4989,-2.511,-2.5096,-2.5066,-2.5096,-2.511,-2.5096,-2.5081,-2.5066,-2.5066,-2.5066,-2.4526,-2.438,-2.4235,-2.4235,-2.4235,-2.4235,-2.4235,-2.4235,-2.4235,-2.4048,-2.3794,-2.4071,-2.4152,-2.4022,-2.4313,-2.438,-2.4235,-2.4235,-2.4235,-2.4249,-2.4382,-2.4436,-2.4449,-2.4583,-2.4636,-2.4636,-2.4636,-2.4636,-2.4636,-2.4636,-2.4636,-2.4636,-2.4636,-2.4636,-2.4623,-2.4502,-2.4436,-2.4436,-2.4422,-2.4409,-2.4409,-2.4556,-2.4569,-2.4409,-2.4543,-2.4556,-2.4409,-2.4556,-2.4569,-2.4436,-2.4436,-2.4369,-2.4249,-2.4249,-2.4235,-2.4235,-2.4235,-2.4249,-2.4235,-2.4235,-2.4115,-2.3834,-2.3781,-2.3661,-2.338,-2.3086,-2.2966,-2.3086,-2.2712,-2.2565,-2.2832,-2.2739,-2.2712,-2.2846,-2.2859,-2.2859,-2.2859,-2.2859,-2.2859,-2.2859,-2.2859,-2.2996,-2.3133,-2.2996,-2.2859,-2.3147,-2.3131,-2.3113,-2.3126,-2.3386,-2.3566,-2.3707,-2.3804,-2.3969,-2.433,-2.4428,-2.4624,-2.5045,-2.496,-2.4986,-2.5197,-2.5293,-2.5302,-2.5302,-2.5426,-2.5579,-2.5564,-2.5579,-2.5505,-2.533,-2.5315,-2.5271,-2.5125,-2.5066,-2.5066,-2.4636,-2.4636,-2.4636,-2.4636,-2.4636,-2.4636,-2.4636,-2.4636,-2.4623,-2.4382,-2.4035,-2.4209,-2.4302,-2.4329,-2.4529,-2.4636,-2.4636,-2.4636,-2.4636,-2.4636,-2.4636,-2.4636,-2.4636,-2.4636,-2.4636,-2.4636,-2.4636,-2.4636,-2.4636,-2.4636,-2.4636,-2.4636,-2.4636,-2.4636,-2.4636,-2.4569,-2.4543,-2.4529,-2.4315,-2.4235,-2.4302,-2.4516,-2.4529,-2.4342,-2.4516,-2.4529,-2.4329,-2.4516,-2.4636,-2.4636,-2.4636,-2.4636,-2.4636,-2.4636,-2.4636,-2.4636,-2.4636,-2.4636,-2.4636,-2.4636,-2.4516,-2.4222,-2.3995,-2.3875,-2.3834,-2.3527,-2.3354,-2.3367,-2.3073,-2.2873,-2.2953,-2.2886,-2.2859,-2.2859,-2.2859,-2.2859,-2.2859,-2.2859,-2.2859,-2.2859,-2.2859,-2.2886,-2.2939,-2.2966,-2.3006,-2.3126,-2.3287,-2.342,-2.346,-2.3634,-2.3803,-2.3722,-2.3601,-2.3836,-2.4296,-2.4602,-2.4929,-2.5271,-2.5327,-2.5399,-2.5626,-2.5838,-2.5892,-2.5833,-2.5848,-2.5959,-2.5988,-2.5988,-2.5886,-2.5681,-2.5637,-2.5564,-2.5388,-2.533,-2.5213,-2.4636,-2.4636,-2.4636,-2.4636,-2.4636,-2.4636,-2.4636,-2.4636,-2.4636,-2.4623,-2.4529,-2.4583,-2.4583,-2.4596,-2.4623,-2.4636,-2.4636,-2.4636,-2.4636,-2.4636,-2.4636,-2.4636,-2.4636,-2.4636,-2.4636,-2.4636,-2.4636,-2.4636,-2.4636,-2.4636,-2.4636,-2.4636,-2.4636,-2.4636,-2.4609,-2.4382,-2.4249,-2.4249,-2.4222,-2.4329,-2.4583,-2.4623,-2.4623,-2.4596,-2.4623,-2.4623,-2.4556,-2.4623,-2.4636,-2.4636,-2.4636,-2.4636,-2.4636,-2.4636,-2.4636,-2.4636,-2.4636,-2.4636,-2.4636,-2.4636,-2.4502,-2.4249,-2.4168,-2.4155,-2.4128,-2.3647,-2.3447,-2.3607,-2.322,-2.2979,-2.322,-2.302,-2.2873,-2.2913,-2.2899,-2.2859,-2.2899,-2.2859,-2.2859,-2.2859,-2.2939,-2.2966,-2.3233,-2.3287,-2.338,-2.3695,-2.3803,-2.387,-2.387,-2.4066,-2.4344,-2.4556,-2.4602,-2.4748,-2.486,-2.5356,-2.5598,-2.5783,-2.5682,-2.5711,-2.5626,-2.5739,-2.561,-2.5924,-2.5964,-2.612,-2.6091,-2.6018,-2.6047,-2.6003,-2.5959,-2.593,-2.5915,-2.5871,-2.5681,-2.4636,-2.4636,-2.4636,-2.4636,-2.4636,-2.4636,-2.4636,-2.4636,-2.4636,-2.4636,-2.4636,-2.4636,-2.4636,-2.4636,-2.4636,-2.4636,-2.4636,-2.4636,-2.4636,-2.4636,-2.4636,-2.4636,-2.4636,-2.4636,-2.4636,-2.4636,-2.4636,-2.4636,-2.4636,-2.4636,-2.4636,-2.4636,-2.4636,-2.4636,-2.4623,-2.4516,-2.4543,-2.4716,-2.4716,-2.4863,-2.5077,-2.481,-2.4556,-2.4422,-2.4543,-2.4543,-2.4422,-2.4529,-2.4636,-2.4636,-2.4636,-2.4636,-2.4636,-2.4636,-2.4636,-2.4636,-2.4636,-2.4636,-2.4636,-2.4636,-2.4436,-2.3981,-2.4115,-2.4209,-2.4182,-2.3821,-2.3834,-2.4302,-2.3527,-2.2926,-2.3046,-2.2939,-2.2939,-2.3086,-2.314,-2.3207,-2.338,-2.3394,-2.3394,-2.3394,-2.3407,-2.3434,-2.3554,-2.3722,-2.3904,-2.4181,-2.446,-2.4597,-2.4453,-2.4589,-2.4752,-2.4688,-2.4925,-2.516,-2.5408,-2.571,-2.584,-2.5855,-2.6013,-2.6013,-2.5984,-2.6301,-2.6459,-2.6286,-2.6401,-2.6544,-2.6632,-2.6574,-2.6559,-2.6398,-2.6105,-2.6018,-2.6018,-2.6018,-2.5857,-2.4636,-2.4636,-2.4636,-2.4636,-2.4636,-2.4636,-2.4636,-2.4636,-2.4636,-2.4636,-2.4636,-2.4636,-2.4636,-2.4636,-2.4636,-2.4636,-2.4636,-2.4636,-2.4636,-2.4636,-2.4636,-2.4636,-2.4636,-2.4636,-2.4636,-2.4636,-2.4636,-2.4636,-2.4649,-2.473,-2.4756,-2.477,-2.4836,-2.4877,-2.4877,-2.4877,-2.4983,-2.517,-2.5197,-2.5304,-2.5424,-2.509,-2.477,-2.4596,-2.477,-2.477,-2.4583,-2.477,-2.4877,-2.4877,-2.4877,-2.4877,-2.4877,-2.4877,-2.4877,-2.4877,-2.4877,-2.4877,-2.4877,-2.4877,-2.4663,-2.4222,-2.4329,-2.4449,-2.4396,-2.4182,-2.4302,-2.473,-2.3901,-2.326,-2.3233,-2.3166,-2.3247,-2.3514,-2.3514,-2.3567,-2.3834,-2.3834,-2.3754,-2.3781,-2.3714,-2.3808,-2.3875,-2.4085,-2.4309,-2.448,-2.4761,-2.5043,-2.4911,-2.4929,-2.5065,-2.4931,-2.5212,-2.5506,-2.5653,-2.5744,-2.58,-2.58,-2.605,-2.6182,-2.6385,-2.6677,-2.6983,-2.6663,-2.6939,-2.6969,-2.6866,-2.6896,-2.6925,-2.6691,-2.6442,-2.6281,-2.6369,-2.631,-2.6296,-2.4636,-2.4636,-2.4636,-2.4636,-2.4636,-2.4636,-2.4636,-2.4636,-2.4636,-2.4636,-2.4636,-2.4636,-2.4636,-2.4636,-2.4649,-2.4636,-2.4636,-2.4636,-2.4636,-2.4636,-2.4636,-2.4636,-2.4636,-2.4636,-2.4649,-2.4676,-2.4716,-2.4703,-2.469,-2.493,-2.5064,-2.5077,-2.5291,-2.5451,-2.5424,-2.5411,-2.5464,-2.5491,-2.5491,-2.5518,-2.5531,-2.5504,-2.5464,-2.5438,-2.5451,-2.5411,-2.5411,-2.5451,-2.5464,-2.5464,-2.5438,-2.5451,-2.5451,-2.5451,-2.5438,-2.5438,-2.5451,-2.5451,-2.5438,-2.5424,-2.5291,-2.505,-2.497,-2.5024,-2.4983,-2.4756,-2.4676,-2.469,-2.4422,-2.4142,-2.4115,-2.3848,-2.3834,-2.4102,-2.3928,-2.3955,-2.4182,-2.4088,-2.3808,-2.3848,-2.3901,-2.4008,-2.4182,-2.4422,-2.4649,-2.4676,-2.4583,-2.473,-2.4864,-2.5065,-2.5373,-2.5653,-2.5946,-2.6107,-2.552,-2.58,-2.5946,-2.5946,-2.6093,-2.6093,-2.6239,-2.6385,-2.6706,-2.6852,-2.6998,-2.6998,-2.6998,-2.6983,-2.6983,-2.6896,-2.6881,-2.6808,-2.6705,-2.6881,-2.6852,-2.4636,-2.4636,-2.4636,-2.4636,-2.4636,-2.4636,-2.4636,-2.4636,-2.4636,-2.4636,-2.4636,-2.4636,-2.4636,-2.4649,-2.4836,-2.481,-2.4649,-2.4636,-2.4636,-2.4636,-2.4636,-2.4636,-2.4649,-2.4823,-2.493,-2.4943,-2.5104,-2.5197,-2.5211,-2.5317,-2.5358,-2.5371,-2.5451,-2.5518,-2.5518,-2.5518,-2.5598,-2.5772,-2.5798,-2.5879,-2.6039,-2.6079,-2.6079,-2.6052,-2.5705,-2.5518,-2.5518,-2.5518,-2.5518,-2.5518,-2.5518,-2.5518,-2.5518,-2.5518,-2.5518,-2.5518,-2.5518,-2.5518,-2.5518,-2.5518,-2.5384,-2.513,-2.5264,-2.5358,-2.5344,-2.5264,-2.5277,-2.5371,-2.5211,-2.505,-2.4903,-2.4449,-2.4249,-2.4649,-2.4676,-2.4703,-2.4943,-2.4943,-2.489,-2.4863,-2.4743,-2.4663,-2.4811,-2.4837,-2.4931,-2.4931,-2.5212,-2.5373,-2.5359,-2.5506,-2.5681,-2.58,-2.5946,-2.6017,-2.5945,-2.6353,-2.6546,-2.6546,-2.6692,-2.6574,-2.6721,-2.6764,-2.6939,-2.713,-2.71,-2.7071,-2.71,-2.7071,-2.7056,-2.6998,-2.6998,-2.6998,-2.6983,-2.6998,-2.6998,-2.4636,-2.4636,-2.4636,-2.4636,-2.4649,-2.4743,-2.4783,-2.4796,-2.4877,-2.4917,-2.4917,-2.4917,-2.4917,-2.4957,-2.513,-2.5117,-2.493,-2.493,-2.4917,-2.4917,-2.4917,-2.4917,-2.4957,-2.513,-2.5211,-2.5251,-2.5411,-2.5518,-2.5531,-2.5611,-2.5651,-2.5651,-2.5745,-2.5798,-2.5798,-2.5798,-2.5905,-2.6066,-2.6092,-2.6199,-2.6373,-2.64,-2.64,-2.6333,-2.5999,-2.5798,-2.5798,-2.5798,-2.5798,-2.5798,-2.5798,-2.5798,-2.5798,-2.5798,-2.5798,-2.5785,-2.5798,-2.5798,-2.5798,-2.5798,-2.5678,-2.5411,-2.5625,-2.5772,-2.5678,-2.5732,-2.5852,-2.5892,-2.5798,-2.5651,-2.5545,-2.5117,-2.4943,-2.5277,-2.5277,-2.5344,-2.5598,-2.5558,-2.5438,-2.5291,-2.513,-2.5064,-2.52,-2.5202,-2.5255,-2.5524,-2.5658,-2.5806,-2.5954,-2.5954,-2.6157,-2.6228,-2.6432,-2.6532,-2.6823,-2.7049,-2.6978,-2.6963,-2.6891,-2.6981,-2.707,-2.71,-2.71,-2.7276,-2.7261,-2.7232,-2.7203,-2.7159,-2.7115,-2.7042,-2.6998,-2.6998,-2.6998,-2.6998,-2.6998,-2.4649,-2.469,-2.4649,-2.4703,-2.4756,-2.4983,-2.5077,-2.5117,-2.5344,-2.5424,-2.5398,-2.5464,-2.5411,-2.5478,-2.5478,-2.5504,-2.5478,-2.5504,-2.5478,-2.5438,-2.5438,-2.5438,-2.5438,-2.5491,-2.5545,-2.5558,-2.5545,-2.5558,-2.5611,-2.5838,-2.5959,-2.6012,-2.6199,-2.6279,-2.636,-2.6306,-2.6346,-2.636,-2.6346,-2.6373,-2.64,-2.64,-2.64,-2.64,-2.6333,-2.6319,-2.6346,-2.6346,-2.6319,-2.6333,-2.6333,-2.6373,-2.6319,-2.6319,-2.636,-2.6319,-2.6346,-2.636,-2.6346,-2.6319,-2.6172,-2.5999,-2.6186,-2.6199,-2.6026,-2.6159,-2.6239,-2.6092,-2.6026,-2.5999,-2.6026,-2.5959,-2.5905,-2.5932,-2.5745,-2.5745,-2.5879,-2.5732,-2.5451,-2.5304,-2.5264,-2.5268,-2.5568,-2.5499,-2.5513,-2.591,-2.5923,-2.591,-2.6154,-2.6154,-2.658,-2.7036,-2.7036,-2.7158,-2.756,-2.7798,-2.7496,-2.7179,-2.7079,-2.7158,-2.7401,-2.7386,-2.7507,-2.7522,-2.7656,-2.7613,-2.751,-2.7466,-2.7378,-2.7305,-2.7174,-2.7086,-2.71,-2.7115,-2.7013,-2.5064,-2.5224,-2.5237,-2.5237,-2.5251,-2.5344,-2.5384,-2.5384,-2.5478,-2.5518,-2.5518,-2.5518,-2.5518,-2.5571,-2.5718,-2.5812,-2.5838,-2.5999,-2.5905,-2.5585,-2.5531,-2.5531,-2.5571,-2.5732,-2.5932,-2.6092,-2.6119,-2.6119,-2.6119,-2.6199,-2.6253,-2.6279,-2.6346,-2.6386,-2.64,-2.64,-2.64,-2.64,-2.64,-2.64,-2.64,-2.64,-2.64,-2.64,-2.64,-2.64,-2.64,-2.64,-2.64,-2.64,-2.64,-2.64,-2.64,-2.64,-2.64,-2.64,-2.64,-2.64,-2.64,-2.64,-2.636,-2.6293,-2.636,-2.6346,-2.6266,-2.636,-2.648,-2.652,-2.656,-2.6613,-2.68,-2.6854,-2.6694,-2.6306,-2.6346,-2.6413,-2.648,-2.644,-2.6386,-2.6279,-2.6106,-2.6066,-2.6316,-2.6119,-2.602,-2.618,-2.6275,-2.6289,-2.6267,-2.6447,-2.6489,-2.6932,-2.7084,-2.7668,-2.7965,-2.8206,-2.8052,-2.787,-2.7798,-2.7545,-2.7806,-2.7792,-2.7915,-2.79,-2.8037,-2.7964,-2.7861,-2.7773,-2.77,-2.7598,-2.751,-2.7422,-2.7335,-2.7232,-2.713,-2.5344,-2.5504,-2.5518,-2.5518,-2.5531,-2.5625,-2.5678,-2.5692,-2.5798,-2.5838,-2.5838,-2.5838,-2.5838,-2.5879,-2.6039,-2.6119,-2.6132,-2.6319,-2.6199,-2.5879,-2.5838,-2.5838,-2.5852,-2.6026,-2.6199,-2.6346,-2.6386,-2.64,-2.64,-2.64,-2.6386,-2.6386,-2.64,-2.64,-2.64,-2.64,-2.6426,-2.652,-2.656,-2.66,-2.6694,-2.672,-2.672,-2.672,-2.6707,-2.6707,-2.672,-2.672,-2.6613,-2.644,-2.64,-2.64,-2.64,-2.64,-2.64,-2.64,-2.64,-2.64,-2.64,-2.6493,-2.6547,-2.6573,-2.6747,-2.6881,-2.6907,-2.6947,-2.7148,-2.7268,-2.7321,-2.7388,-2.7549,-2.7589,-2.7362,-2.6934,-2.6921,-2.6987,-2.6974,-2.6881,-2.6814,-2.6694,-2.652,-2.6573,-2.684,-2.6694,-2.6797,-2.6819,-2.6963,-2.7107,-2.7031,-2.7284,-2.7241,-2.7381,-2.7928,-2.824,-2.8429,-2.8628,-2.8769,-2.871,-2.8497,-2.838,-2.8293,-2.8293,-2.8447,-2.8461,-2.8447,-2.833,-2.8227,-2.8154,-2.8081,-2.7964,-2.7832,-2.773,-2.7613,-2.7393,-2.7276,-2.5545,-2.5558,-2.5571,-2.5611,-2.5638,-2.5865,-2.5985,-2.6026,-2.6226,-2.6319,-2.6346,-2.6306,-2.6333,-2.636,-2.6333,-2.6346,-2.6386,-2.6373,-2.6373,-2.6319,-2.6319,-2.6306,-2.6306,-2.6319,-2.636,-2.6386,-2.64,-2.64,-2.64,-2.64,-2.64,-2.64,-2.6426,-2.6426,-2.6466,-2.644,-2.6627,-2.6814,-2.6841,-2.6974,-2.7201,-2.7228,-2.7241,-2.7255,-2.7255,-2.7268,-2.7308,-2.7308,-2.7054,-2.6573,-2.6613,-2.6667,-2.6547,-2.6493,-2.6613,-2.6653,-2.6533,-2.66,-2.66,-2.6867,-2.6974,-2.7014,-2.7388,-2.7722,-2.7669,-2.7789,-2.7949,-2.8043,-2.8083,-2.811,-2.8136,-2.8136,-2.7976,-2.7736,-2.7428,-2.7308,-2.7268,-2.7068,-2.7001,-2.6907,-2.6667,-2.6759,-2.7472,-2.7311,-2.7592,-2.8137,-2.7997,-2.8086,-2.8204,-2.8289,-2.8472,-2.8501,-2.846,-2.8718,-2.8763,-2.905,-2.9208,-2.9193,-2.9105,-2.8944,-2.8754,-2.871,-2.871,-2.8739,-2.8739,-2.8651,-2.8593,-2.8491,-2.8388,-2.8256,-2.8139,-2.8022,-2.7876,-2.7686,-2.7452,-2.5959,-2.6159,-2.6159,-2.6159,-2.6159,-2.6253,-2.6266,-2.6279,-2.6346,-2.64,-2.64,-2.64,-2.64,-2.64,-2.64,-2.64,-2.64,-2.64,-2.64,-2.64,-2.64,-2.64,-2.64,-2.64,-2.64,-2.64,-2.64,-2.64,-2.64,-2.6413,-2.6413,-2.64,-2.6613,-2.6707,-2.6734,-2.6907,-2.7068,-2.7134,-2.7161,-2.7201,-2.7281,-2.7321,-2.7375,-2.7575,-2.7602,-2.7709,-2.7883,-2.7909,-2.7749,-2.7428,-2.7575,-2.7682,-2.7615,-2.7602,-2.7575,-2.7575,-2.7615,-2.7655,-2.7655,-2.7722,-2.7776,-2.7802,-2.7963,-2.803,-2.803,-2.8096,-2.8257,-2.8404,-2.8484,-2.8497,-2.8484,-2.847,-2.8323,-2.8056,-2.7762,-2.7575,-2.7575,-2.7522,-2.7468,-2.7455,-2.7375,-2.7606,-2.8125,-2.8207,-2.8304,-2.8823,-2.8931,-2.8874,-2.8859,-2.8948,-2.9022,-2.8876,-2.8802,-2.9005,-2.9209,-2.9501,-2.9647,-2.9676,-2.9559,-2.9339,-2.909,-2.8856,-2.8856,-2.8856,-2.8827,-2.8754,-2.8783,-2.8769,-2.8651,-2.8505,-2.8432,-2.8315,-2.8212,-2.8052,-2.7759,-2.6239,-2.6386,-2.64,-2.64,-2.64,-2.64,-2.64,-2.64,-2.64,-2.64,-2.64,-2.64,-2.64,-2.64,-2.64,-2.64,-2.64,-2.64,-2.64,-2.64,-2.64,-2.64,-2.64,-2.64,-2.64,-2.64,-2.64,-2.64,-2.6426,-2.6507,-2.6573,-2.664,-2.6867,-2.7001,-2.7014,-2.7161,-2.7335,-2.7442,-2.7562,-2.7682,-2.7816,-2.7949,-2.8096,-2.8243,-2.827,-2.8364,-2.8511,-2.8631,-2.847,-2.8056,-2.8043,-2.815,-2.815,-2.815,-2.815,-2.815,-2.815,-2.8123,-2.8177,-2.8257,-2.8337,-2.839,-2.8524,-2.8698,-2.8751,-2.8804,-2.8978,-2.8965,-2.8978,-2.8911,-2.8791,-2.8684,-2.8537,-2.8337,-2.807,-2.7896,-2.7883,-2.7762,-2.7776,-2.7816,-2.7802,-2.7816,-2.8433,-2.8642,-2.8742,-2.8924,-2.9145,-2.917,-2.9151,-2.9207,-2.9343,-2.9229,-2.932,-2.9468,-2.963,-2.9777,-2.9983,-3.0027,-2.9939,-2.9734,-2.9427,-2.912,-2.9003,-2.8988,-2.893,-2.8886,-2.8886,-2.8886,-2.8827,-2.8725,-2.8666,-2.8622,-2.852,-2.8373,-2.8081,-2.64,-2.64,-2.64,-2.64,-2.64,-2.64,-2.64,-2.64,-2.64,-2.64,-2.64,-2.64,-2.64,-2.64,-2.64,-2.6413,-2.6453,-2.648,-2.6507,-2.6533,-2.656,-2.656,-2.6587,-2.652,-2.6493,-2.6493,-2.6466,-2.6533,-2.6627,-2.6787,-2.6854,-2.6934,-2.7161,-2.7335,-2.7428,-2.7455,-2.7575,-2.7896,-2.8136,-2.8337,-2.8524,-2.8724,-2.8845,-2.8965,-2.9058,-2.9085,-2.9179,-2.9299,-2.9152,-2.8377,-2.8323,-2.8444,-2.8404,-2.8377,-2.839,-2.8457,-2.8511,-2.8484,-2.8417,-2.8711,-2.8791,-2.8885,-2.9259,-2.9486,-2.9419,-2.9499,-2.9526,-2.9285,-2.9419,-2.9192,-2.8925,-2.8698,-2.8524,-2.8417,-2.8243,-2.815,-2.8096,-2.7909,-2.7843,-2.8083,-2.7883,-2.7909,-2.8197,-2.8305,-2.8473,-2.9063,-2.9174,-2.9395,-2.9599,-2.9735,-2.9828,-3.0025,-2.9996,-3.0159,-3.0173,-3.0188,-3.0276,-3.0334,-3.0232,-3.0042,-2.9764,-2.9471,-2.9251,-2.9134,-2.912,-2.9017,-2.8886,-2.8886,-2.8886,-2.8871,-2.8783,-2.8827,-2.8842,-2.8651,-2.8388,-2.64,-2.64,-2.64,-2.64,-2.64,-2.64,-2.64,-2.64,-2.64,-2.64,-2.64,-2.64,-2.64,-2.64,-2.644,-2.6507,-2.672,-2.6747,-2.6841,-2.7068,-2.7081,-2.7081,-2.7028,-2.6894,-2.676,-2.6774,-2.6974,-2.7068,-2.7094,-2.7134,-2.7188,-2.7241,-2.7549,-2.7736,-2.7949,-2.8163,-2.8457,-2.8711,-2.8804,-2.8845,-2.8911,-2.9032,-2.9192,-2.9379,-2.9579,-2.97,-2.9726,-2.9793,-2.9726,-2.9579,-2.9486,-2.9392,-2.9392,-2.9432,-2.9406,-2.9392,-2.9446,-2.9472,-2.9513,-2.9499,-2.9619,-2.9579,-2.9619,-2.9726,-2.9499,-2.9526,-2.9432,-2.9219,-2.9125,-2.9005,-2.8724,-2.843,-2.831,-2.8257,-2.8203,-2.815,-2.8136,-2.8083,-2.807,-2.8096,-2.8083,-2.8238,-2.8642,-2.8642,-2.881,-2.9314,-2.9439,-2.9564,-2.9841,-3.0101,-3.018,-3.0407,-3.0437,-3.0451,-3.0451,-3.0466,-3.0495,-3.0554,-3.0481,-3.0407,-3.0115,-2.9822,-2.9588,-2.9427,-2.931,-2.9164,-2.8915,-2.8886,-2.8886,-2.8886,-2.8886,-2.8886,-2.8871,-2.8769,-2.871,-2.64,-2.64,-2.64,-2.64,-2.64,-2.64,-2.64,-2.64,-2.64,-2.64,-2.6426,-2.652,-2.6587,-2.6613,-2.6734,-2.6907,-2.6987,-2.7041,-2.7188,-2.7402,-2.7468,-2.7468,-2.7549,-2.7549,-2.7509,-2.7175,-2.7175,-2.7321,-2.7455,-2.7629,-2.7776,-2.7909,-2.8163,-2.8417,-2.8537,-2.8724,-2.8845,-2.9005,-2.9192,-2.9245,-2.9259,-2.9392,-2.9486,-2.9659,-2.9833,-2.9913,-2.99,-2.99,-2.9913,-2.9913,-2.9913,-2.9913,-2.9913,-2.9913,-2.9913,-2.9913,-2.9913,-2.9913,-2.99,-2.9913,-2.9887,-2.99,-2.9806,-2.9646,-2.9472,-2.9366,-2.9138,-2.8925,-2.8818,-2.8724,-2.843,-2.8283,-2.815,-2.815,-2.815,-2.815,-2.815,-2.815,-2.815,-2.815,-2.8136,-2.8292,-2.8473,-2.8655,-2.8655,-2.881,-2.9481,-2.9607,-2.9774,-3.005,-3.0412,-3.0715,-3.0744,-3.0759,-3.0759,-3.0759,-3.0729,-3.0744,-3.07,-3.0656,-3.0525,-3.0217,-2.9925,-2.9661,-2.9369,-2.9105,-2.8915,-2.89,-2.8886,-2.8886,-2.8886,-2.8886,-2.8871,-2.8827,-2.8798,-2.6453,-2.6453,-2.6453,-2.644,-2.64,-2.64,-2.64,-2.64,-2.644,-2.6493,-2.652,-2.676,-2.6894,-2.6934,-2.7121,-2.7268,-2.7428,-2.7602,-2.7829,-2.7976,-2.8003,-2.8016,-2.8083,-2.8283,-2.8257,-2.7589,-2.7655,-2.7789,-2.7976,-2.815,-2.8364,-2.8644,-2.8858,-2.8951,-2.9058,-2.9112,-2.9165,-2.9285,-2.9459,-2.9553,-2.9566,-2.9753,-2.9847,-2.9873,-2.9887,-2.9913,-2.9913,-2.9913,-2.9913,-2.9913,-2.9913,-2.9913,-2.9913,-2.9913,-2.9913,-2.9913,-2.9913,-2.9913,-2.9887,-2.986,-2.982,-2.9847,-2.9579,-2.9392,-2.9285,-2.9085,-2.8845,-2.8644,-2.8511,-2.8444,-2.8177,-2.815,-2.815,-2.8163,-2.8177,-2.8217,-2.823,-2.823,-2.831,-2.815,-2.815,-2.8305,-2.8318,-2.8318,-2.8318,-2.8487,-2.9146,-2.9649,-2.9816,-2.9983,-3.0499,-3.0832,-3.0817,-3.0817,-3.0817,-3.0817,-3.0817,-3.0817,-3.0817,-3.0803,-3.0759,-3.0451,-3.0071,-2.9647,-2.9339,-2.9105,-2.8944,-2.89,-2.8886,-2.8886,-2.8886,-2.8886,-2.8886,-2.8886,-2.8871,-2.676,-2.6747,-2.6747,-2.6613,-2.6413,-2.64,-2.64,-2.6426,-2.664,-2.6747,-2.6787,-2.7054,-2.7188,-2.7241,-2.7228,-2.7522,-2.8003,-2.8337,-2.8644,-2.8738,-2.8738,-2.8738,-2.8778,-2.8898,-2.8858,-2.8804,-2.8698,-2.8711,-2.8738,-2.8885,-2.8911,-2.8978,-2.9058,-2.9179,-2.9366,-2.9419,-2.9513,-2.9633,-2.9753,-2.9793,-2.982,-2.986,-2.9913,-2.9913,-2.9913,-2.9913,-2.9913,-2.9913,-2.9913,-2.9913,-2.9913,-2.9913,-2.99,-2.99,-2.9887,-2.9913,-2.9873,-2.986,-2.9847,-2.9673,-2.9579,-2.9499,-2.9285,-2.9005,-2.8845,-2.8711,-2.8551,-2.8364,-2.8257,-2.8203,-2.815,-2.815,-2.815,-2.819,-2.835,-2.8511,-2.8564,-2.8617,-2.8591,-2.8283,-2.8203,-2.8318,-2.8318,-2.8487,-2.8655,-2.8824,-2.9328,-2.983,-2.9998,-3.0165,-3.0499,-3.0665,-3.0817,-3.0817,-3.0817,-3.0817,-3.0817,-3.0817,-3.0817,-3.0817,-3.0729,-3.0525,-3.0188,-2.9837,-2.9486,-2.9222,-2.9076,-2.8959,-2.8886,-2.8886,-2.8886,-2.8886,-2.8886,-2.8886,-2.8886,-2.66,-2.66,-2.66,-2.652,-2.64,-2.64,-2.648,-2.6613,-2.676,-2.6907,-2.7108,-2.7362,-2.7589,-2.7722,-2.7909,-2.8217,-2.8604,-2.8858,-2.9125,-2.9219,-2.9272,-2.9272,-2.9299,-2.9392,-2.9379,-2.9352,-2.9392,-2.9392,-2.9285,-2.9259,-2.9339,-2.9472,-2.9486,-2.9566,-2.9673,-2.9713,-2.978,-2.99,-2.9913,-2.9913,-2.9913,-2.9913,-2.9913,-2.9913,-2.9913,-2.9913,-2.9913,-2.9913,-2.9913,-2.9913,-2.9913,-2.9913,-2.9887,-2.9806,-2.9766,-2.986,-2.978,-2.9686,-2.9646,-2.9432,-2.9259,-2.9219,-2.8978,-2.8778,-2.8604,-2.847,-2.831,-2.8203,-2.815,-2.815,-2.815,-2.815,-2.8217,-2.8364,-2.8524,-2.8657,-2.8778,-2.8818,-2.8644,-2.8417,-2.8404,-2.8493,-2.8655,-2.8655,-2.8992,-2.916,-2.9663,-2.983,-3.0179,-3.0332,-3.0499,-3.0665,-3.0817,-3.0817,-3.0817,-3.0817,-3.0817,-3.0817,-3.0817,-3.0817,-3.0744,-3.0568,-3.0393,-3.0159,-2.9793,-2.9369,-2.9193,-2.9076,-2.8988,-2.89,-2.8886,-2.8886,-2.8886,-2.8886,-2.8886,-2.6466,-2.6466,-2.648,-2.644,-2.64,-2.6453,-2.66,-2.6814,-2.6961,-2.7148,-2.7375,-2.7736,-2.8016,-2.827,-2.8591,-2.8911,-2.9138,-2.9179,-2.9379,-2.9526,-2.9566,-2.9566,-2.9646,-2.974,-2.9766,-2.9619,-2.9726,-2.9793,-2.9619,-2.9566,-2.97,-2.978,-2.9887,-2.9913,-2.9887,-2.986,-2.9913,-2.9913,-2.9913,-2.9913,-2.9913,-2.9913,-2.9913,-2.9913,-2.9913,-2.9913,-2.9913,-2.9913,-2.9913,-2.9913,-2.9913,-2.9913,-2.9873,-2.97,-2.9659,-2.9753,-2.9553,-2.9432,-2.9325,-2.9125,-2.8951,-2.8938,-2.8671,-2.8551,-2.847,-2.8297,-2.8163,-2.815,-2.815,-2.815,-2.815,-2.815,-2.8243,-2.8404,-2.8537,-2.8671,-2.8778,-2.8818,-2.891,-2.8789,-2.8789,-2.8798,-2.8723,-2.9328,-2.9495,-2.9663,-2.9998,-3.0165,-3.0499,-3.0665,-3.0665,-3.0651,-3.0817,-3.0817,-3.0817,-3.0817,-3.0817,-3.0817,-3.0817,-3.0817,-3.0744,-3.0642,-3.0481,-3.0334,-2.9925,-2.9529,-2.9369,-2.9193,-2.9076,-2.8988,-2.893,-2.8886,-2.8886,-2.8886,-2.8886,-2.6774,-2.676,-2.676,-2.6627,-2.6453,-2.6653,-2.6787,-2.6907,-2.7362,-2.7602,-2.7722,-2.8217,-2.8484,-2.8684,-2.9138,-2.9366,-2.9486,-2.9633,-2.974,-2.9806,-2.982,-2.982,-2.9847,-2.9887,-2.99,-2.9806,-2.9873,-2.99,-2.982,-2.982,-2.9847,-2.9913,-2.9913,-2.9913,-2.9913,-2.9913,-2.9913,-2.9913,-2.9913,-2.9913,-2.9913,-2.9913,-2.9913,-2.9913,-2.9913,-2.9913,-2.9913,-2.9913,-2.9913,-2.9913,-2.9913,-2.9913,-2.99,-2.9887,-2.9726,-2.9539,-2.9285,-2.9098,-2.9045,-2.8818,-2.8657,-2.8604,-2.839,-2.8243,-2.8217,-2.8217,-2.815,-2.815,-2.815,-2.815,-2.815,-2.815,-2.8177,-2.831,-2.8497,-2.8604,-2.8711,-2.8964,-2.9055,-2.9131,-2.922,-2.907,-2.9033,-2.9523,-3.0179,-3.0179,-3.0332,-3.0499,-3.0651,-3.0817,-3.0817,-3.0817,-3.0817,-3.0817,-3.0817,-3.0817,-3.0817,-3.0817,-3.0817,-3.0817,-3.0773,-3.07,-3.0612,-3.0393,-3.0027,-2.9764,-2.9617,-2.9427,-2.9208,-2.909,-2.9047,-2.8973,-2.8886,-2.8886,-2.89,-2.6573,-2.6573,-2.6573,-2.66,-2.6653,-2.6774,-2.7014,-2.7321,-2.7589,-2.7896,-2.8203,-2.847,-2.8778,-2.9125,-2.9553,-2.9713,-2.9753,-2.986,-2.9913,-2.9913,-2.9913,-2.9913,-2.99,-2.9913,-2.9913,-2.9913,-2.9913,-2.9913,-2.9913,-2.99,-2.9913,-2.9913,-2.9913,-2.9913,-2.9913,-2.9913,-2.9913,-2.9913,-2.9913,-2.9913,-2.9913,-2.9913,-2.9913,-2.9913,-2.9913,-2.9913,-2.9913,-2.9913,-2.9913,-2.9913,-2.9913,-2.9913,-2.982,-2.9646,-2.9392,-2.9472,-2.8858,-2.8644,-2.8724,-2.8497,-2.8404,-2.8337,-2.823,-2.8163,-2.815,-2.815,-2.815,-2.815,-2.815,-2.815,-2.815,-2.815,-2.8257,-2.8377,-2.847,-2.8617,-2.887,-2.9028,-2.9186,-2.9418,-2.9648,-2.9481,-2.9537,-2.9859,-3.0346,-3.0499,-3.0665,-3.0665,-3.0817,-3.0817,-3.0817,-3.0817,-3.0817,-3.0817,-3.0817,-3.0817,-3.0817,-3.0817,-3.0817,-3.0817,-3.0817,-3.0759,-3.0671,-3.0671,-3.051,-3.0232,-2.9925,-2.9647,-2.9383,-2.9266,-2.9178,-2.912,-2.9061,-2.89,-2.89,-2.64,-2.64,-2.64,-2.656,-2.6827,-2.6894,-2.7215,-2.7669,-2.7883,-2.819,-2.8551,-2.8778,-2.9138,-2.9526,-2.978,-2.9873,-2.99,-2.9913,-2.9913,-2.9913,-2.9913,-2.9913,-2.9913,-2.9913,-2.9913,-2.9913,-2.9793,-2.978,-2.9753,-2.9726,-2.97,-2.99,-2.9913,-2.9913,-2.9913,-2.9913,-2.9913,-2.9913,-2.9913,-2.9913,-2.9913,-2.9913,-2.9913,-2.9913,-2.9913,-2.9913,-2.9913,-2.9806,-2.9793,-2.978,-2.9673,-2.9606,-2.9566,-2.9325,-2.9138,-2.9098,-2.8644,-2.8417,-2.843,-2.8297,-2.8163,-2.815,-2.815,-2.815,-2.815,-2.815,-2.815,-2.815,-2.815,-2.815,-2.815,-2.815,-2.8386,-2.8507,-2.8614,-2.8802,-2.9082,-2.9118,-2.935,-2.9761,-3.0,-3.0097,-3.0179,-3.0346,-3.0499,-3.0651,-3.0817,-3.0817,-3.0817,-3.0817,-3.0817,-3.0817,-3.0817,-3.0817,-3.0817,-3.0817,-3.0817,-3.0817,-3.0817,-3.0817,-3.0817,-3.0788,-3.0729,-3.0744,-3.0773,-3.0422,-2.9954,-2.9764,-2.9588,-2.9515,-2.9427,-2.9354,-2.9251,-2.9061,-2.8915,-2.64,-2.64,-2.64,-2.6573,-2.6867,-2.7121,-2.7415,-2.7829,-2.831,-2.8564,-2.8751,-2.9152,-2.9553,-2.9806,-2.9873,-2.9913,-2.9913,-2.9913,-2.9913,-2.9913,-2.9913,-2.9913,-2.9913,-2.9913,-2.9913,-2.9873,-2.9766,-2.9633,-2.9486,-2.9406,-2.9553,-2.982,-2.9753,-2.9847,-2.9913,-2.9913,-2.9913,-2.99,-2.9873,-2.986,-2.986,-2.9847,-2.9833,-2.986,-2.9887,-2.9913,-2.9887,-2.9646,-2.9513,-2.9499,-2.9339,-2.9232,-2.9219,-2.9072,-2.8951,-2.8831,-2.8617,-2.8404,-2.8323,-2.823,-2.8163,-2.815,-2.815,-2.815,-2.815,-2.815,-2.815,-2.815,-2.8305,-2.8305,-2.8305,-2.8318,-2.8528,-2.8737,-2.8805,-2.9001,-2.907,-2.9198,-2.9439,-2.9887,-3.0193,-3.0332,-3.0499,-3.0499,-3.0499,-3.0817,-3.0817,-3.0817,-3.0817,-3.0817,-3.0817,-3.0817,-3.0817,-3.0817,-3.0817,-3.0817,-3.0817,-3.0817,-3.0817,-3.0817,-3.0817,-3.0788,-3.0759,-3.0671,-3.0627,-3.0305,-3.0263,-3.0587,-3.0674,-2.9983,-2.9851,-3.0082,-2.9512,-2.909,-2.8959,-2.64,-2.6413,-2.6587,-2.6827,-2.7134,-2.7602,-2.7976,-2.8297,-2.8698,-2.8991,-2.9165,-2.9566,-2.9806,-2.9887,-2.9913,-2.9913,-2.9913,-2.9913,-2.9913,-2.9913,-2.9913,-2.9913,-2.9913,-2.99,-2.9913,-2.9873,-2.9766,-2.9619,-2.9472,-2.9245,-2.9245,-2.9406,-2.9392,-2.9646,-2.9766,-2.986,-2.9873,-2.9833,-2.974,-2.9646,-2.9606,-2.9446,-2.9379,-2.9379,-2.9379,-2.9379,-2.9352,-2.9272,-2.9219,-2.9179,-2.9072,-2.9018,-2.8951,-2.8845,-2.8791,-2.8738,-2.8537,-2.8377,-2.8364,-2.8243,-2.815,-2.815,-2.815,-2.815,-2.815,-2.815,-2.815,-2.8305,-2.8305,-2.8473,-2.8487,-2.881,-2.916,-2.9146,-2.9146,-2.9146,-2.9314,-2.9495,-2.9663,-3.0179,-3.0513,-3.0665,-3.0651,-3.0817,-3.0817,-3.0817,-3.0817,-3.0817,-3.0817,-3.0817,-3.0817,-3.0817,-3.0817,-3.0817,-3.0817,-3.0817,-3.0817,-3.0817,-3.0817,-3.0817,-3.0817,-3.0817,-3.0773,-3.0656,-3.0778,-3.0839,-3.1138,-3.1705,-3.1599,-3.1001,-3.0791,-3.1136,-3.0325,-2.9321,-2.9061,-2.644,-2.656,-2.6827,-2.7121,-2.7442,-2.7923,-2.8377,-2.8751,-2.9045,-2.9339,-2.9619,-2.9833,-2.9913,-2.9913,-2.9913,-2.9913,-2.9913,-2.9913,-2.9913,-2.9913,-2.9913,-2.9913,-2.9887,-2.982,-2.974,-2.9753,-2.9553,-2.9339,-2.9165,-2.9125,-2.9018,-2.8911,-2.8858,-2.9112,-2.9499,-2.9659,-2.9659,-2.9593,-2.9486,-2.9352,-2.9312,-2.9179,-2.9072,-2.9085,-2.9098,-2.9098,-2.9072,-2.9005,-2.8925,-2.8871,-2.8804,-2.8764,-2.8684,-2.8631,-2.8604,-2.8551,-2.847,-2.8283,-2.8337,-2.8297,-2.815,-2.815,-2.815,-2.815,-2.815,-2.815,-2.815,-2.815,-2.8487,-2.8655,-2.8824,-2.8992,-2.9328,-2.9495,-2.9314,-2.9481,-2.983,-2.9998,-3.0165,-3.0513,-3.0665,-3.0817,-3.0817,-3.0817,-3.0817,-3.0817,-3.0817,-3.0817,-3.0817,-3.0817,-3.0817,-3.0817,-3.0817,-3.0817,-3.0817,-3.0817,-3.0817,-3.0817,-3.0817,-3.0817,-3.0817,-3.0817,-3.0817,-3.0759,-3.1076,-3.1286,-3.2412,-3.3644,-3.2912,-3.1823,-3.1919,-3.1978,-3.0435,-2.9471,-2.9281,-2.6547,-2.6841,-2.7134,-2.7428,-2.7749,-2.8016,-2.8497,-2.9032,-2.9352,-2.9619,-2.9847,-2.9913,-2.9913,-2.9913,-2.9913,-2.9913,-2.9913,-2.9913,-2.9913,-2.9913,-2.9913,-2.9913,-2.9806,-2.9686,-2.9539,-2.9352,-2.9205,-2.9005,-2.8751,-2.8751,-2.8631,-2.8684,-2.8764,-2.8724,-2.9072,-2.9085,-2.9085,-2.9085,-2.9112,-2.9098,-2.9085,-2.8991,-2.8898,-2.8885,-2.8885,-2.8858,-2.8818,-2.8698,-2.8644,-2.8671,-2.8497,-2.8444,-2.843,-2.8404,-2.8377,-2.8337,-2.8297,-2.8217,-2.8177,-2.815,-2.815,-2.815,-2.815,-2.815,-2.815,-2.815,-2.815,-2.815,-2.8318,-2.8487,-2.8655,-2.8992,-2.9495,-2.983,-2.9816,-2.9816,-3.0165,-3.0499,-3.0499,-3.0499,-3.0665,-3.0817,-3.0817,-3.0817,-3.0817,-3.0817,-3.0817,-3.0817,-3.0817,-3.0817,-3.0817,-3.0817,-3.0817,-3.0817,-3.0817,-3.0817,-3.0817,-3.0817,-3.0817,-3.0984,-3.115,-3.1467,-3.1301,-3.115,-3.1632,-3.2293,-3.4066,-3.5994,-3.5087,-3.418,-3.2854,-3.2295,-3.0937,-2.9764,-2.9559,-2.656,-2.6867,-2.7348,-2.7843,-2.831,-2.8617,-2.8965,-2.9339,-2.9633,-2.982,-2.99,-2.9913,-2.9913,-2.9913,-2.9913,-2.9913,-2.9913,-2.9913,-2.9913,-2.9913,-2.9913,-2.9766,-2.9659,-2.9553,-2.9392,-2.9259,-2.9072,-2.9032,-2.8925,-2.8885,-2.9045,-2.9138,-2.9138,-2.9085,-2.9005,-2.9058,-2.9352,-2.9299,-2.9179,-2.9032,-2.8991,-2.8711,-2.8484,-2.8497,-2.8497,-2.8537,-2.8551,-2.843,-2.8497,-2.8617,-2.847,-2.8524,-2.8631,-2.8684,-2.8698,-2.8711,-2.8711,-2.8631,-2.8457,-2.831,-2.815,-2.8163,-2.815,-2.815,-2.815,-2.815,-2.815,-2.8318,-2.8318,-2.8655,-2.916,-2.9663,-3.0012,-3.0499,-3.0484,-3.0484,-3.0651,-3.0665,-3.0665,-3.0665,-3.0817,-3.0817,-3.0817,-3.0817,-3.0817,-3.0817,-3.0817,-3.0817,-3.0817,-3.0817,-3.0817,-3.0817,-3.0817,-3.0817,-3.0817,-3.1632,-3.1963,-3.2128,-3.1798,-3.1467,-3.1632,-3.1963,-3.1798,-3.1467,-3.2458,-3.3592,-3.5204,-3.6637,-3.7436,-3.6852,-3.5366,-3.379,-3.2487,-3.1128,-2.9778,-2.668,-2.7148,-2.7535,-2.8177,-2.8871,-2.9125,-2.9366,-2.9633,-2.9833,-2.9913,-2.9913,-2.9913,-2.9913,-2.9913,-2.9913,-2.9913,-2.9913,-2.9913,-2.9913,-2.9913,-2.9913,-2.982,-2.9686,-2.9526,-2.9419,-2.9285,-2.9339,-2.9352,-2.9219,-2.9486,-2.9593,-2.9646,-2.982,-2.9553,-2.9366,-2.9486,-2.9633,-2.9566,-2.9406,-2.9152,-2.8965,-2.8644,-2.8297,-2.8257,-2.827,-2.835,-2.835,-2.8417,-2.8537,-2.8698,-2.8791,-2.8845,-2.9005,-2.9045,-2.9045,-2.9045,-2.9018,-2.8925,-2.8738,-2.8631,-2.8537,-2.8511,-2.8297,-2.815,-2.815,-2.815,-2.815,-2.8318,-2.8487,-2.8992,-2.9495,-2.983,-3.0165,-3.0484,-3.0817,-3.0817,-3.0817,-3.0817,-3.0817,-3.0817,-3.0817,-3.0817,-3.0817,-3.0817,-3.0817,-3.0817,-3.0817,-3.0817,-3.0817,-3.0984,-3.1316,-3.1467,-3.1798,-3.2278,-3.2772,-3.3249,-3.3429,-3.3429,-3.2936,-3.2443,-3.1963,-3.2293,-3.1963,-3.1963,-3.2772,-3.4066,-3.5672,-3.7117,-3.8566,-3.853,-3.7276,-3.572,-3.4193,-3.2888,-3.1542,-2.6921,-2.7642,-2.7736,-2.843,-2.9366,-2.9472,-2.9659,-2.99,-2.9913,-2.9913,-2.9913,-2.9913,-2.9913,-2.9913,-2.9913,-2.9913,-2.9913,-2.9913,-2.9913,-2.9913,-2.9913,-2.986,-2.9766,-2.9619,-2.9513,-2.9486,-2.9566,-2.97,-2.9566,-2.9953,-3.0074,-3.0047,-3.0221,-3.0154,-3.0127,-3.0127,-3.0114,-2.9927,-2.9726,-2.9472,-2.9232,-2.8885,-2.8591,-2.8497,-2.8497,-2.8591,-2.8671,-2.8791,-2.8938,-2.9032,-2.9058,-2.9072,-2.9085,-2.9072,-2.9072,-2.9085,-2.9125,-2.9072,-2.9045,-2.8978,-2.8925,-2.8804,-2.8497,-2.8283,-2.8177,-2.819,-2.815,-2.815,-2.8318,-2.881,-2.9314,-2.9649,-2.9998,-3.0317,-3.0817,-3.0817,-3.0817,-3.0817,-3.0817,-3.0817,-3.0817,-3.0817,-3.0817,-3.0817,-3.0817,-3.0817,-3.0817,-3.0817,-3.0984,-3.1482,-3.1963,-3.2788,-3.3265,-3.4229,-3.4717,-3.488,-3.5187,-3.5187,-3.4229,-3.374,-3.3265,-3.3101,-3.3265,-3.3413,-3.3429,-3.4555,-3.6637,-3.8566,-4.0353,-3.9807,-3.879,-3.7647,-3.6286,-3.5358,-3.4226,-2.7281,-2.7749,-2.839,-2.8978,-2.9472,-2.97,-2.9847,-2.9913,-2.9913,-2.9913,-2.9913,-2.9913,-2.9913,-2.9913,-2.9913,-2.9913,-2.99,-2.9913,-2.9913,-2.9913,-2.9927,-2.978,-2.974,-2.9753,-2.9646,-2.9726,-2.986,-3.0114,-3.0234,-3.0555,-3.0808,-3.0875,-3.0915,-3.1022,-3.1062,-3.1142,-3.0742,-3.0394,-3.0181,-2.994,-2.9673,-2.9379,-2.9085,-2.8925,-2.8885,-2.8965,-2.9005,-2.9032,-2.9165,-2.9325,-2.9352,-2.9419,-2.9659,-2.9659,-2.9673,-2.9633,-2.9513,-2.9352,-2.9312,-2.9165,-2.9085,-2.9112,-2.8858,-2.8684,-2.8497,-2.8337,-2.8399,-2.8386,-2.8541,-2.9047,-2.9342,-2.9663,-2.9998,-3.0484,-3.0817,-3.0817,-3.0817,-3.0817,-3.0817,-3.0817,-3.0817,-3.0817,-3.0817,-3.0817,-3.0817,-3.0817,-3.0817,-3.0817,-3.1316,-3.1798,-3.2772,-3.3756,-3.488,-3.5833,-3.5833,-3.6011,-3.6637,-3.6797,-3.5994,-3.5672,-3.5994,-3.5833,-3.5187,-3.4863,-3.488,-3.5994,-3.7914,-3.9688,-4.1172,-4.1172,-4.0315,-3.9355,-3.8408,-3.7436,-3.6477,-2.7642,-2.827,-2.8804,-2.9272,-2.9646,-2.9847,-2.9913,-2.9913,-2.9913,-2.9913,-2.9913,-2.9913,-2.9913,-2.9913,-2.99,-2.986,-2.974,-2.986,-2.986,-2.9753,-2.998,-3.0007,-2.998,-3.0087,-3.0167,-3.0221,-3.0394,-3.0702,-3.0808,-3.1102,-3.1383,-3.1383,-3.161,-3.165,-3.161,-3.1517,-3.1343,-3.1022,-3.0755,-3.0541,-3.0261,-2.9967,-2.9686,-2.9446,-2.9392,-2.9392,-2.9379,-2.9379,-2.9486,-2.9633,-2.9659,-2.9713,-2.99,-2.99,-2.99,-2.9847,-2.9766,-2.9659,-2.9633,-2.9526,-2.9419,-2.9352,-2.9272,-2.93,-2.9111,-2.9095,-2.8893,-2.8744,-2.8859,-2.9143,-2.9565,-2.983,-3.0332,-3.0651,-3.0817,-3.0817,-3.0817,-3.0817,-3.0817,-3.0817,-3.0817,-3.0817,-3.0817,-3.0817,-3.0817,-3.0817,-3.0984,-3.1482,-3.1963,-3.2623,-3.3592,-3.4717,-3.6155,-3.7436,-3.7295,-3.7454,-3.7932,-3.8249,-3.7596,-3.7596,-3.839,-3.7596,-3.5994,-3.5833,-3.6155,-3.7436,-3.8724,-4.0021,-4.1172,-4.1172,-4.1172,-4.0509,-3.9864,-3.955,-3.8408,-2.8043,-2.9018,-2.9098,-2.9432,-2.9873,-2.9913,-2.9913,-2.9913,-2.9913,-2.9913,-2.9913,-2.9913,-2.9913,-2.9913,-2.9913,-2.9793,-2.9753,-2.9833,-2.9887,-2.9579,-3.0074,-3.0261,-3.0421,-3.0648,-3.0675,-3.0875,-3.1049,-3.1183,-3.1303,-3.1463,-3.1597,-3.1677,-3.1664,-3.1677,-3.1677,-3.1677,-3.1557,-3.145,-3.1249,-3.1049,-3.0795,-3.0541,-3.0287,-3.0034,-2.998,-2.9993,-2.998,-2.9967,-2.9953,-2.9953,-2.9913,-2.99,-2.99,-2.9913,-2.9913,-2.9913,-2.9873,-2.986,-2.9847,-2.978,-2.982,-2.9753,-2.9673,-2.988,-2.9866,-2.9553,-2.9281,-2.9385,-2.9699,-2.9898,-3.0368,-3.0496,-3.0821,-3.1,-3.1066,-3.0964,-3.0832,-3.0832,-3.0817,-3.0817,-3.0817,-3.0817,-3.0817,-3.0817,-3.0817,-3.0817,-3.1482,-3.1963,-3.2936,-3.3756,-3.488,-3.6011,-3.7614,-3.9059,-3.955,-3.9707,-3.955,-3.9531,-3.8882,-3.8882,-3.9374,-3.8249,-3.6477,-3.6957,-3.7773,-3.8249,-3.9374,-4.0509,-4.1172,-4.1172,-4.1172,-4.1172,-4.0997,-4.0685,-4.0197,-2.8778,-2.9085,-2.9526,-2.9806,-2.99,-2.9913,-2.9913,-2.9913,-2.9913,-2.9913,-2.9913,-2.9913,-2.99,-2.9873,-2.99,-2.982,-2.9793,-2.982,-2.9993,-3.0047,-3.0301,-3.0515,-3.0702,-3.0955,-3.1089,-3.1209,-3.137,-3.153,-3.1543,-3.1623,-3.1677,-3.1677,-3.1677,-3.1677,-3.1677,-3.1677,-3.1664,-3.165,-3.157,-3.1383,-3.1142,-3.1049,-3.0889,-3.0675,-3.0581,-3.0555,-3.0488,-3.0354,-3.0287,-3.0234,-3.0007,-2.994,-2.9913,-2.9927,-2.9927,-2.9913,-2.994,-2.994,-2.9913,-2.9913,-3.0093,-3.0272,-3.0369,-3.0698,-3.0519,-2.9959,-2.9927,-3.026,-3.0461,-3.0878,-3.1037,-3.1167,-3.1239,-3.1364,-3.13,-3.1081,-3.0846,-3.0832,-3.0817,-3.0817,-3.0817,-3.0817,-3.0817,-3.0817,-3.0817,-3.1316,-3.2458,-3.3265,-3.4392,-3.5366,-3.6797,-3.8091,-3.9393,-4.0685,-4.1172,-4.1172,-4.0685,-4.0685,-4.0197,-4.0353,-4.0353,-3.9216,-3.8091,-3.8901,-3.9707,-3.9707,-3.9864,-4.0685,-4.1172,-4.1172,-4.1172,-4.1172,-4.1172,-4.0997,-4.0841,-2.9192,-2.9459,-2.978,-2.9913,-2.9913,-2.9913,-2.9913,-2.9913,-2.9913,-2.9913,-2.9913,-2.99,-2.9847,-2.9793,-2.9847,-2.9713,-2.9673,-2.982,-2.982,-2.998,-3.0421,-3.0635,-3.0889,-3.1209,-3.137,-3.149,-3.157,-3.1664,-3.1677,-3.1677,-3.1677,-3.1677,-3.1677,-3.1677,-3.1677,-3.1677,-3.1677,-3.1677,-3.1677,-3.157,-3.141,-3.1383,-3.137,-3.1196,-3.1076,-3.1022,-3.0889,-3.0702,-3.0501,-3.0394,-3.0194,-3.0261,-3.0301,-3.0354,-3.0261,-3.0167,-3.0114,-3.006,-2.9967,-3.0093,-3.0285,-3.0643,-3.0973,-3.1109,-3.1704,-3.1189,-3.1049,-3.1402,-3.1883,-3.2293,-3.2018,-3.1917,-3.18,-3.1724,-3.1417,-3.1139,-3.0949,-3.0817,-3.0817,-3.0817,-3.0817,-3.0817,-3.0817,-3.0817,-3.0984,-3.2293,-3.3265,-3.4717,-3.5833,-3.6975,-3.8408,-3.955,-4.0529,-4.1016,-4.1172,-4.1172,-4.1016,-4.1172,-4.1172,-4.1016,-4.0685,-4.0353,-4.0021,-4.0353,-4.0509,-4.0509,-4.0841,-4.1172,-4.1172,-4.1172,-4.1172,-4.1172,-4.1172,-4.1172,-4.1172,-2.9459,-2.9887,-2.9913,-2.9913,-2.9913,-2.9913,-2.9913,-2.9913,-2.9913,-2.9887,-2.9847,-2.9887,-2.974,-2.9659,-2.97,-2.9432,-2.9379,-2.9646,-2.9659,-3.0034,-3.0488,-3.0822,-3.1129,-3.1396,-3.1543,-3.161,-3.1664,-3.1677,-3.1677,-3.1677,-3.1677,-3.1677,-3.1677,-3.1677,-3.1677,-3.1677,-3.1677,-3.1677,-3.1677,-3.1677,-3.1664,-3.1677,-3.1623,-3.1543,-3.1436,-3.1303,-3.1196,-3.1009,-3.0715,-3.0581,-3.0474,-3.0515,-3.0608,-3.0648,-3.0568,-3.0461,-3.0314,-3.0194,-3.024,-3.0478,-3.067,-3.1042,-3.1193,-3.169,-3.2304,-3.2556,-3.2412,-3.2635,-3.311,-3.3067,-3.2968,-3.269,-3.2383,-3.1959,-3.1622,-3.1212,-3.1007,-3.0832,-3.0817,-3.0817,-3.0817,-3.0817,-3.0817,-3.0817,-3.1632,-3.2952,-3.4392,-3.5994,-3.7436,-3.8408,-3.955,-4.0197,-4.0841,-4.1172,-4.1172,-4.1172,-4.1172,-4.1172,-4.1172,-4.1172,-4.1172,-4.0685,-4.0685,-4.0841,-4.1016,-4.0997,-4.0997,-4.1172,-4.1172,-4.1172,-4.1172,-4.1172,-4.1172,-4.1172,-4.1172,-2.9806,-2.9913,-2.9913,-2.9913,-2.9913,-2.9913,-2.9913,-2.9913,-2.9913,-2.9793,-2.9713,-2.9806,-2.9753,-2.9486,-2.9526,-2.9446,-2.9499,-2.9659,-3.0127,-3.0581,-3.0728,-3.1076,-3.1356,-3.1503,-3.1637,-3.1677,-3.1677,-3.1677,-3.1677,-3.1677,-3.1677,-3.1677,-3.1677,-3.1677,-3.1677,-3.1677,-3.1677,-3.1677,-3.1677,-3.1677,-3.1677,-3.1677,-3.1677,-3.1637,-3.1623,-3.1583,-3.1503,-3.1289,-3.1156,-3.1009,-3.0822,-3.0768,-3.0808,-3.0849,-3.0782,-3.0702,-3.0555,-3.0576,-3.061,-3.0794,-3.0959,-3.1873,-3.2096,-3.257,-3.3205,-3.3663,-3.3605,-3.3692,-3.3963,-3.3963,-3.3744,-3.348,-3.3158,-3.25,-3.2046,-3.1417,-3.0978,-3.0876,-3.0817,-3.0817,-3.0817,-3.0817,-3.0817,-3.115,-3.1798,-3.3101,-3.488,-3.6477,-3.8566,-3.9707,-4.0685,-4.0841,-4.1172,-4.1172,-4.1172,-4.1172,-4.1172,-4.1172,-4.1172,-4.1172,-4.1172,-4.1172,-4.1172,-4.1172,-4.1172,-4.1172,-4.1172,-4.1172,-4.1172,-4.1172,-4.1172,-4.1172,-4.1172,-4.1172,-4.1172]}]]